[[{"header":{"parameterUnit":"m.s-1","parameterCategory":1,"la1":30.6,"la2":29.2853,"lo1":-89.7004,"lo2":-87.6739,"dy":0.0162,"dx":0.0183,"nx":112,"ny":82,"refTime":"2025-04-09T06:00:00:Z","depth":0,"parameterNumber":2,"parameterNumberName":"U-component_of_WINDS"},"data":[0.0,0.0,0.0,0.0,0.0,0.0,0.0,0.0,0.0,0.0,0.0,0.0,0.0,0.0,0.0,0.0,0.0,0.0,0.0,0.0,0.0,0.0,0.0,0.0,0.0,0.0,0.0,0.0,0.0,0.0,0.0,0.0,0.0,0.0,0.0,0.0,0.0,0.0,0.0,0.0,0.0,0.0,0.0,0.0,0.0,0.0,0.0,0.0,0.0,0.0,0.0,0.0,0.0,0.0,0.0,0.0,0.0,0.0,0.0,0.0,0.0,0.0,0.0,0.0,0.0,0.0,0.0,0.0,0.0,0.0,0.0,0.0,0.0,0.0,0.0,0.0,0.0,0.0,0.0,0.0,0.0,0.0,0.0,0.0,0.0,0.0,0.0,0.0,0.0,0.0,0.0,2.5834,2.7362,2.8644,2.9525,2.8806,2.7207,2.4663,0.0,0.0,0.0,0.0,0.0,0.0,0.0,0.0,0.0,0.0,0.0,0.0,0.0,0.0,0.0,0.0,0.0,0.0,0.0,0.0,0.0,0.0,0.0,0.0,0.0,0.0,0.0,0.0,0.0,0.0,0.0,0.0,0.0,0.0,0.0,0.0,0.0,0.0,0.0,0.0,0.0,0.0,0.0,0.0,0.0,0.0,0.0,0.0,0.0,0.0,0.0,0.0,0.0,0.0,0.0,0.0,0.0,0.0,0.0,0.0,0.0,0.0,0.0,0.0,0.0,0.0,0.0,0.0,0.0,0.0,0.0,0.0,0.0,0.0,0.0,0.0,0.0,0.0,0.0,0.0,0.0,0.0,0.0,0.0,0.0,0.0,0.0,0.0,0.0,0.0,0.0,0.0,0.0,0.0,0.0,0.0,0.0,0.0,0.0,0.0,0.0,0.0,0.0,0.0,2.3537,2.7324,2.8612,2.9564,3.0418,2.97,2.8126,2.5562,0.0,0.0,0.0,0.0,0.0,0.0,0.0,0.0,0.0,0.0,0.0,0.0,0.0,0.0,0.0,0.0,0.0,0.0,0.0,0.0,0.0,0.0,0.0,0.0,0.0,0.0,0.0,0.0,0.0,0.0,0.0,0.0,0.0,0.0,0.0,0.0,0.0,0.0,0.0,0.0,0.0,0.0,0.0,0.0,0.0,0.0,0.0,0.0,0.0,0.0,0.0,0.0,0.0,0.0,0.0,0.0,0.0,0.0,0.0,0.0,0.0,0.0,0.0,0.0,0.0,0.0,0.0,0.0,0.0,0.0,0.0,0.0,0.0,0.0,0.0,0.0,0.0,0.0,0.0,0.0,0.0,0.0,0.0,0.0,0.0,0.0,0.0,0.0,0.0,0.0,0.0,0.0,0.0,0.0,0.0,0.0,0.0,0.0,0.0,0.0,0.0,0.0,0.0,2.4047,2.5795,2.9156,2.9874,3.0263,3.0671,2.9894,2.8515,2.6436,2.3406,0.0,0.0,0.0,0.0,0.0,0.0,0.0,0.0,0.0,0.0,0.0,0.0,0.0,0.0,0.0,0.0,0.0,0.0,0.0,0.0,0.0,0.0,0.0,0.0,0.0,0.0,0.0,0.0,0.0,0.0,0.0,0.0,0.0,0.0,0.0,0.0,0.0,0.0,0.0,0.0,0.0,0.0,0.0,0.0,0.0,0.0,0.0,0.0,0.0,0.0,0.0,0.0,0.0,0.0,0.0,0.0,0.0,0.0,0.0,0.0,0.0,0.0,0.0,0.0,0.0,0.0,0.0,0.0,0.0,0.0,0.0,0.0,0.0,0.0,0.0,0.0,0.0,0.0,0.0,0.0,0.0,0.0,0.0,0.0,0.0,0.0,0.0,0.0,0.0,0.0,0.0,0.0,0.0,0.0,0.0,0.0,0.0,0.0,0.0,0.0,0.0,0.0,2.698,2.8243,3.0185,3.0574,3.069,3.069,2.9894,2.869,2.7,2.3639,0.0,0.0,0.0,0.0,0.0,0.0,0.0,0.0,0.0,0.0,0.0,0.0,0.0,0.0,0.0,0.0,0.0,0.0,0.0,0.0,0.0,0.0,0.0,0.0,0.0,0.0,0.0,0.0,0.0,0.0,0.0,0.0,0.0,0.0,0.0,0.0,0.0,0.0,0.0,0.0,0.0,0.0,0.0,0.0,0.0,0.0,0.0,0.0,0.0,0.0,0.0,0.0,0.0,0.0,0.0,0.0,0.0,0.0,0.0,0.0,0.0,0.0,0.0,0.0,0.0,0.0,0.0,0.0,0.0,0.0,0.0,0.0,0.0,0.0,0.0,0.0,0.0,0.0,0.0,0.0,0.0,0.0,0.0,0.0,0.0,0.0,0.0,0.0,0.0,0.0,0.0,0.0,0.0,0.0,0.0,0.0,0.0,0.0,0.0,0.0,0.0,0.0,2.7272,2.9292,2.9467,3.0224,3.069,3.069,2.9894,2.869,2.7,2.3639,0.0,0.0,0.0,0.0,0.0,0.0,0.0,0.0,0.0,0.0,0.0,0.0,0.0,0.0,0.0,0.0,0.0,0.0,0.0,0.0,0.0,0.0,0.0,0.0,0.0,0.0,0.0,0.0,0.0,0.0,0.0,0.0,0.0,0.0,0.0,0.0,0.0,0.0,0.0,0.0,0.0,0.0,0.0,0.0,0.0,0.0,0.0,0.0,0.0,0.0,0.0,0.0,0.0,0.0,0.0,0.0,0.0,0.0,0.0,0.0,0.0,0.0,0.0,0.0,0.0,0.0,0.0,0.0,0.0,0.0,0.0,0.0,0.0,0.0,0.0,0.0,0.0,0.0,0.0,0.0,0.0,0.0,0.0,0.0,0.0,0.0,0.0,0.0,0.0,0.0,0.0,0.0,0.0,0.0,0.0,0.0,0.0,0.0,0.0,0.0,0.0,0.0,2.7155,2.9214,0.0,3.0826,3.0923,3.1467,3.071,2.9253,2.7039,0.0,0.0,0.0,0.0,0.0,0.0,0.0,0.0,0.0,0.0,0.0,0.0,0.0,0.0,0.0,0.0,0.0,0.0,0.0,0.0,0.0,0.0,0.0,0.0,0.0,0.0,0.0,0.0,0.0,0.0,0.0,0.0,0.0,0.0,0.0,0.0,0.0,0.0,0.0,0.0,0.0,0.0,0.0,0.0,0.0,0.0,0.0,0.0,0.0,0.0,0.0,0.0,0.0,0.0,0.0,0.0,0.0,0.0,0.0,0.0,0.0,0.0,0.0,0.0,0.0,0.0,0.0,0.0,0.0,0.0,0.0,0.0,0.0,0.0,0.0,0.0,0.0,0.0,0.0,0.0,0.0,0.0,0.0,0.0,0.0,0.0,0.0,0.0,0.0,0.0,0.0,0.0,0.0,0.0,0.0,0.0,0.0,0.0,0.0,0.0,0.0,0.0,2.5601,2.7971,3.0023,0.0,3.1467,3.1351,3.1953,3.0943,2.9311,2.7039,0.0,0.0,0.0,0.0,0.0,0.0,0.0,0.0,0.0,0.0,0.0,0.0,0.0,0.0,0.0,0.0,0.0,0.0,0.0,0.0,0.0,0.0,0.0,0.0,0.0,0.0,0.0,0.0,0.0,0.0,0.0,0.0,0.0,0.0,0.0,0.0,0.0,0.0,0.0,0.0,0.0,0.0,0.0,0.0,0.0,0.0,0.0,0.0,0.0,0.0,0.0,0.0,0.0,0.0,0.0,0.0,0.0,0.0,0.0,0.0,0.0,0.0,0.0,0.0,0.0,0.0,0.0,0.0,0.0,0.0,0.0,0.0,0.0,0.0,0.0,0.0,0.0,0.0,0.0,0.0,0.0,0.0,0.0,0.0,0.0,0.0,0.0,0.0,0.0,0.0,0.0,0.0,0.0,0.0,0.0,0.0,0.0,0.0,0.0,0.0,0.0,0.0,2.6572,2.9894,3.2004,3.2023,3.2023,3.2004,3.2004,3.0438,2.8709,0.0,0.0,0.0,0.0,0.0,0.0,0.0,0.0,0.0,0.0,0.0,0.0,0.0,0.0,0.0,0.0,0.0,0.0,0.0,0.0,0.0,0.0,0.0,0.0,0.0,0.0,0.0,0.0,0.0,0.0,0.0,0.0,0.0,0.0,0.0,0.0,0.0,0.0,0.0,0.0,0.0,0.0,0.0,0.0,0.0,0.0,0.0,0.0,0.0,0.0,0.0,0.0,0.0,0.0,0.0,0.0,0.0,0.0,0.0,0.0,0.0,0.0,0.0,0.0,0.0,0.0,0.0,0.0,0.0,0.0,0.0,0.0,0.0,0.0,0.0,0.0,0.0,0.0,0.0,0.0,0.0,0.0,0.0,0.0,0.0,0.0,0.0,0.0,0.0,0.0,0.0,0.0,0.0,0.0,0.0,0.0,0.0,0.0,0.0,0.0,0.0,0.0,0.0,0.0,3.0243,3.2458,3.3643,3.3254,3.2924,3.2924,3.1875,2.9738,2.6203,0.0,0.0,0.0,0.0,0.0,0.0,0.0,0.0,0.0,0.0,0.0,0.0,0.0,0.0,0.0,0.0,0.0,0.0,0.0,0.0,0.0,0.0,0.0,0.0,0.0,0.0,0.0,0.0,0.0,0.0,0.0,0.0,0.0,0.0,0.0,0.0,0.0,0.0,0.0,0.0,0.0,0.0,0.0,0.0,0.0,0.0,0.0,0.0,0.0,0.0,0.0,0.0,0.0,0.0,0.0,0.0,0.0,0.0,0.0,0.0,0.0,0.0,0.0,0.0,0.0,0.0,0.0,0.0,0.0,0.0,0.0,0.0,0.0,0.0,0.0,0.0,0.0,0.0,0.0,0.0,0.0,0.0,0.0,0.0,0.0,0.0,0.0,0.0,0.0,0.0,0.0,0.0,0.0,0.0,0.0,0.0,0.0,0.0,0.0,0.0,0.0,0.0,2.8126,3.0904,3.3041,3.4361,3.407,3.3779,3.3779,3.2691,3.0457,2.6825,0.0,0.0,0.0,0.0,0.0,0.0,0.0,0.0,0.0,0.0,0.0,0.0,0.0,0.0,0.0,0.0,0.0,0.0,0.0,0.0,0.0,0.0,0.0,0.0,0.0,0.0,0.0,0.0,0.0,0.0,0.0,0.0,0.0,0.0,0.0,0.0,0.0,0.0,0.0,0.0,0.0,0.0,0.0,0.0,0.0,0.0,0.0,0.0,0.0,0.0,0.0,0.0,0.0,0.0,0.0,0.0,0.0,0.0,0.0,0.0,0.0,0.0,0.0,0.0,0.0,0.0,0.0,0.0,0.0,0.0,0.0,0.0,0.0,0.0,0.0,0.0,0.0,0.0,0.0,0.0,0.0,0.0,0.0,0.0,0.0,0.0,0.0,0.0,0.0,0.0,0.0,0.0,0.0,0.0,0.0,0.0,0.0,0.0,0.0,0.0,0.0,0.0,2.8961,3.1739,3.3643,3.4536,3.4614,3.4595,3.4517,3.3041,3.0994,2.8392,0.0,0.0,0.0,0.0,0.0,0.0,0.0,0.0,0.0,0.0,0.0,0.0,0.0,0.0,0.0,0.0,0.0,0.0,0.0,0.0,0.0,0.0,0.0,0.0,0.0,0.0,0.0,0.0,0.0,0.0,0.0,0.0,0.0,0.0,0.0,0.0,0.0,0.0,0.0,0.0,0.0,0.0,0.0,0.0,0.0,0.0,0.0,0.0,0.0,0.0,0.0,0.0,0.0,0.0,0.0,0.0,0.0,0.0,0.0,0.0,2.1132,0.0,0.0,0.0,0.0,0.0,0.0,0.0,0.0,0.0,0.0,0.0,0.0,0.0,0.0,0.0,0.0,0.0,0.0,0.0,0.0,0.0,0.0,0.0,0.0,0.0,0.0,0.0,0.0,0.0,0.0,0.0,0.0,0.0,0.0,0.0,0.0,0.0,0.0,0.0,0.0,0.0,2.9874,3.2108,3.3876,3.5371,3.5527,3.5255,3.4556,3.3584,3.1914,2.9292,0.0,0.0,0.0,0.0,0.0,0.0,0.0,0.0,0.0,0.0,0.0,0.0,0.0,0.0,0.0,0.0,0.0,0.0,0.0,0.0,0.0,0.0,0.0,0.0,0.0,0.0,0.0,0.0,0.0,0.0,0.0,0.0,0.0,0.0,0.0,0.0,0.0,0.0,0.0,0.0,0.0,0.0,0.0,0.0,0.0,0.0,0.0,0.0,0.0,0.0,0.0,0.0,0.0,0.0,0.0,0.0,0.0,0.0,0.0,0.0,0.0,2.3193,0.0,0.0,0.0,0.0,0.0,0.0,0.0,0.0,0.0,0.0,0.0,0.0,0.0,0.0,0.0,0.0,0.0,0.0,0.0,0.0,0.0,0.0,0.0,0.0,0.0,0.0,0.0,0.0,0.0,0.0,0.0,0.0,0.0,0.0,0.0,0.0,0.0,0.0,0.0,0.0,3.0205,3.2555,3.4361,3.5663,3.5799,3.5624,3.5158,3.4361,3.2943,3.0787,2.8612,0.0,0.0,0.0,0.0,0.0,0.0,0.0,0.0,0.0,0.0,0.0,0.0,0.0,0.0,0.0,0.0,0.0,0.0,0.0,0.0,0.0,0.0,0.0,0.0,0.0,0.0,0.0,0.0,0.0,0.0,0.0,0.0,0.0,0.0,0.0,0.0,0.0,0.0,0.0,0.0,0.0,0.0,0.0,0.0,0.0,0.0,0.0,0.0,0.0,0.0,0.0,0.0,0.0,0.0,3.0127,3.137,3.1525,3.1584,3.1436,2.8608,2.7452,2.7426,0.0,0.0,0.0,0.0,0.0,0.0,0.0,0.0,0.0,0.0,0.0,0.0,0.0,0.0,0.0,0.0,0.0,0.0,0.0,0.0,0.0,0.0,0.0,0.0,0.0,3.0997,3.0645,0.0,0.0,0.0,0.0,0.0,0.0,0.0,0.0,0.0,0.0,0.0,0.0,3.071,3.3235,3.5119,3.6148,3.6129,3.6032,3.6032,3.508,3.3915,3.2516,3.0671,2.8359,0.0,0.0,0.0,0.0,0.0,0.0,0.0,0.0,0.0,0.0,0.0,0.0,0.0,0.0,0.0,0.0,0.0,0.0,0.0,0.0,0.0,0.0,0.0,0.0,0.0,0.0,0.0,0.0,0.0,0.0,0.0,0.0,1.7758,1.9618,0.0,0.0,0.0,0.0,0.0,0.0,0.0,0.0,0.0,0.0,0.0,0.0,0.0,0.0,2.9797,3.1448,3.2128,3.1856,3.3837,3.4517,3.4012,3.4789,3.5138,3.51,3.4641,0.0,3.0078,2.8379,0.0,0.0,0.0,0.0,0.0,0.0,0.0,0.0,0.0,0.0,0.0,0.0,0.0,0.0,0.0,0.0,0.0,0.0,0.0,0.0,0.0,0.0,3.3554,3.3027,3.4139,3.4742,0.0,2.9884,2.7268,2.5531,0.0,0.0,0.0,0.0,0.0,0.0,0.0,0.0,3.2524,3.4517,3.6246,3.7877,3.7372,3.6925,3.6925,3.543,3.44,3.4187,3.1875,3.0321,2.9874,2.6281,0.0,0.0,0.0,0.0,0.0,0.0,0.0,0.0,0.0,0.0,0.0,0.0,0.0,0.0,0.0,0.0,0.0,0.0,0.0,0.0,0.0,0.0,0.0,0.0,0.0,0.0,0.0,0.0,0.0,1.7482,1.9808,2.1032,2.127,2.1134,0.0,0.0,0.0,0.0,0.0,0.0,0.0,0.0,0.0,3.0198,3.0768,3.1603,3.2827,3.4089,3.5002,3.5605,3.6731,3.7547,3.811,3.8499,3.8674,3.8674,3.8674,3.7816,3.6188,3.3038,3.1475,3.0934,0.0,0.0,0.0,0.0,0.0,3.0001,3.0997,0.0,0.0,0.0,0.0,0.0,0.0,0.0,0.0,0.0,0.0,0.0,0.0,0.0,0.0,3.5564,3.656,3.7243,3.6482,3.4764,3.2402,0.0,2.7952,2.6841,2.5033,0.0,0.0,0.0,0.0,0.0,3.367,3.5896,3.7547,3.8324,3.8052,3.7625,3.7139,3.6401,3.5546,3.4556,3.3448,3.2186,3.0749,2.8903,2.7,0.0,0.0,0.0,0.0,0.0,0.0,0.0,0.0,0.0,0.0,0.0,0.0,0.0,0.0,0.0,0.0,0.0,0.0,0.0,0.0,0.0,0.0,0.0,0.0,0.0,0.0,0.0,0.0,2.0026,2.2022,2.2629,2.3464,2.3659,0.0,0.0,0.0,0.0,0.0,0.0,2.9324,2.9641,3.0826,3.3235,3.4148,3.5002,3.5818,3.6906,3.8091,3.9373,3.9606,4.0364,4.1568,4.1568,4.1568,4.1568,4.1568,4.1568,4.1276,3.7392,3.5333,3.4525,3.3647,3.282,3.2187,3.2827,3.3378,3.3944,3.5252,3.5701,3.5525,3.4413,0.0,3.2734,3.086,0.0,0.0,0.0,0.0,3.3495,3.5252,0.0,3.7516,3.8394,3.9273,3.9839,3.9624,3.8882,3.7126,0.0,3.2109,3.1196,2.9292,0.0,0.0,0.0,0.0,3.358,3.5282,3.7392,3.881,3.9023,3.8848,3.846,3.7819,3.7353,3.6556,3.5255,3.475,3.3643,3.1739,3.104,2.9505,0.0,0.0,0.0,0.0,0.0,0.0,0.0,0.0,0.0,0.0,0.0,0.0,0.0,0.0,0.0,0.0,0.0,0.0,0.0,0.0,0.0,0.0,0.0,0.0,0.0,0.0,0.0,0.0,0.0,0.0,2.5407,2.6164,0.0,0.0,0.0,0.0,2.7828,3.0178,3.2031,3.2982,3.3759,3.5002,3.6789,3.7683,3.8557,3.9431,4.1063,4.1917,4.2015,4.285,4.3297,4.3374,4.3374,4.3374,4.3374,4.3374,4.3374,4.3161,4.0461,3.8868,3.8052,3.7178,3.6359,3.5639,3.5681,3.6796,3.83,3.8378,3.8397,3.8512,3.9195,3.7789,3.5776,3.5639,3.4491,0.0,0.0,3.5135,3.6208,3.7946,3.9624,4.1069,4.1947,4.2806,4.3216,4.2396,4.1518,4.0132,0.0,3.5642,3.4452,3.4337,0.0,3.3335,3.4098,3.5008,3.6248,3.7983,3.9043,3.9936,4.0694,4.0092,3.9625,3.9567,3.8052,3.7061,3.6964,3.541,3.4439,3.4303,3.1992,3.0613,3.0438,2.7213,0.0,0.0,0.0,0.0,0.0,0.0,0.0,0.0,0.0,0.0,0.0,0.0,0.0,0.0,0.0,0.0,0.0,0.0,0.0,0.0,0.0,0.0,0.0,0.0,0.0,0.0,0.0,0.0,2.7913,2.8806,0.0,0.0,3.0256,3.1059,3.2147,3.3079,3.4478,3.6479,3.6848,3.8052,4.0305,4.0674,4.1257,4.2151,4.2733,4.3316,4.3879,4.419,4.4617,4.5103,4.5103,4.5103,4.5103,4.5103,4.5103,4.5045,4.4093,4.2578,4.081,4.0499,3.9887,3.9243,3.9808,4.045,4.1112,4.1639,4.1847,4.183,4.1557,4.0483,3.9273,3.9273,3.8843,3.8531,3.9409,3.9878,4.0385,4.1576,4.2337,4.2845,4.3157,4.3469,4.3606,4.3294,4.2982,4.2494,4.1596,3.9136,3.6852,3.574,3.5718,3.5741,3.5486,3.6596,3.7903,3.9071,3.9956,4.0577,4.0869,4.0635,4.0266,3.9742,3.8615,3.7702,3.7139,3.5993,3.51,3.4517,3.3138,3.1856,3.071,2.8942,2.6669,0.0,0.0,0.0,0.0,0.0,0.0,0.0,0.0,0.0,0.0,0.0,0.0,0.0,0.0,0.0,0.0,0.0,0.0,0.0,0.0,0.0,0.0,0.0,0.0,0.0,0.0,2.9039,3.0146,3.1545,3.2536,3.2827,3.339,3.4303,3.5702,3.6343,3.7547,3.9567,3.9956,4.0888,4.2597,4.2908,4.3355,4.3938,4.421,4.4637,4.52,4.52,4.5472,4.5997,4.5997,4.5997,4.5997,4.5997,4.5997,4.5997,4.5997,4.5006,4.3452,4.318,4.2574,4.1903,4.2487,4.2932,4.332,4.3885,4.4091,4.3997,4.3118,4.2454,4.1986,4.1986,4.1986,4.2103,4.2689,4.2845,4.304,4.3918,4.4133,4.4211,4.4504,4.4582,4.4582,4.4582,4.4348,4.4133,4.4133,4.2064,3.9956,3.8804,3.9037,3.9199,3.8625,3.9442,4.0338,4.091,4.145,4.1781,4.1781,4.151,4.1121,4.0597,3.9237,3.8149,3.7586,3.644,3.541,3.4536,3.372,3.2613,3.1176,2.9719,2.7718,2.5174,0.0,0.0,0.0,0.0,0.0,0.0,0.0,0.0,0.0,0.0,0.0,0.0,0.0,0.0,0.0,0.0,0.0,0.0,0.0,0.0,0.0,0.0,0.0,2.5757,2.9408,3.2108,3.214,3.4381,3.5605,3.4769,3.6246,3.7625,3.8479,4.0053,4.1354,4.2228,4.3083,4.3549,4.3588,4.4404,4.4831,4.4831,4.5608,4.5997,4.5997,4.5997,4.5997,4.5997,4.5997,4.5997,4.5997,4.5997,4.5997,4.5997,4.5997,4.5997,4.5919,4.5142,4.4325,4.3578,4.3578,4.4161,4.4941,4.5024,4.5051,4.4894,4.4055,4.3782,4.3782,4.3782,4.3782,4.3782,4.3782,4.3782,4.3977,4.4816,4.5051,4.5246,4.6105,4.63,4.63,4.63,4.5636,4.5051,4.5051,4.4367,4.3762,4.3704,4.3704,4.3691,4.3691,4.3583,0.0,4.3487,4.3497,4.351,4.351,4.2733,4.2228,4.2189,3.9897,3.846,3.8402,3.6789,3.5449,3.4575,3.3759,3.2924,3.2069,2.9518,2.7815,2.7019,0.0,0.0,0.0,0.0,0.0,0.0,0.0,0.0,0.0,0.0,0.0,0.0,0.0,0.0,0.0,0.0,0.0,0.0,0.0,0.0,0.0,0.0,3.003,2.9389,3.1895,3.4284,3.5546,3.7392,3.8712,3.9101,4.015,4.116,4.2034,4.252,4.318,4.4035,4.4307,4.4715,4.5297,4.555,4.5666,4.5666,4.588,4.5997,4.5997,4.5997,4.5997,4.5997,4.5997,4.5997,4.5997,4.5997,4.5997,4.5997,4.5997,4.5997,4.5977,4.5763,4.5512,4.5298,4.5298,4.5547,4.585,4.5926,4.5948,4.5909,4.5656,4.5597,4.5597,4.5597,4.5597,4.5597,4.5597,4.5597,4.5636,4.587,4.5948,4.6007,4.6241,4.63,4.63,4.63,4.6105,4.5948,4.5948,4.5753,4.5187,4.3918,4.3693,4.3702,4.3691,0.0,0.0,4.3513,4.3497,4.351,4.351,4.3297,4.2889,4.2248,4.0985,3.9684,0.0,3.7353,3.6343,3.5488,3.4614,3.3779,3.2963,3.1623,3.0515,0.0,0.0,0.0,0.0,0.0,0.0,0.0,0.0,0.0,0.0,0.0,0.0,0.0,0.0,0.0,0.0,0.0,0.0,0.0,0.0,0.0,0.0,3.104,3.339,3.4342,3.5741,3.7178,3.8538,4.0208,4.1432,4.1937,4.2442,4.3102,4.3976,4.4035,4.4404,4.5258,4.5297,4.5511,4.5977,4.5997,4.5997,4.5997,4.5997,4.5997,4.5997,4.5997,4.5997,4.5997,4.5997,4.5997,0.0,4.5997,4.5997,4.5997,4.5997,4.5997,0.0,0.0,0.0,0.0,0.0,4.6131,4.6212,4.6282,4.63,4.63,4.63,4.63,4.63,4.63,4.63,4.63,4.63,4.63,4.63,4.63,4.63,4.63,4.63,4.63,4.63,4.63,4.63,4.63,4.63,0.0,0.0,4.4953,4.4797,4.4784,4.4798,4.4726,4.4689,0.0,4.4603,4.4588,4.454,4.4248,4.384,4.3335,4.182,0.0,0.0,0.0,3.7081,3.5857,3.4633,0.0,0.0,0.0,0.0,0.0,0.0,0.0,0.0,3.0263,2.9998,0.0,0.0,0.0,0.0,0.0,0.0,0.0,0.0,0.0,0.0,0.0,0.0,0.0,0.0,0.0,0.0,3.3351,3.6207,3.9392,4.0092,4.0499,4.1121,4.2656,4.3646,4.3646,4.3724,4.4093,4.487,4.4948,4.5239,4.5958,0.0,0.0,0.0,0.0,4.5997,4.5997,4.5997,4.5997,4.5997,4.5997,4.5997,4.5997,4.6094,4.6152,4.6152,4.6249,4.623,4.6152,4.6152,4.6094,4.5997,4.5997,4.5997,4.6027,4.6147,4.6202,0.0,0.0,0.0,0.0,4.63,4.63,4.63,4.63,4.63,4.63,4.63,4.63,4.63,4.63,4.63,4.63,4.63,4.63,4.63,4.63,4.63,4.63,4.63,4.63,4.63,4.63,4.63,4.63,4.63,4.6245,0.0,4.6206,4.6142,4.6068,4.6007,0.0,0.0,4.4812,4.2675,4.1257,4.1063,3.9567,3.7994,3.644,3.4944,3.4497,3.5216,3.5216,3.5974,3.7528,3.7528,3.7974,3.8712,3.3934,3.2924,0.0,0.0,0.0,0.0,0.0,0.0,0.0,0.0,0.0,0.0,0.0,0.0,0.0,0.0,0.0,3.3584,3.6537,3.9159,4.048,4.2481,4.3607,4.3063,4.3918,4.4559,4.4559,4.5142,4.5589,4.5763,4.5763,4.5841,4.5977,4.5997,0.0,4.5997,4.5997,4.5997,4.5997,4.5997,4.5997,4.5997,0.0,0.0,4.6016,4.6735,4.7045,4.7084,4.7784,4.7706,4.7045,4.7045,4.6638,4.5997,4.5997,4.5997,4.6027,4.6147,4.6202,4.6212,4.6282,4.63,4.63,4.63,4.63,4.63,4.63,4.63,0.0,4.63,4.63,4.63,4.63,4.63,4.63,4.63,4.63,4.63,4.63,4.63,4.63,4.63,4.63,4.63,4.63,4.63,4.63,4.63,4.6245,4.6209,4.6206,4.6142,4.6068,4.6007,4.5861,4.5511,4.4851,4.4345,4.3452,4.2034,4.0985,4.0266,3.9936,3.9606,3.9509,3.9664,3.9664,3.9839,4.0169,4.0169,4.0616,4.1412,3.9043,3.8227,0.0,0.0,0.0,0.0,0.0,0.0,0.0,0.0,0.0,0.0,0.0,3.0191,0.0,0.0,3.5119,3.6828,3.8907,4.0907,4.2617,4.3976,4.4637,4.421,4.4889,4.5394,4.5394,4.5763,4.5997,4.5997,4.5997,4.5997,4.5997,4.5997,4.5997,4.5997,4.5997,4.621,4.6657,4.6657,4.6871,4.7298,4.7298,4.7298,4.7317,4.7745,4.7958,4.7978,4.8405,4.8347,4.7958,4.7958,4.7686,4.7298,4.7298,4.6773,4.6027,4.6147,4.6202,4.6212,4.6282,4.63,4.63,4.63,4.63,4.63,4.63,4.63,4.63,4.63,4.63,4.63,4.63,4.63,4.63,4.63,4.63,4.63,4.63,4.63,4.63,4.63,4.63,4.63,4.63,4.63,4.63,4.63,4.6245,4.6209,4.6206,4.6142,4.6068,4.6007,4.5997,4.5841,4.5433,4.5025,4.4248,4.2928,4.2034,4.1548,4.1548,4.1121,4.1102,4.1529,4.1548,4.1762,4.2209,4.2209,4.2656,4.3471,4.2636,4.2015,0.0,0.0,0.0,0.0,0.0,0.0,0.0,0.0,2.8264,2.9133,3.1263,3.318,3.3907,3.5538,3.7489,3.9587,4.0907,4.2384,4.4501,4.4928,4.5025,4.5025,4.5608,4.5997,4.5997,4.5997,4.5997,4.5997,4.5997,4.5997,4.5997,4.5997,4.6074,4.6249,4.6249,4.6676,4.755,4.755,4.792,4.8599,4.8599,4.8599,4.8599,4.8774,4.8852,4.8852,4.8852,4.8852,4.8832,4.8677,4.8599,4.8599,4.8599,4.7747,4.6542,4.664,4.6697,4.6708,4.6768,4.6788,4.6788,4.6788,4.6788,4.6788,4.6788,4.6671,4.6554,4.6554,4.6436,4.63,4.63,4.63,4.63,4.63,4.63,4.63,4.63,4.63,4.63,4.63,4.63,4.63,4.63,4.63,4.63,4.63,4.6241,4.621,4.6209,4.6153,4.6084,4.6017,4.5997,4.5997,4.5997,4.5414,4.4734,4.4035,4.3335,4.2928,4.2928,4.2267,4.2209,4.2908,4.2928,4.3277,4.3996,4.3996,4.4345,4.5045,4.52,4.4812,2.4238,2.3771,0.0,2.5317,2.6523,2.7952,0.0,0.0,3.2638,3.3519,3.5156,3.6484,3.6638,3.8684,4.0422,4.0713,4.2792,4.4462,4.4753,4.5414,4.5861,4.5861,4.5938,4.5997,4.5997,4.5997,4.5997,4.5997,4.5997,4.5997,4.5997,4.5997,4.6346,4.7123,4.7143,4.757,4.8444,4.8444,4.8502,4.8599,4.8599,4.8599,4.8638,4.9396,4.9745,4.9745,4.9745,4.9745,4.9687,4.891,4.8599,4.8599,4.8599,4.8526,4.8405,4.8411,4.8465,4.8515,4.8518,4.8525,4.8525,4.8525,4.8525,4.8525,4.8525,4.8017,4.7451,4.7451,4.6905,4.63,4.63,4.63,4.63,4.63,4.63,4.63,4.63,4.63,4.63,4.63,4.63,4.63,4.63,4.63,4.63,4.63,4.6284,4.6264,4.6212,4.6199,4.6142,4.5998,4.5997,4.5997,4.5997,4.5919,4.5822,4.5725,4.5627,4.5569,4.5569,4.5472,4.5472,4.5569,4.5569,4.5608,4.5725,4.5725,4.5763,4.588,4.6657,4.656,2.6997,0.0,0.0,0.0,2.9464,3.1216,3.2309,3.3625,3.4865,3.5728,3.7308,3.853,3.8597,4.0276,4.182,0.0,4.3763,4.4967,4.5433,4.5783,4.5997,4.5997,4.5997,4.5997,4.5997,4.5997,4.5997,4.5997,4.6463,4.6754,4.6754,4.724,4.7686,4.8055,4.8055,4.8483,4.9337,4.9357,4.9609,5.0114,5.0114,5.0114,5.0134,5.0484,5.0658,5.0658,5.0658,5.0658,5.0619,5.027,5.0114,5.0114,5.0114,5.0149,5.0079,4.9064,4.874,4.8808,4.8792,4.8798,4.8798,4.8798,4.8798,4.8798,4.8798,4.8564,4.8291,4.8291,4.8037,4.7744,4.7744,4.7744,4.7744,4.7744,4.7744,4.7744,4.7744,4.7744,4.7744,4.7744,4.7744,4.7608,4.7139,4.7061,4.6885,4.6378,4.6276,4.623,4.6209,4.6162,4.6105,4.6017,4.5997,4.5997,4.5997,4.5997,4.5997,4.5997,4.5997,4.5997,4.5997,4.5997,4.5997,4.5997,4.5997,4.6249,4.6754,4.6754,4.7026,4.7512,4.7881,4.7861,2.8343,0.0,0.0,2.9971,3.2006,3.3886,3.4098,3.5502,3.6927,3.7559,3.8878,3.9946,4.0015,4.1403,0.0,4.3394,4.4423,4.5336,4.5919,4.5997,4.5997,4.5997,4.5997,4.5997,4.5997,4.5997,4.5997,4.5997,4.6812,4.7298,4.7298,4.8133,4.8716,4.8949,4.8949,4.9376,5.025,5.025,5.0581,5.1202,5.1202,5.1202,5.1202,5.1202,5.1202,5.1202,5.1202,5.1202,5.1202,5.1202,5.1202,5.1202,5.1202,5.1237,5.1141,4.9872,4.9467,4.9527,4.9531,4.952,4.952,4.952,4.952,4.952,4.952,4.9345,4.9169,4.9169,4.8993,4.8798,4.8798,4.8798,4.8798,4.8798,4.8798,4.8798,4.8798,4.8798,4.8798,4.8798,4.8798,4.8603,4.8037,4.7939,4.7725,4.7081,4.6944,4.6738,4.6258,4.6343,4.6516,4.6687,4.6715,4.6715,4.6715,4.6715,4.6715,4.6715,4.6715,4.6715,4.6715,4.6715,4.6715,4.6715,4.6715,4.7026,4.7667,4.7667,4.7978,4.8599,4.8852,4.8949,0.0,0.0,2.9532,3.2146,3.4206,3.582,3.6613,3.8121,3.9391,3.9425,4.0142,4.0784,4.0858,4.2227,4.3382,4.3481,4.4889,4.5958,4.5997,4.5997,4.5997,4.5997,4.5997,4.5997,0.0,4.5997,4.5997,4.5997,4.6812,4.7298,4.7298,4.8133,4.8988,4.9823,4.9862,5.027,5.1144,5.1163,5.1163,5.1202,5.1202,5.1202,5.1202,5.1202,5.1202,5.1202,5.1202,5.1202,5.1202,5.1202,5.1202,5.1202,5.1202,5.1237,5.1297,5.1238,5.1268,5.1316,5.1316,5.1316,5.1316,5.1316,5.1316,5.1316,5.1316,5.0731,5.0067,5.0067,4.9442,4.8798,4.8798,4.8798,4.8798,4.8798,4.8798,4.8798,4.8798,4.8798,4.8798,4.8798,4.8798,4.8798,4.8779,4.8759,4.8759,4.872,4.872,4.8108,4.6426,4.6869,4.7657,4.8436,4.8522,4.8522,4.8522,4.8522,4.8522,4.8522,4.8522,4.8522,4.8522,4.8522,4.8522,4.8522,4.8522,4.8522,4.8561,4.8561,4.8561,4.8619,4.9473,4.9862,0.0,0.0,3.282,3.4839,3.68,3.8276,3.8547,3.9533,4.0358,4.0362,4.0173,4.0195,4.08,4.1364,4.2121,4.3316,4.4462,4.5394,4.5919,4.5997,4.5997,4.5997,4.5997,0.0,0.0,0.0,0.0,4.6812,4.7667,4.8405,4.8988,4.9843,5.0464,5.0755,5.0755,5.0891,5.1202,5.1202,5.1202,5.1202,5.1202,5.1202,5.1202,5.1202,5.1202,5.1202,5.1202,5.1202,5.1202,5.1202,5.1202,5.1214,5.1211,5.1245,5.132,5.1359,5.1385,5.1394,5.1394,5.1394,5.1394,5.1394,5.1394,5.1394,5.1394,5.1199,5.0965,5.0965,5.075,5.0535,5.0535,5.0535,5.0535,5.0535,5.0535,5.0535,5.0535,5.0535,5.0535,5.0535,5.0535,5.034,4.9755,4.9657,4.9462,4.8896,4.8797,4.8591,4.8008,4.8127,4.837,4.8639,4.8633,4.8599,4.8599,4.8599,4.8599,4.8599,4.8599,4.8599,4.8599,4.8599,4.8599,4.8599,4.8599,4.8871,4.9454,4.9454,4.9765,5.0328,5.0639,5.0755,0.0,3.3731,3.499,3.7107,3.8582,3.9584,3.9894,4.0152,4.0339,4.0331,3.9677,3.9284,3.9858,4.0238,4.1014,4.2753,4.3763,4.4734,4.5841,4.5997,4.5997,4.5997,4.6268,0.0,0.0,0.0,0.0,4.7259,4.8114,4.8968,4.9843,5.0736,5.1202,5.1202,5.1202,5.1202,5.1202,5.1494,5.1785,5.2096,5.2096,5.2096,5.2096,5.2096,5.2096,5.2076,5.1766,5.163,5.163,5.163,5.163,5.1661,5.2007,5.2168,5.2191,5.2273,5.2285,5.2214,5.1613,5.1394,5.1394,5.1394,5.1394,5.1394,5.1394,5.1394,5.1394,5.1394,5.1394,5.1394,5.1394,5.1394,5.1394,5.1394,5.1394,5.1394,5.1394,5.1394,5.1394,5.1394,5.1394,5.1219,5.0653,5.0555,5.0379,4.9813,4.9732,4.9626,4.9297,4.9224,4.9293,4.9574,4.9556,4.9536,4.9532,4.9532,4.9532,4.9532,4.9532,4.9532,4.9532,4.9532,4.9532,4.9532,4.9532,4.9804,5.0367,5.0367,5.0658,5.1202,5.1202,5.1358,3.3681,3.4817,3.6048,3.8852,3.9553,3.9777,4.0597,4.0133,3.9487,3.9449,3.8706,3.8089,0.0,0.0,4.0063,4.184,4.2908,4.4093,4.5763,4.6035,4.6074,0.0,0.0,0.0,0.0,0.0,0.0,4.7434,0.0,4.9007,4.992,5.0755,5.1222,5.126,5.126,5.128,5.1338,5.2096,5.2873,5.3689,5.3689,5.3689,5.3689,5.3689,5.3689,5.365,5.2834,5.2465,5.2465,5.2465,5.2465,5.2554,5.3448,5.3794,5.3814,5.3874,5.3893,5.3672,5.2075,5.1531,5.1531,5.1531,5.1531,5.1531,5.1531,5.1531,5.1531,5.1531,5.1531,5.1511,5.1472,5.1472,5.1453,5.1414,5.1394,5.1394,5.1394,5.1394,5.1394,5.1394,5.1394,5.1394,5.1394,5.1394,5.1394,5.1394,5.1394,5.1096,5.0273,5.0176,5.0422,5.1135,5.1203,5.1209,5.1206,5.1202,5.1202,5.1202,5.1202,5.1202,5.1202,5.1202,5.1202,5.1202,5.1202,5.1202,5.1202,5.1202,5.1222,5.126,5.126,5.1688,3.5875,3.7239,3.8316,3.985,4.0359,4.052,4.0752,4.0133,3.9321,3.8663,3.7362,3.6338,0.0,0.0,0.0,4.0849,4.252,0.0,4.5763,4.656,0.0,0.0,0.0,4.8269,4.8269,4.8269,0.0,0.0,4.8832,4.926,5.0794,5.1086,5.1474,5.2076,5.2096,5.2407,5.3048,5.3261,5.3475,5.3689,5.3689,5.3689,5.3689,5.3689,5.3689,5.3689,5.3475,5.3358,5.3358,5.3358,5.3358,5.339,5.3692,5.3805,5.3794,5.383,5.3854,5.3848,5.3417,5.329,5.3346,5.3346,5.3346,5.3346,5.3346,5.3346,5.3346,5.3346,5.3346,5.319,5.2546,5.237,5.2195,5.155,5.1394,5.1394,5.1394,5.1394,5.1394,5.1394,5.1394,5.1394,5.1394,5.1394,5.1394,5.1394,5.1394,5.132,5.1096,5.1071,5.1132,5.132,5.1263,5.1195,5.1209,5.1189,5.1202,5.1202,5.1202,5.1202,5.1202,5.1202,5.1202,5.1202,5.1202,5.1202,5.1202,5.1202,5.1513,5.2096,5.2096,5.2542,3.8098,3.9427,4.0389,4.147,4.1531,4.1119,4.0404,3.9262,3.8005,3.6787,3.5494,0.0,0.0,0.0,0.0,0.0,0.0,0.0,4.5705,4.6754,4.7298,0.0,4.8405,0.0,4.9163,4.9163,4.9532,0.0,4.9648,4.992,5.1649,5.1727,5.2115,5.2931,5.297,5.3397,5.4252,5.4271,5.4465,5.4835,5.4835,5.4835,5.4835,5.4835,5.4835,5.4815,0.0,5.4271,5.4271,5.4271,5.4271,5.4303,5.4723,5.4898,5.4898,5.4897,5.4943,5.4991,5.4991,5.5057,5.5005,5.4244,5.401,5.401,5.401,5.401,5.401,5.401,5.401,5.3893,5.3405,5.3268,5.3151,5.2663,5.2546,5.2546,5.2546,5.2546,5.2546,5.2546,5.2546,5.2429,5.2038,5.196,5.1843,5.1453,5.1394,5.1394,5.1394,5.1391,5.1403,5.1406,5.1333,5.1269,5.1211,5.1191,5.12,5.1202,5.1202,5.1202,5.1202,5.1202,5.1377,5.1727,5.1727,5.1901,5.229,5.229,5.2523,5.297,5.297,5.3436,4.0098,4.1178,4.1921,4.2878,4.257,4.1525,3.9727,3.7986,3.6226,3.4438,0.0,0.0,3.2723,0.0,3.6479,3.9101,0.0,4.3083,4.5627,4.6851,4.7473,4.7473,4.9007,5.0076,5.0076,5.0076,5.0386,5.1144,5.0503,5.0755,5.2309,5.2407,5.2853,5.3844,5.398,5.4407,5.5165,5.5165,5.5553,5.6291,5.6291,5.6291,5.6291,5.6291,5.6291,5.6253,0.0,0.0,5.5165,5.5165,5.5165,5.5255,5.5998,5.6289,5.6304,5.63,5.6335,5.6391,5.6391,5.6484,5.6352,5.4849,5.4342,5.4342,5.4342,5.4342,5.4342,5.4342,5.4342,5.4322,5.4205,5.4166,5.4147,5.4029,5.401,5.401,5.401,5.401,5.401,5.401,5.401,5.3756,5.2995,5.2878,5.2624,5.1863,5.1746,5.1746,5.1746,5.1531,5.1447,5.1561,5.1562,5.1555,5.1564,5.1561,5.1531,5.1544,5.1532,5.1532,5.1532,5.1532,5.1863,5.2562,5.2562,5.2931,5.3689,5.3689,5.3747,5.3863,5.3863,5.433,4.0976,4.1601,4.1786,4.2143,4.2106,4.1371,3.8972,3.7127,0.0,0.0,0.0,3.0905,3.0188,3.2617,0.0,3.8188,0.0,0.0,0.0,0.0,4.8366,0.0,0.0,0.0,0.0,0.0,0.0,0.0,0.0,0.0,5.2348,5.2407,5.3125,5.4718,5.5476,5.5922,5.6078,5.6078,5.6155,5.6291,5.6291,5.6291,5.6291,5.6291,5.6291,5.6291,0.0,0.0,5.6078,5.6078,5.6078,5.6078,5.6239,5.6297,5.6291,5.6297,5.6338,5.6391,5.6391,5.6484,5.6547,5.6255,5.6157,5.6157,5.6157,5.6157,5.6157,5.6157,5.6157,5.5981,5.5259,5.5064,5.4888,5.4166,5.401,5.401,5.401,5.401,5.401,5.401,5.401,5.3951,5.3795,5.3776,5.3717,5.3561,5.3541,5.3541,5.3541,5.2292,5.1671,5.2401,5.2419,5.2673,5.3377,5.3384,5.3331,5.3273,5.3261,5.3261,5.3261,5.3261,5.3319,5.3475,5.3475,5.3553,5.3689,5.3689,5.4058,5.4776,5.4776,5.5242,4.2024,4.2859,4.3241,4.333,4.2667,4.1216,3.8218,0.0,0.0,0.0,0.0,2.9904,2.947,0.0,0.0,0.0,0.0,0.0,0.0,0.0,0.0,0.0,0.0,0.0,0.0,0.0,0.0,0.0,0.0,0.0,5.3009,5.3941,5.4815,5.565,5.6078,5.6291,5.6291,5.6291,5.6291,5.6291,5.6291,5.6291,5.6291,5.6291,5.6291,5.6291,5.6291,0.0,5.6291,5.6291,5.629,5.6299,5.6299,5.633,5.6347,5.632,5.6354,5.6454,5.6419,5.6484,5.6606,5.6606,5.6606,5.6606,5.6606,5.6606,5.6606,5.6606,5.6606,5.6508,5.6098,5.5981,5.5864,5.5454,5.5357,5.5357,5.5357,5.5357,5.5357,5.5357,5.5357,5.5201,5.4752,5.4674,5.4517,5.4068,5.401,5.401,5.401,5.3268,5.2917,5.3327,5.3344,5.3476,5.3877,5.3869,5.381,5.3701,5.3689,5.3689,5.3689,5.3689,5.3902,5.4368,5.4388,5.4601,5.5048,5.5048,5.5262,5.5689,5.5689,5.5903,4.2756,4.3808,4.433,4.433,4.315,4.1061,3.7464,3.4661,0.0,0.0,0.0,0.0,2.9128,0.0,0.0,0.0,0.0,0.0,0.0,0.0,0.0,0.0,0.0,0.0,0.0,0.0,0.0,0.0,0.0,0.0,5.3611,5.534,5.6291,5.6291,5.6297,5.6302,5.6302,5.6306,5.6317,5.6317,5.6317,5.6317,5.6317,5.6317,5.6306,5.6302,5.6302,0.0,0.0,5.6291,5.6294,5.63,5.6299,5.6328,5.6372,5.6335,5.6411,5.6484,5.6432,5.6504,5.6606,5.6606,5.6606,5.6606,5.6606,5.6606,5.6606,5.6606,5.6606,5.6606,5.6606,5.6606,5.6606,5.6606,5.6606,5.6606,5.6606,5.6606,5.6606,5.6606,5.6606,5.6372,5.5708,5.5571,5.5357,5.4654,5.4556,5.4556,5.4556,5.4556,5.4556,5.4556,5.4381,5.4328,5.4457,5.4443,5.4378,5.4252,5.4257,5.4252,5.4252,5.4252,5.4582,5.5262,5.5281,5.5612,5.6291,5.6291,5.6291,5.6291,5.6486,5.6583,4.2628,4.3363,4.3421,4.3421,4.2705,4.0906,3.6767,0.0,0.0,0.0,2.8228,2.8217,2.8217,0.0,0.0,0.0,0.0,0.0,0.0,0.0,0.0,0.0,0.0,0.0,0.0,0.0,0.0,0.0,0.0,0.0,0.0,5.534,5.6291,5.6291,5.631,5.6299,5.6299,5.6368,5.6397,5.6397,5.6397,5.6397,5.6397,5.6397,5.6368,5.6299,0.0,0.0,0.0,5.6291,5.6304,5.6309,5.6291,5.6297,5.6313,5.6366,5.6432,5.6504,5.6484,5.6538,5.6606,5.6606,5.6606,5.6606,5.6606,5.6606,5.6606,5.6606,5.6606,5.6606,5.6606,5.6606,5.6606,5.6606,5.6606,5.6606,5.6606,5.6606,5.6606,5.6606,5.6606,5.6567,5.6489,5.6489,5.645,5.6372,5.6352,5.6352,5.6352,5.6352,5.6352,5.6352,5.565,5.5472,5.6191,5.6214,5.6132,5.6074,5.6072,5.6058,5.6058,5.6058,5.6097,5.6175,5.6175,5.6214,5.6291,5.6291,5.6291,5.6311,5.7107,5.7476,4.1235,4.2531,4.3169,4.2647,4.1506,3.9661,3.6422,0.0,0.0,2.8531,2.8106,2.81,2.81,2.9816,0.0,0.0,0.0,0.0,0.0,0.0,0.0,0.0,0.0,0.0,0.0,0.0,0.0,0.0,0.0,0.0,0.0,5.4636,5.559,5.559,5.6086,5.6361,5.6361,5.6382,5.6391,5.6391,5.6391,5.6391,5.6391,5.6391,5.6402,5.6361,0.0,0.0,0.0,5.631,5.6355,5.6416,5.638,5.6419,5.6483,5.646,5.6504,5.6551,5.6503,5.6536,5.6606,5.6606,5.6606,5.6606,5.6606,5.6606,5.6606,5.6606,5.6606,5.6606,5.6606,5.6606,5.6606,5.6606,5.6606,5.6606,5.6606,5.6606,5.6606,5.6606,5.6606,5.6606,5.6606,5.6606,5.6606,5.6606,5.6606,5.6606,5.6606,5.6606,5.6606,5.6606,5.6294,5.6192,5.6484,5.6432,5.6366,5.6297,5.6792,5.7068,5.7068,5.7068,5.7068,5.7068,5.6563,5.6563,5.7068,5.7068,5.7321,5.7806,5.8156,5.8311,3.9804,4.1467,4.2473,4.2086,4.0745,3.8822,0.0,0.0,3.0211,2.8771,2.8288,2.8178,2.843,2.9694,3.1273,0.0,0.0,0.0,0.0,0.0,0.0,0.0,0.0,0.0,0.0,0.0,0.0,0.0,0.0,0.0,0.0,5.3559,5.4476,5.471,5.5333,5.5664,5.5664,5.5673,5.5814,5.6068,5.6068,5.6204,5.6458,5.6458,5.6456,5.6429,0.0,0.0,0.0,5.6348,5.6382,5.6461,5.6432,5.6484,5.6566,5.6538,5.6568,5.6591,5.6556,5.6568,5.6606,5.6606,5.6606,5.6606,5.6606,5.6606,5.6606,5.6606,5.6606,5.6606,5.6606,5.6606,5.6606,5.6606,5.6606,5.6606,5.6606,5.6606,5.6606,5.6606,5.6606,5.6606,5.6606,5.6606,5.6606,5.6606,5.6606,5.6606,5.6606,5.6606,5.6684,5.6938,5.6957,5.695,5.6891,5.6832,5.6899,5.7095,5.7663,5.7877,5.7625,5.7826,5.7845,5.7593,5.7224,5.734,5.7942,5.7942,5.8253,5.8817,5.9069,5.9322,3.8597,4.0152,4.1003,4.1796,4.0738,3.8825,0.0,3.3111,3.0447,2.9567,2.8689,2.8353,2.9233,3.01,3.1265,0.0,0.0,0.0,0.0,0.0,0.0,0.0,0.0,0.0,0.0,0.0,0.0,0.0,0.0,0.0,0.0,5.2144,5.2984,5.3787,5.388,5.3926,5.3926,5.3991,5.4459,5.5302,5.5302,5.5767,5.6606,5.6606,5.6568,0.0,0.0,0.0,0.0,5.6411,5.6411,5.6415,5.6463,5.6504,5.6504,5.6563,5.6606,5.6606,5.6606,5.6606,5.6606,5.6606,5.6606,5.6606,5.6606,5.6606,5.6606,5.6606,5.6606,5.6606,5.6606,5.6606,5.6606,5.6606,5.6606,5.6606,5.6606,5.6606,5.6606,5.6606,5.6606,5.6606,5.6606,5.6606,5.6606,5.6606,5.6606,5.6606,5.6606,5.6606,5.6899,5.7699,5.7797,5.7797,5.7797,5.7788,5.8121,5.8909,5.8909,5.851,5.7645,5.835,5.8409,5.7612,5.837,5.8778,5.8797,5.8797,5.8797,5.8817,5.9671,6.0545,3.3944,3.5742,3.7232,3.6884,3.6403,3.5669,3.4294,3.182,2.9729,2.9453,2.874,2.8423,2.9304,3.0178,3.1736,3.4667,0.0,0.0,0.0,0.0,0.0,0.0,0.0,0.0,0.0,0.0,0.0,0.0,0.0,0.0,0.0,5.162,5.2148,5.2945,5.3629,5.3969,5.3969,5.3998,5.4147,5.44,5.44,5.4556,5.483,5.483,0.0,0.0,0.0,0.0,0.0,5.5351,5.5605,5.57,5.6289,5.652,5.6566,5.6591,5.6606,5.6606,5.6606,5.6606,5.6606,5.6606,5.6606,5.6606,5.6606,5.6606,5.6606,5.6606,5.6606,5.6606,5.6606,5.6606,5.6606,5.6606,5.6606,5.6606,5.6606,5.6606,5.6606,5.6606,5.6606,5.6606,5.6606,5.7055,5.7426,5.7426,5.7933,5.8304,5.8304,5.8304,5.8402,5.8656,5.8695,5.8695,5.8695,5.8684,5.8808,5.906,5.9521,5.9669,5.9376,5.9588,5.9574,5.9302,5.8972,5.9088,5.9691,5.9691,5.9982,6.0584,6.0856,6.1162,0.0,3.3258,3.4747,3.4854,3.4662,3.4129,3.2975,3.1006,2.935,2.9012,2.8554,2.8473,2.9347,3.0214,3.1617,3.4121,0.0,0.0,0.0,0.0,0.0,0.0,0.0,0.0,0.0,0.0,0.0,0.0,0.0,0.0,0.0,0.0,5.1636,5.2124,5.2713,5.3014,5.3014,5.3014,5.3171,5.3502,5.3502,5.3678,5.401,5.401,0.0,0.0,0.0,0.0,0.0,5.454,5.4967,5.5341,5.5851,5.6276,5.6606,5.6606,5.6606,5.6606,5.6606,5.6606,5.6606,5.6606,5.6606,5.6606,5.6606,5.6606,5.6606,5.6606,5.6606,5.6606,5.6606,5.6606,5.6606,5.6606,5.6606,5.6606,5.6606,5.6606,5.6684,5.6996,5.7055,5.7153,5.7484,5.7953,5.8285,5.8285,5.8753,5.9104,5.9104,5.9104,5.9222,5.9553,5.9592,5.9729,6.0061,5.979,5.9723,6.0019,6.0467,6.0568,6.0204,6.0475,6.0462,6.0099,5.9885,6.006,6.0584,6.0584,6.0883,6.144,6.144,6.147,0.0,3.2134,3.3122,3.4672,3.4554,3.3638,3.2,3.0432,0.0,2.8344,2.8145,2.8422,2.9416,3.0212,3.1094,0.0,0.0,0.0,0.0,0.0,0.0,0.0,0.0,0.0,0.0,0.0,0.0,0.0,0.0,0.0,0.0,0.0,5.1394,5.1394,5.1394,5.1394,5.1394,5.1394,5.1804,5.2605,5.2605,5.3034,5.3815,5.3815,0.0,0.0,0.0,0.0,0.0,5.3873,5.4381,5.5123,5.524,5.5786,5.6528,5.6586,5.6606,5.6606,5.6606,5.6606,5.6606,5.6606,5.6606,5.6606,5.6606,5.6606,5.6606,5.6606,5.6606,5.6606,5.6606,5.6606,5.6606,5.6606,5.6606,5.6606,5.6606,5.6645,5.6918,5.7641,5.7855,5.8148,5.8968,5.9143,5.9183,5.9183,5.9261,5.928,5.928,5.928,5.9592,6.0412,6.049,6.0822,6.1622,6.0959,6.0799,6.1562,6.1601,6.1219,6.0348,6.108,6.1091,6.0216,6.0986,6.1414,6.1408,6.1414,6.144,6.15,6.15,6.149,2.7671,0.0,2.9216,2.8961,2.9288,2.9552,0.0,2.8217,0.0,0.0,0.0,0.0,0.0,0.0,0.0,0.0,0.0,0.0,0.0,0.0,0.0,0.0,0.0,0.0,0.0,0.0,0.0,0.0,0.0,0.0,0.0,0.0,5.1394,5.1394,5.1394,5.1394,5.1394,5.1394,5.1492,5.1707,5.1707,5.1804,5.2019,5.2019,0.0,0.0,0.0,0.0,5.2058,5.2722,5.3132,5.3444,5.4771,5.5435,5.5689,5.6352,5.6606,5.6606,5.6606,5.6606,5.6606,5.6606,5.6606,5.6606,5.6606,5.6606,5.6606,5.6606,5.6606,5.6606,5.6606,5.6606,5.6606,5.6606,5.6606,5.6606,5.6606,5.7074,5.7562,5.7758,5.8343,5.887,5.9065,5.9651,6.008,6.008,6.0666,6.1095,6.1095,6.1095,6.1174,6.1369,6.1388,6.1486,6.1681,6.1505,6.1471,6.1655,6.1637,6.1503,6.1282,6.1412,6.14,6.1173,6.1373,6.1471,6.1485,6.1471,6.1489,6.1509,6.1509,6.1534,2.6229,2.7231,2.8122,2.8065,2.8411,2.8681,2.8252,0.0,0.0,0.0,0.0,0.0,0.0,0.0,0.0,0.0,0.0,0.0,0.0,0.0,0.0,0.0,0.0,0.0,0.0,0.0,0.0,0.0,0.0,0.0,0.0,0.0,5.1394,5.1394,5.1394,5.1394,5.1394,5.1394,5.1394,5.1394,5.1394,5.1394,5.1394,5.1394,0.0,0.0,0.0,0.0,5.1433,5.1902,5.2331,5.278,5.3737,5.4596,5.5357,5.5825,5.6255,5.6606,5.6606,5.6606,5.6606,5.6606,5.6606,5.6606,5.6606,5.6606,5.6606,5.6606,5.6606,5.6606,5.6606,5.6606,5.6606,5.6606,5.6879,5.7153,5.7153,5.7816,5.8519,5.8929,5.9378,5.9827,6.0217,6.0686,6.0998,6.0998,6.1408,6.1701,6.1701,6.1701,6.1701,6.1701,6.1701,6.1701,6.1701,6.1701,6.1701,6.1701,6.1662,6.1637,6.1601,6.1578,6.1525,6.1505,6.1498,6.1491,6.1505,6.1491,6.1529,6.1553,6.1555,6.1582,2.5863,2.7129,2.85,2.8845,2.9125,2.9092,0.0,0.0,0.0,0.0,0.0,0.0,0.0,0.0,0.0,0.0,0.0,0.0,0.0,0.0,0.0,0.0,0.0,0.0,0.0,0.0,0.0,0.0,0.0,0.0,0.0,0.0,0.0,5.1394,5.1394,5.1394,5.1394,5.1394,5.1394,5.1394,5.1394,5.1394,5.1394,5.1394,5.1394,0.0,0.0,0.0,5.1394,5.1394,5.1843,5.2507,5.2644,5.36,5.4947,5.5201,5.5767,5.6411,5.6547,5.6606,5.6606,5.6606,5.6586,5.6582,5.6582,5.6582,5.6582,5.6582,5.6582,5.6606,5.6606,5.6606,5.6606,5.6606,5.7211,5.7797,5.7797,5.8597,5.9514,6.0256,6.051,6.0822,6.1564,6.1701,6.1701,6.1701,6.1701,6.1701,6.1701,6.1701,6.1701,6.1701,6.1701,6.1701,6.1701,6.1701,6.1701,6.1701,6.1701,6.1678,6.162,6.162,6.1581,6.1525,6.1522,6.1522,6.1525,6.1522,6.1553,6.162,6.1617,6.1642,2.6605,2.8075,2.8882,2.6797,2.7382,2.8256,0.0,0.0,0.0,0.0,0.0,0.0,0.0,0.0,0.0,0.0,0.0,0.0,0.0,0.0,0.0,0.0,0.0,0.0,0.0,0.0,0.0,0.0,0.0,0.0,0.0,0.0,0.0,5.1394,5.1394,5.1394,5.1394,5.1394,5.1394,5.1394,5.1394,5.1394,5.1394,5.1394,5.1394,0.0,0.0,5.1394,5.1394,5.1394,5.1472,5.1668,5.2409,5.2858,5.3288,5.4752,5.5376,5.5611,5.6333,5.6606,5.6606,5.6606,5.6558,5.6509,5.6509,5.6523,5.6511,5.6511,5.6567,5.6606,5.6606,5.6606,5.6606,5.6606,5.7211,5.7797,5.7797,5.9065,6.0237,6.0373,6.0998,6.1544,6.1681,6.1701,6.1701,6.1701,6.1701,6.1701,6.1701,6.1701,6.1701,6.1701,6.1701,6.1701,6.1701,6.1701,6.1701,6.1701,6.1701,6.1701,6.169,6.167,6.1674,6.1662,6.1601,6.1601,6.1662,6.1601,6.1619,6.1676,6.1676,6.166,2.6195,2.7229,2.8014,2.7298,2.8738,3.0121,0.0,0.0,0.0,0.0,0.0,0.0,0.0,0.0,0.0,0.0,0.0,0.0,0.0,0.0,0.0,0.0,0.0,0.0,0.0,0.0,0.0,0.0,0.0,0.0,0.0,0.0,0.0,0.0,5.0008,5.0008,5.0008,5.0457,5.0926,5.1394,5.1394,5.1394,5.1394,5.1394,5.1394,5.1394,0.0,5.1394,5.1394,5.1394,5.1394,5.1433,5.1843,5.2292,5.2917,5.4654,5.5591,5.6059,5.6469,5.6606,5.6606,5.6606,5.6558,5.6509,5.6509,5.6497,5.6504,5.6504,5.6511,5.6548,5.6553,5.6558,5.6655,5.7133,5.7894,5.8636,5.9104,6.0198,6.1095,6.1095,6.1427,6.1701,6.1701,6.1701,6.1701,6.1701,6.1701,6.1701,6.1701,6.1701,6.1701,6.1701,6.1701,6.1701,6.1701,6.1701,6.1701,6.1701,6.1701,6.1701,6.1701,6.1701,6.1701,6.1701,6.1662,6.1662,6.1701,6.1674,6.167,6.1699,6.166,6.188,2.5939,2.6644,2.7464,0.0,0.0,0.0,0.0,0.0,0.0,0.0,0.0,0.0,0.0,0.0,0.0,0.0,0.0,0.0,0.0,0.0,0.0,0.0,0.0,0.0,0.0,0.0,0.0,0.0,0.0,0.0,0.0,0.0,0.0,0.0,4.8798,4.8798,4.8798,4.9462,5.0223,5.1102,5.1297,5.1394,5.1394,5.1394,5.1394,5.1394,5.1394,5.1394,5.1394,5.1394,5.1394,5.1394,5.1394,5.2058,5.3171,5.4498,5.5689,5.6606,5.6606,5.6606,5.6606,5.6606,5.6558,5.6509,5.6503,5.6491,5.6498,5.6491,5.6491,5.6498,5.6497,5.6503,5.6723,5.7592,5.8475,5.9339,6.0212,6.1071,6.1701,6.1701,6.1701,6.1701,6.1701,6.1701,6.1701,6.1701,6.1701,6.1701,6.1701,6.1701,6.1701,6.1701,6.1701,6.1701,6.1701,6.1701,6.1701,6.1701,6.1701,6.1701,6.1701,6.1701,6.1701,6.1701,6.1696,6.1696,6.1696,6.1679,6.1673,6.1687,6.1619,6.2063,2.6679,2.7542,2.8225,2.8283,0.0,0.0,0.0,0.0,0.0,0.0,0.0,0.0,0.0,0.0,0.0,0.0,0.0,0.0,0.0,0.0,0.0,0.0,0.0,0.0,0.0,0.0,0.0,0.0,0.0,0.0,0.0,0.0,0.0,0.0,0.0,4.8798,4.8798,4.8857,4.9325,5.0204,5.1004,5.1394,5.1394,5.1394,5.1394,5.1394,5.1394,5.1394,5.1394,5.1394,5.1394,5.1394,5.1394,5.2429,5.3912,5.4049,5.5162,5.6606,5.6606,5.6606,5.6606,5.6606,5.6558,5.6503,5.6511,5.6491,5.6496,5.65,5.6492,5.65,5.6498,5.6497,5.6718,5.7584,5.8479,5.9334,6.0202,6.1086,6.1701,6.1701,6.1701,6.1701,6.1701,6.1701,6.1701,6.1701,6.1701,6.1701,6.1701,6.1701,6.1701,6.1701,6.1701,6.1701,6.1701,6.1701,6.1701,6.1701,6.1701,6.1701,6.1701,6.1701,6.1701,6.1701,6.1705,6.1699,6.1699,6.1648,6.1607,6.1603,6.1603,6.2074,2.6022,2.7167,2.8379,0.0,0.0,0.0,0.0,0.0,0.0,0.0,0.0,0.0,0.0,0.0,0.0,0.0,0.0,0.0,0.0,0.0,0.0,0.0,0.0,0.0,0.0,0.0,0.0,0.0,0.0,0.0,0.0,0.0,0.0,0.0,0.0,4.7111,4.7111,4.7579,4.7965,4.8316,4.9864,5.0594,5.0614,5.116,5.1394,5.1394,5.1394,5.1394,5.1394,5.1394,5.1394,5.1394,5.1394,5.2136,5.3268,5.3795,5.4752,5.5864,5.6411,5.6563,5.6533,5.6533,5.6517,5.6498,5.6503,5.6496,5.6492,5.6511,5.6503,5.6492,5.6496,5.69,5.7531,5.8396,5.9274,6.0143,6.1016,6.1476,6.1701,6.1701,6.1701,6.1701,6.1701,6.1701,6.1701,6.1701,6.1701,6.1701,6.1701,6.1701,6.1701,6.1701,6.1701,6.1701,6.1701,6.1701,6.1696,6.1705,6.1696,6.1701,6.1701,6.1691,6.1705,6.1705,6.1654,6.1648,6.1648,6.1607,6.1592,6.1603,6.2152,6.2844,2.5258,2.6275,2.7693,0.0,0.0,0.0,0.0,0.0,0.0,0.0,0.0,0.0,0.0,0.0,0.0,0.0,0.0,0.0,0.0,0.0,0.0,0.0,0.0,0.0,0.0,0.0,0.0,0.0,0.0,0.0,0.0,0.0,0.0,0.0,0.0,4.6041,4.6041,4.6542,4.6793,4.6823,4.8409,4.9471,5.0036,5.0664,5.1099,5.1333,5.1333,5.1333,5.1333,5.1291,5.1265,5.1265,5.1265,5.1811,5.2669,5.352,5.4417,5.5282,5.6125,5.6425,5.6439,5.6413,5.6445,5.6503,5.6496,5.6464,5.6407,5.6398,5.6358,5.6395,5.6719,5.731,5.7997,5.8862,5.9742,6.0639,6.1478,6.1685,6.1696,6.1701,6.1701,6.1701,6.1701,6.1701,6.1701,6.1701,6.1701,6.1701,6.1701,6.1701,6.1701,6.1701,6.1701,6.1701,6.1701,6.1696,6.171,6.1699,6.1685,6.1666,6.1666,6.1679,6.1699,6.1673,6.1615,6.1607,6.1607,6.1603,6.1751,6.2024,6.263,6.3478,2.4522,2.5007,0.0,0.0,0.0,0.0,0.0,0.0,0.0,0.0,0.0,0.0,0.0,0.0,0.0,0.0,0.0,0.0,0.0,0.0,0.0,0.0,0.0,0.0,0.0,0.0,0.0,0.0,0.0,0.0,0.0,0.0,0.0,0.0,0.0,0.0,4.5899,4.5899,4.5899,4.5919,4.6773,4.8086,4.9787,4.9924,5.0424,5.1183,5.1183,5.1203,5.1195,5.1053,5.1008,5.1008,5.1008,5.1532,5.2387,5.3185,5.4091,5.499,5.5724,5.6129,5.6291,5.6222,5.6338,5.6498,5.6496,5.6369,5.6193,5.6207,5.6044,5.6142,5.7222,5.7653,5.8009,5.883,5.9732,6.0639,6.1419,6.1648,6.1705,6.1696,6.1701,6.1701,6.1701,6.1701,6.1701,6.1701,6.1701,6.1701,6.1701,6.1701,6.1701,6.1701,6.1701,6.1701,6.1701,6.1705,6.1699,6.1699,6.1648,6.1595,6.1595,6.1654,6.1673,6.1595,6.1592,6.1603,6.1603,6.1597,6.2055,6.2893,6.2913,6.3809,2.4439,0.0,0.0,0.0,0.0,0.0,0.0,0.0,0.0,0.0,0.0,0.0,0.0,0.0,0.0,0.0,0.0,0.0,0.0,0.0,0.0,0.0,0.0,0.0,0.0,0.0,0.0,0.0,0.0,0.0,0.0,0.0,0.0,0.0,0.0,0.0,4.5829,4.5752,4.5692,4.5692,4.5943,4.6737,4.8008,4.9284,4.9985,5.0257,5.0811,5.1053,5.1053,5.102,5.1008,5.1008,5.1008,5.1171,5.1476,5.2292,5.3113,5.3959,5.4798,5.5511,5.6029,5.5996,5.6029,5.6068,5.6088,5.6044,5.5994,5.5998,5.5949,5.6142,5.7222,5.7962,5.8682,5.9689,6.0601,6.1319,6.1553,6.166,6.1699,6.1705,6.1691,6.1701,6.1701,6.1701,6.1701,6.1701,6.1701,6.1701,6.1701,6.1701,6.1701,6.1701,6.1701,6.1696,6.1705,6.1699,6.1687,6.1619,6.1607,6.1595,6.1595,6.1627,6.1619,6.1592,6.1586,6.1597,6.1597,6.1588,6.2055,6.2913,6.3478,6.4335,2.4703,0.0,0.0,0.0,0.0,0.0,0.0,0.0,0.0,0.0,0.0,0.0,0.0,0.0,0.0,0.0,0.0,0.0,0.0,0.0,0.0,0.0,0.0,0.0,0.0,0.0,0.0,0.0,0.0,0.0,0.0,0.0,0.0,0.0,0.0,0.0,4.5712,4.5654,4.5586,4.5586,4.5586,4.5935,4.6609,4.807,4.8909,4.9259,5.008,5.0602,5.0874,5.0874,5.0874,5.0874,5.0859,5.0844,5.0948,5.1708,5.2329,5.293,5.4071,5.4861,5.5379,5.569,5.5842,5.5915,5.5915,5.5843,5.5769,5.5769,5.573,5.5943,5.6996,5.7879,5.8812,6.001,6.0973,6.1595,6.1603,6.1619,6.166,6.1699,6.1705,6.1696,6.1696,6.1701,6.1701,6.1701,6.1701,6.1701,6.1701,6.1701,6.1701,6.1701,6.1696,6.171,6.1699,6.1687,6.1646,6.1603,6.1612,6.1592,6.1592,6.1603,6.1595,6.1606,6.1597,6.1607,6.1607,6.1958,6.2542,6.34,6.4238,6.5075,0.0,0.0,0.0,0.0,0.0,0.0,0.0,0.0,0.0,0.0,0.0,0.0,0.0,0.0,0.0,0.0,0.0,0.0,0.0,0.0,0.0,0.0,0.0,0.0,0.0,0.0,0.0,0.0,0.0,0.0,0.0,0.0,0.0,0.0,0.0,0.0,4.5586,4.5586,4.5586,0.0,4.5586,4.5586,4.5642,4.6634,4.7506,4.8319,4.9111,4.9884,5.0567,5.0567,5.0625,5.0683,5.0623,5.0582,5.0657,5.1338,5.1683,5.1992,5.3484,5.4181,5.459,5.5335,5.5711,5.5863,5.5863,5.573,5.5585,5.5585,5.548,5.567,5.6736,5.761,5.8567,6.002,6.0974,6.1549,6.1549,6.1558,6.1584,6.166,6.1673,6.1705,6.1696,6.1701,6.1701,6.1701,6.1696,6.1696,6.1696,6.1696,6.1696,6.1696,6.1705,6.1699,6.1693,6.1646,6.1603,6.1595,6.1597,6.1607,6.1607,6.1606,6.1606,6.1607,6.1607,6.1607,6.1607,6.2465,6.3302,6.4121,6.4997,6.5874,0.0,0.0,0.0,0.0,0.0,0.0,0.0,0.0,0.0,0.0,0.0,0.0,0.0,0.0,0.0,0.0,0.0,0.0,0.0,0.0,0.0,0.0,0.0,0.0,0.0,0.0,0.0,0.0,0.0,0.0,0.0,0.0,0.0,0.0,0.0,4.5586,4.5586,4.5586,4.5586,0.0,4.5586,4.5586,4.5624,4.6542,4.737,4.8141,4.8351,4.8893,4.9683,4.9683,5.0048,5.0623,5.0603,5.054,5.0454,5.0623,5.1098,5.1778,5.2752,5.3561,5.4317,5.5153,5.547,5.5519,5.5519,5.547,5.544,5.544,5.5434,5.5804,5.7486,5.8072,5.8638,6.0418,6.099,6.1126,6.1126,6.1245,6.1367,6.1379,6.1556,6.1699,6.1705,6.1691,6.1701,6.1701,6.1691,6.1705,6.1705,6.1705,6.1679,6.1628,6.1673,6.1687,6.1639,6.1603,6.1595,6.1597,6.1588,6.1607,6.1607,6.1597,6.1597,6.1607,6.1607,6.1607,6.1607,6.2465,6.3302,6.4121,6.4997,6.5874,0.0,0.0,0.0,0.0,0.0,0.0,0.0,0.0,0.0,0.0,0.0,0.0,0.0,0.0,0.0,0.0,0.0,0.0,0.0,0.0,0.0,0.0,0.0,0.0,0.0,0.0,0.0,0.0,0.0,0.0,0.0,0.0,0.0,0.0,4.5586,4.5586,4.5586,4.5586,4.5586,4.5586,4.5586,4.5586,4.5605,4.6067,4.674,4.7528,4.7528,4.8009,4.8817,4.9221,4.9625,5.0027,5.0389,5.0478,5.039,5.0348,5.0612,5.1162,5.2384,5.3091,5.3683,5.4982,5.5403,5.5403,5.5403,5.5403,5.5403,5.5403,5.5403,5.5619,5.6611,5.7465,5.8294,5.9281,6.0285,6.1002,6.1002,6.1072,6.1167,6.1285,6.142,6.1556,6.1673,6.1691,6.1701,6.1701,6.1696,6.171,6.171,6.1673,6.1641,6.1641,6.166,6.1646,6.1603,6.1595,6.1597,6.1607,6.1607,6.1607,6.1607,6.1607,6.1607,6.1607,6.1607,6.1802,6.2211,6.3069,6.3906,6.4744,6.5621,6.6264,0.0,0.0,0.0,0.0,0.0,0.0,0.0,0.0,0.0,0.0,0.0,0.0,0.0,0.0,0.0,0.0,0.0,0.0,0.0,0.0,0.0,0.0,0.0,0.0,0.0,0.0,0.0,0.0,0.0,0.0,0.0,0.0,4.5586,4.5586,4.5586,4.5586,4.5586,4.5586,4.5586,4.5586,4.5586,4.5586,4.5586,4.5586,4.599,4.6682,4.6682,4.7144,4.7952,4.8663,4.9087,4.9354,5.0023,5.0323,5.039,5.0325,5.0302,5.0512,5.2059,5.2671,5.3053,5.4658,5.5288,5.5403,5.5403,5.5403,5.5403,5.5403,5.5403,5.5479,5.5766,5.6855,5.7963,5.8249,5.9657,6.0884,6.0884,6.0925,6.102,6.1216,6.1285,6.1398,6.1607,6.1654,6.1671,6.1696,6.1696,6.1696,6.1671,6.1641,6.1612,6.1673,6.1639,6.1603,6.1595,6.1597,6.1607,6.1607,6.1607,6.1607,6.1607,6.1607,6.1607,6.1607,6.1607,6.2036,6.2893,6.3711,6.4549,6.5426,6.6283,6.6712,0.0,0.0,0.0,0.0,0.0,0.0,0.0,0.0,0.0,0.0,0.0,0.0,0.0,0.0,0.0,0.0,0.0,0.0,0.0,0.0,0.0,0.0,0.0,0.0,0.0,0.0,0.0,0.0,0.0,0.0,0.0,4.5586,4.5586,4.5586,4.5586,4.5586,4.5586,4.5531,4.5513,4.5513,4.5513,4.5513,4.5513,4.5513,4.5608,4.5759,4.5759,4.6259,4.7067,4.7201,4.8049,4.9296,4.9351,4.9786,5.039,5.0325,5.0302,5.0436,5.1429,5.2212,5.2957,5.3951,5.4791,5.5403,5.5403,5.5403,5.5403,5.5403,5.5403,5.5728,5.7199,5.7734,5.8268,5.972,6.0272,6.046,6.046,6.0628,6.0798,6.1002,6.1235,6.1398,6.1432,6.149,6.1573,6.1671,6.1705,6.1673,6.1621,6.1603,6.1597,6.1597,6.1615,6.1595,6.1597,6.1607,6.1607,6.1607,6.1607,6.1607,6.1607,6.1607,6.1607,6.1607,6.1607,6.2036,6.2893,6.3711,6.4549,6.5426,6.6283,6.6712,0.0,0.0,0.0,0.0,0.0,0.0,0.0,0.0,0.0,0.0,0.0,0.0,0.0,0.0,0.0,0.0,0.0,0.0,0.0,0.0,0.0,0.0,0.0,0.0,0.0,0.0,0.0,0.0,0.0,0.0,4.5495,4.5495,4.5495,4.5495,4.5495,4.5495,4.5495,4.5476,4.5438,4.5438,4.5438,4.5438,4.5438,4.5438,4.5495,4.5531,4.5531,4.578,4.6201,4.6665,4.753,4.8603,4.8982,4.9647,5.0325,5.0302,5.0302,5.0417,5.1314,5.2136,5.2938,5.3817,5.4696,5.5403,5.5403,5.5403,5.5403,5.5403,5.5403,5.567,5.6855,5.7523,5.8154,5.9205,5.9931,6.0389,6.0389,6.048,6.0578,6.0798,6.1018,6.1196,6.1225,6.1348,6.1461,6.1517,6.1621,6.1679,6.1621,6.1592,6.1606,6.1588,6.1597,6.1597,6.1607,6.1607,6.1607,6.1607,6.1607,6.1607,6.1607,6.1607,6.1607,6.1607,6.1607,6.225,6.3575,6.3926,6.4803,6.6147,6.6517,6.6712,0.0,0.0,0.0,0.0,0.0,0.0,0.0,0.0,0.0,0.0,0.0,0.0,0.0,0.0,0.0,0.0,0.0,0.0,0.0,0.0,0.0,0.0,0.0,0.0,0.0,0.0,0.0,0.0,0.0,0.0,4.54,4.54,4.54,4.54,4.54,4.54,4.54,4.54,4.54,4.54,4.54,4.54,4.54,4.54,4.5419,4.5457,4.5476,4.5495,4.5589,4.6205,4.7069,4.8045,4.8597,4.9433,5.0325,5.0302,5.0302,5.0397,5.1047,5.1945,5.29,5.355,5.4505,5.5403,5.5403,5.5403,5.5403,5.5403,5.5403,5.5651,5.6664,5.7409,5.8116,5.8937,5.9778,6.0389,6.0389,6.0425,6.0514,6.0603,6.0803,6.0962,6.0999,6.1177,6.1359,6.1452,6.1595,6.1685,6.1602,6.16,6.1595,6.1588,6.1607,6.1607,6.1607,6.1607,6.1607,6.1607,6.1607,6.1607,6.1607,6.1607,6.1705,6.1938,6.1938,6.2659,6.4101,6.4315,6.5212,6.6712,6.6712,6.6712,0.0,0.0,0.0,0.0,0.0,0.0,0.0,0.0,0.0,0.0,0.0,0.0,0.0,0.0,0.0,0.0,0.0,0.0,0.0,0.0,0.0,0.0,0.0,0.0,0.0,0.0,0.0,0.0,0.0,0.0,4.54,4.54,4.54,4.54,4.54,4.54,4.54,4.54,4.5418,4.5418,4.5418,4.5418,4.5418,4.5418,4.5399,4.5418,4.54,4.5419,4.5419,4.5477,4.6455,4.8008,4.7984,4.8955,5.039,5.0325,5.0302,5.0302,5.0359,5.1448,5.2805,5.2843,5.4027,5.5403,5.5403,5.5403,5.5403,5.5403,5.5403,5.5785,5.7409,5.7867,5.8307,5.9931,6.0351,6.0389,6.0389,6.0546,6.0628,6.0453,6.0647,6.0798,6.074,6.0944,6.1258,6.1619,6.1687,6.1687,6.1615,6.1603,6.1588,6.1607,6.1607,6.1607,6.1607,6.1607,6.1607,6.1607,6.1607,6.1607,6.1607,6.1607,6.1997,6.2815,6.2835,6.3244,6.4101,6.4939,6.5796,6.6712,6.6712,6.6712,0.0,0.0,0.0,0.0,0.0,0.0,0.0,0.0,0.0,0.0,0.0,0.0,0.0,0.0,0.0,0.0,0.0,0.0,0.0,0.0,0.0,0.0,0.0,0.0,0.0,0.0,0.0,0.0,0.0,0.0,4.3752,4.423,4.4498,4.4498,4.5033,4.5339,4.5339,4.5338,4.5338,4.5338,4.5338,4.5338,4.5338,4.5338,4.5338,4.5338,4.5339,4.5361,4.54,4.54,4.6415,4.7926,4.7862,4.8853,5.0325,5.0302,5.0302,5.0302,5.0302,5.1391,5.2805,5.2805,5.397,5.5403,5.5403,5.5403,5.5403,5.5403,5.5403,5.5785,5.7466,5.7905,5.8326,5.9988,6.0389,6.0389,6.0389,6.0453,6.0487,6.0417,6.048,6.0546,6.0559,6.0762,6.0925,6.1002,6.1362,6.1556,6.1375,6.15,6.1606,6.1607,6.1607,6.1607,6.1607,6.1607,6.1607,6.1607,6.1607,6.1607,6.1607,6.1607,6.2016,6.2874,6.3419,6.4082,6.4939,6.5251,6.5855,6.6712,6.6712,6.6712,0.0,0.0,0.0,0.0,0.0,0.0,0.0,0.0,0.0,0.0,0.0,0.0,0.0,0.0,0.0,0.0,0.0,0.0,0.0,0.0,0.0,0.0,0.0,0.0,0.0,0.0,0.0,0.0,0.0,0.0,4.2832,4.331,4.3615,4.3615,4.4418,4.4857,4.4857,4.5144,4.5297,4.5297,4.5297,4.5297,4.5297,4.5297,4.5297,4.5297,4.5297,4.5319,4.5361,4.5379,4.6181,4.7442,4.7685,4.8659,4.992,5.0206,5.0302,5.0302,5.0302,5.1219,5.2442,5.2709,5.3779,5.5021,5.5307,5.5403,5.5403,5.5403,5.5403,5.5785,5.7466,5.8326,5.9014,6.0141,6.0389,6.0389,6.0389,6.0389,6.0389,6.0389,6.0389,6.0417,6.0453,6.0618,6.0715,6.0559,6.109,6.1429,6.1255,6.1437,6.1606,6.1607,6.1607,6.1607,6.1607,6.1607,6.1607,6.1607,6.1607,6.1607,6.1607,6.1607,6.2133,6.3283,6.3828,6.4666,6.5835,6.5835,6.6127,6.6712,6.6712,6.6712,0.0,0.0,0.0,0.0,0.0,0.0,0.0,0.0,0.0,0.0,0.0,0.0,0.0,0.0,0.0,0.0,0.0,0.0,0.0,0.0,0.0,0.0,0.0,0.0,0.0,0.0,0.0,0.0,0.0,4.2756,4.2737,4.2756,4.2775,4.2794,4.3558,4.3978,4.3978,4.4838,4.5258,4.5258,4.5277,4.5297,4.5297,4.5297,4.5297,4.5297,4.5297,4.5297,4.5297,4.5297,4.5774,4.6596,4.7474,4.8334,4.9194,4.9996,5.0302,5.0302,5.0302,5.0875,5.1735,5.2537,5.3397,5.4256,5.5135,5.5403,5.5403,5.5403,5.5403,5.5785,5.7466,5.9109,6.037,6.0389,6.0389,6.0389,6.0389,6.0389,6.0389,6.0389,6.0389,6.0389,6.0389,6.0572,6.0628,6.0425,6.0905,6.1269,6.1269,6.1456,6.1588,6.1588,6.1607,6.1607,6.1607,6.1607,6.1607,6.1607,6.1607,6.1607,6.1607,6.1607,6.2387,6.4023,6.4082,6.4958,6.6653,6.6692,6.6712,6.6712,6.6712,6.6712,1.9675,0.0,0.0,0.0,0.0,0.0,0.0,0.0,0.0,0.0,0.0,0.0,0.0,0.0,0.0,0.0,0.0,0.0,0.0,0.0,0.0,0.0,0.0,0.0,0.0,0.0,0.0,0.0,4.1514,4.1609,4.1017,4.1533,4.2144,4.2775,4.3023,4.3138,4.3138,4.3959,4.436,4.438,4.4991,4.5297,4.5297,4.5297,4.5297,4.5297,4.5297,4.5297,4.5297,4.5297,4.5774,4.6596,4.7474,4.8334,4.9194,4.9996,5.0302,5.0302,5.0302,5.0875,5.1735,5.2537,5.3397,5.4256,5.5135,5.5403,5.5403,5.5403,5.5403,5.5785,5.7466,5.8689,5.9625,6.0236,6.0389,6.0389,6.0389,6.0389,6.0389,6.0389,6.0389,6.0389,6.0389,6.0453,6.046,6.0417,6.0727,6.0925,6.0864,6.1158,6.1389,6.1389,6.1509,6.1607,6.1607,6.1607,6.1607,6.1607,6.1607,6.1607,6.1607,6.1607,6.2114,6.3205,6.3809,6.4647,6.5757,6.64,6.6712,6.6712,6.6712,6.6712,0.0,0.0,0.0,0.0,0.0,0.0,0.0,0.0,0.0,0.0,0.0,0.0,0.0,0.0,0.0,0.0,0.0,0.0,0.0,0.0,0.0,0.0,0.0,0.0,0.0,0.0,0.0,0.0,4.0731,4.0788,4.0329,4.075,4.1227,4.1743,4.2087,4.2259,4.2259,4.308,4.3673,4.4017,4.4513,4.4953,4.5297,4.5297,4.5297,4.5297,4.5297,4.5297,4.5297,4.5297,4.5583,4.608,4.694,4.7799,4.8659,4.948,5.0015,5.0302,5.0302,5.0627,5.12,5.2021,5.2862,5.3722,5.46,5.5116,5.5403,5.5403,5.5651,5.6205,5.7542,5.8498,5.9319,6.0179,6.0389,6.0389,6.0389,6.0389,6.0389,6.0389,6.0389,6.0389,6.0389,6.0389,6.0389,6.0389,6.0603,6.0731,6.0704,6.0983,6.1209,6.1283,6.1401,6.1498,6.1588,6.1607,6.1607,6.1607,6.1607,6.1607,6.1607,6.1607,6.2016,6.2874,6.3692,6.4705,6.5933,6.6459,6.6712,6.6712,6.6712,6.6712,0.0,0.0,0.0,0.0,0.0,0.0,0.0,2.5779,0.0,0.0,0.0,0.0,0.0,0.0,0.0,0.0,0.0,0.0,0.0,0.0,0.0,0.0,0.0,0.0,0.0,0.0,3.9728,4.0062,4.0177,4.0234,4.0215,4.0253,4.0291,4.0253,4.096,4.1342,4.1342,4.2201,4.3041,4.3862,4.3939,4.4456,4.5297,4.5297,4.5297,4.5297,4.5297,4.5297,4.5297,4.5297,4.5297,4.5373,4.6194,4.7035,4.7914,4.8774,4.9614,5.0302,5.0302,5.0302,5.0436,5.1334,5.2136,5.2957,5.3836,5.4715,5.5403,5.5403,5.5919,5.6664,5.7523,5.8364,5.9185,6.0045,6.0332,6.0389,6.0389,6.0389,6.0389,6.0389,6.0389,6.0389,6.0389,6.0389,6.0389,6.0389,6.0546,6.0657,6.0657,6.0843,6.1039,6.124,6.1303,6.1389,6.1578,6.1607,6.1607,6.1607,6.1607,6.1607,6.1607,6.1607,6.1958,6.2737,6.3634,6.4958,6.6712,6.6712,6.6712,6.6712,6.6712,6.6712,0.0,0.0,0.0,0.0,0.0,0.0,0.0,2.3946,0.0,0.0,0.0,0.0,0.0,0.0,0.0,0.0,0.0,0.0,0.0,0.0,0.0,0.0,0.0,0.0,0.0,0.0,3.7875,3.8633,3.9491,3.9892,3.967,4.0017,4.0118,3.9892,4.0209,4.0365,4.0365,4.1245,4.2104,4.2962,4.3671,4.4456,4.5297,4.5297,4.5297,4.5297,4.5297,4.5297,4.5297,4.5297,4.5297,4.5373,4.6194,4.7035,4.7914,4.8774,4.9614,5.0302,5.0302,5.0302,5.0436,5.1334,5.2136,5.2957,5.3836,5.4715,5.5403,5.5403,5.5517,5.5823,5.6645,5.7485,5.8345,5.9166,5.9892,6.0389,6.0389,6.0389,6.0389,6.0389,6.0389,6.0389,6.0389,6.0389,6.0389,6.0389,6.0425,6.0453,6.0453,6.0633,6.0841,6.1039,6.1209,6.1389,6.1578,6.1607,6.1607,6.1607,6.1607,6.1607,6.1607,6.1607,6.1685,6.1841,6.3322,6.4958,6.6712,6.6712,6.6712,6.6712,6.6712,6.6712,0.0,0.0,0.0,2.3785,0.0,0.0,0.0,0.0,0.0,0.0,0.0,0.0,0.0,0.0,0.0,0.0,0.0,0.0,0.0,0.0,0.0,0.0,0.0,0.0,0.0,0.0,3.7061,3.761,3.8554,3.9006,3.8801,3.9406,3.9743,3.9739,3.9848,3.9954,4.0096,4.0537,4.1185,4.2063,4.2904,4.3762,4.462,4.5063,4.5254,4.5235,4.5297,4.5297,4.5297,4.5297,4.5297,4.5335,4.5736,4.6691,4.7857,4.8296,4.9232,5.0302,5.0302,5.0302,5.0378,5.0818,5.1525,5.2365,5.3206,5.4352,5.5403,5.5403,5.5403,5.5594,5.6377,5.7237,5.8096,5.8918,5.9778,6.0389,6.0389,6.0389,6.0389,6.0389,6.0389,6.0389,6.0389,6.0389,6.0389,6.0389,6.0389,6.0389,6.0389,6.0487,6.0628,6.0841,6.1039,6.1225,6.1433,6.1539,6.1607,6.1607,6.1607,6.1607,6.1607,6.1607,6.1802,6.2231,6.3478,6.4744,6.605,6.6498,6.6712,6.6712,6.6712,6.6712,0.0,0.0,0.0,0.0,0.0,2.3819,0.0,0.0,0.0,2.5564,0.0,0.0,0.0,0.0,0.0,0.0,0.0,0.0,0.0,0.0,0.0,0.0,0.0,0.0,0.0,0.0,3.5919,3.655,3.7135,3.7542,3.7678,3.8539,3.9102,3.9288,3.9529,3.9781,3.9975,4.0057,4.0515,4.1392,4.221,4.3047,4.3923,4.4808,4.517,4.5192,4.5254,4.5275,4.5275,4.5275,4.5297,4.5297,4.5297,4.6328,4.7799,4.7799,4.8869,5.0302,5.0302,5.0302,5.0302,5.0302,5.099,5.1983,5.2805,5.4142,5.5403,5.5403,5.5403,5.5556,5.6205,5.7008,5.7867,5.867,5.951,6.0198,6.0351,6.0389,6.0389,6.0389,6.0389,6.0389,6.0389,6.0389,6.0389,6.0389,6.0389,6.0389,6.0389,6.0389,6.048,6.0681,6.0862,6.102,6.1225,6.1433,6.1539,6.1539,6.1578,6.1607,6.1607,6.1607,6.2016,6.2874,6.3692,6.453,6.5407,6.6264,6.6712,6.6712,6.6671,6.6641,0.0,0.0,0.0,0.0,2.5932,0.0,0.0,0.0,2.4632,2.426,0.0,0.0,0.0,0.0,0.0,0.0,0.0,0.0,0.0,0.0,0.0,0.0,0.0,0.0,0.0,0.0,0.0,3.4972,3.4726,3.5003,3.6179,3.7396,3.7966,3.7757,3.8894,3.9551,3.9575,3.987,4.0454,4.1328,4.2189,4.3047,4.3923,4.4722,4.5125,4.5125,4.5125,4.5148,4.5213,4.5213,4.5254,4.5297,4.5297,4.6328,4.7799,4.7799,4.8869,5.0302,5.0302,5.0302,5.0302,5.0302,5.1372,5.2824,5.3683,5.4639,5.5403,5.5403,5.5403,5.5422,5.5517,5.6148,5.6969,5.7829,5.867,5.9472,6.0217,6.0389,6.0389,6.0389,6.0389,6.0389,6.0389,6.0389,6.0389,6.0389,6.0389,6.0389,6.0389,6.0389,6.048,6.0681,6.0727,6.082,6.102,6.1225,6.133,6.133,6.1498,6.1607,6.1607,6.1607,6.2016,6.2874,6.3692,6.453,6.5407,6.6264,6.6712,6.6712,6.6517,6.6441,0.0,0.0,0.0,0.0,0.0,0.0,0.0,0.0,2.4136,0.0,0.0,0.0,0.0,0.0,0.0,0.0,0.0,0.0,0.0,0.0,0.0,0.0,0.0,0.0,0.0,0.0,0.0,0.0,0.0,3.3488,3.4495,3.6391,3.7445,3.7445,3.8422,3.9045,3.9216,3.9345,3.9701,4.0264,4.1099,4.2044,4.305,4.3931,4.46,4.5038,4.508,4.5125,4.5148,4.5148,4.517,4.5235,4.5235,4.5982,4.7111,4.7627,4.8582,4.9671,5.0149,5.0302,5.0302,5.0302,5.1123,5.227,5.3091,5.3951,5.4753,5.5269,5.5403,5.5403,5.5403,5.5995,5.6683,5.7065,5.8154,5.9205,5.9568,6.0045,6.0389,6.0389,6.0389,6.0389,6.0389,6.0389,6.0389,6.0389,6.0389,6.0389,6.0389,6.0389,6.0425,6.0514,6.0628,6.0731,6.082,6.102,6.1178,6.1283,6.1487,6.1607,6.1607,6.1607,6.1763,6.2133,6.3439,6.4276,6.4647,6.603,6.6641,6.6517,6.6441,6.6345,2.7091,0.0,0.0,0.0,0.0,0.0,0.0,0.0,0.0,0.0,0.0,0.0,0.0,0.0,0.0,0.0,0.0,0.0,0.0,0.0,0.0,0.0,0.0,0.0,0.0,0.0,0.0,0.0,0.0,0.0,3.3063,3.5006,3.6352,3.6924,3.7802,3.8449,3.8886,3.8952,3.9136,3.9383,4.0188,4.1186,4.2319,4.3218,4.4118,4.4986,4.5014,4.5057,4.5061,4.5061,4.5125,4.517,4.517,4.5576,4.6287,4.7376,4.8353,4.9213,5.0015,5.0302,5.0302,5.0302,5.0894,5.1754,5.2556,5.3416,5.4276,5.5154,5.5403,5.5403,5.5403,5.5823,5.632,5.6549,5.7714,5.8842,5.9052,5.9778,6.0389,6.0389,6.0389,6.0389,6.0389,6.0389,6.0389,6.0389,6.0389,6.0389,6.0389,6.0389,6.0389,6.0389,6.052,6.0628,6.0628,6.0798,6.102,6.1269,6.1445,6.1539,6.1607,6.1607,6.1607,6.1607,6.3244,6.4061,6.4009,6.5762,6.647,6.6203,6.6276,6.6205,0.0,0.0,0.0,0.0,0.0,0.0,0.0,0.0,2.5151,0.0,0.0,0.0,0.0,0.0,0.0,0.0,0.0,0.0,0.0,0.0,0.0,0.0,0.0,0.0,0.0,0.0,0.0,0.0,0.0,0.0,3.2071,3.3049,3.4244,3.5802,3.6888,3.7826,3.8615,3.8857,3.9008,3.9027,3.9891,4.0896,4.2051,4.2859,4.3837,4.4895,4.4914,4.4943,4.4991,4.4991,4.5038,4.5103,4.5103,4.5167,4.5461,4.7166,4.8353,4.9213,5.0015,5.0302,5.0302,5.0302,5.0894,5.1754,5.2556,5.3416,5.4276,5.5154,5.5403,5.5403,5.5403,5.5422,5.5632,5.6396,5.7294,5.8154,5.8937,5.9778,6.0389,6.0389,6.0389,6.0389,6.0389,6.0389,6.0389,6.0389,6.0389,6.0389,6.0389,6.0389,6.0389,6.0389,6.0417,6.0417,6.0417,6.0578,6.0884,6.1269,6.1317,6.1389,6.1588,6.1607,6.1607,6.1607,6.3244,6.4009,6.3809,6.5557,6.6185,6.573,6.6005,6.5983,0.0,0.0,3.1148,2.8442,0.0,0.0,0.0,0.0,0.0,0.0,0.0,0.0,0.0,0.0,0.0,0.0,0.0,0.0,0.0,0.0,0.0,0.0,0.0,0.0,0.0,0.0,0.0,0.0,0.0,0.0,0.0,3.2379,3.39,3.4969,3.6399,3.7535,3.8322,3.8433,3.8554,3.8748,3.9024,4.0178,4.2006,4.2269,4.3328,4.4895,4.4895,4.4895,4.4919,4.4919,4.4967,4.5014,4.5014,4.5061,4.5357,4.7079,4.7945,4.8449,4.9824,5.0302,5.0302,5.0302,5.0512,5.1009,5.2335,5.294,5.3455,5.4814,5.5222,5.5275,5.5275,5.5339,5.5479,5.5747,5.6874,5.7963,5.8249,5.9415,6.0389,6.0389,6.0389,6.0389,6.0389,6.0389,6.0389,6.0389,6.0389,6.0389,6.0389,6.0389,6.0389,6.0389,6.0389,6.0389,6.0389,6.0578,6.0754,6.0884,6.1142,6.1269,6.1209,6.1445,6.1539,6.1401,6.3183,6.3998,6.3794,6.5557,6.6167,6.5705,6.5804,6.5724,3.1075,3.1582,0.0,2.9546,2.8951,0.0,2.5721,0.0,0.0,0.0,0.0,0.0,0.0,0.0,0.0,0.0,0.0,0.0,0.0,0.0,0.0,0.0,0.0,0.0,0.0,0.0,2.4042,2.5656,0.0,0.0,0.0,0.0,3.3049,3.4154,3.5729,3.6961,3.7757,3.8047,3.8307,3.8465,3.8465,3.9626,4.1817,4.1817,4.2968,4.4895,4.4895,4.4895,4.4895,4.4895,4.4938,4.4967,4.4967,4.501,4.5289,4.7033,4.8071,4.8785,4.9849,5.0255,5.0302,5.0255,5.0255,5.0603,5.219,5.2679,5.3022,5.4645,5.5121,5.5176,5.5183,5.5248,5.5339,5.5403,5.6434,5.7523,5.7829,5.8975,6.0026,6.0332,6.0389,6.0389,6.0389,6.0389,6.0389,6.0389,6.0389,6.0389,6.0389,6.0389,6.0389,6.0389,6.0389,6.0389,6.0389,6.0514,6.0628,6.0704,6.0945,6.1057,6.1002,6.1317,6.1433,6.1303,6.3067,6.3897,6.3699,6.5352,6.5945,6.5586,6.5586,6.5542]},{"header":{"parameterUnit":"m.s-1","parameterCategory":1,"la1":30.6,"la2":29.2853,"lo1":-89.7004,"lo2":-87.6739,"dy":0.0162,"dx":0.0183,"nx":112,"ny":82,"refTime":"2025-04-09T06:00:00:Z","depth":0,"parameterNumber":3,"parameterNumberName":"V-component_of_WINDS"},"data":[0.0,0.0,0.0,0.0,0.0,0.0,0.0,0.0,0.0,0.0,0.0,0.0,0.0,0.0,0.0,0.0,0.0,0.0,0.0,0.0,0.0,0.0,0.0,0.0,0.0,0.0,0.0,0.0,0.0,0.0,0.0,0.0,0.0,0.0,0.0,0.0,0.0,0.0,0.0,0.0,0.0,0.0,0.0,0.0,0.0,0.0,0.0,0.0,0.0,0.0,0.0,0.0,0.0,0.0,0.0,0.0,0.0,0.0,0.0,0.0,0.0,0.0,0.0,0.0,0.0,0.0,0.0,0.0,0.0,0.0,0.0,0.0,0.0,0.0,0.0,0.0,0.0,0.0,0.0,0.0,0.0,0.0,0.0,0.0,0.0,0.0,0.0,0.0,0.0,0.0,0.0,0.2715,0.2936,0.3074,0.3103,0.3028,0.292,0.2647,0.0,0.0,0.0,0.0,0.0,0.0,0.0,0.0,0.0,0.0,0.0,0.0,0.0,0.0,0.0,0.0,0.0,0.0,0.0,0.0,0.0,0.0,0.0,0.0,0.0,0.0,0.0,0.0,0.0,0.0,0.0,0.0,0.0,0.0,0.0,0.0,0.0,0.0,0.0,0.0,0.0,0.0,0.0,0.0,0.0,0.0,0.0,0.0,0.0,0.0,0.0,0.0,0.0,0.0,0.0,0.0,0.0,0.0,0.0,0.0,0.0,0.0,0.0,0.0,0.0,0.0,0.0,0.0,0.0,0.0,0.0,0.0,0.0,0.0,0.0,0.0,0.0,0.0,0.0,0.0,0.0,0.0,0.0,0.0,0.0,0.0,0.0,0.0,0.0,0.0,0.0,0.0,0.0,0.0,0.0,0.0,0.0,0.0,0.0,0.0,0.0,0.0,0.0,0.0,0.2526,0.2932,0.3007,0.3107,0.3197,0.3122,0.2956,0.2687,0.0,0.0,0.0,0.0,0.0,0.0,0.0,0.0,0.0,0.0,0.0,0.0,0.0,0.0,0.0,0.0,0.0,0.0,0.0,0.0,0.0,0.0,0.0,0.0,0.0,0.0,0.0,0.0,0.0,0.0,0.0,0.0,0.0,0.0,0.0,0.0,0.0,0.0,0.0,0.0,0.0,0.0,0.0,0.0,0.0,0.0,0.0,0.0,0.0,0.0,0.0,0.0,0.0,0.0,0.0,0.0,0.0,0.0,0.0,0.0,0.0,0.0,0.0,0.0,0.0,0.0,0.0,0.0,0.0,0.0,0.0,0.0,0.0,0.0,0.0,0.0,0.0,0.0,0.0,0.0,0.0,0.0,0.0,0.0,0.0,0.0,0.0,0.0,0.0,0.0,0.0,0.0,0.0,0.0,0.0,0.0,0.0,0.0,0.0,0.0,0.0,0.0,0.0,0.2527,0.2711,0.3064,0.314,0.3181,0.3224,0.3142,0.2997,0.2779,0.246,0.0,0.0,0.0,0.0,0.0,0.0,0.0,0.0,0.0,0.0,0.0,0.0,0.0,0.0,0.0,0.0,0.0,0.0,0.0,0.0,0.0,0.0,0.0,0.0,0.0,0.0,0.0,0.0,0.0,0.0,0.0,0.0,0.0,0.0,0.0,0.0,0.0,0.0,0.0,0.0,0.0,0.0,0.0,0.0,0.0,0.0,0.0,0.0,0.0,0.0,0.0,0.0,0.0,0.0,0.0,0.0,0.0,0.0,0.0,0.0,0.0,0.0,0.0,0.0,0.0,0.0,0.0,0.0,0.0,0.0,0.0,0.0,0.0,0.0,0.0,0.0,0.0,0.0,0.0,0.0,0.0,0.0,0.0,0.0,0.0,0.0,0.0,0.0,0.0,0.0,0.0,0.0,0.0,0.0,0.0,0.0,0.0,0.0,0.0,0.0,0.0,0.0,0.2836,0.2968,0.3173,0.3213,0.3226,0.3226,0.3142,0.3015,0.2838,0.2485,0.0,0.0,0.0,0.0,0.0,0.0,0.0,0.0,0.0,0.0,0.0,0.0,0.0,0.0,0.0,0.0,0.0,0.0,0.0,0.0,0.0,0.0,0.0,0.0,0.0,0.0,0.0,0.0,0.0,0.0,0.0,0.0,0.0,0.0,0.0,0.0,0.0,0.0,0.0,0.0,0.0,0.0,0.0,0.0,0.0,0.0,0.0,0.0,0.0,0.0,0.0,0.0,0.0,0.0,0.0,0.0,0.0,0.0,0.0,0.0,0.0,0.0,0.0,0.0,0.0,0.0,0.0,0.0,0.0,0.0,0.0,0.0,0.0,0.0,0.0,0.0,0.0,0.0,0.0,0.0,0.0,0.0,0.0,0.0,0.0,0.0,0.0,0.0,0.0,0.0,0.0,0.0,0.0,0.0,0.0,0.0,0.0,0.0,0.0,0.0,0.0,0.0,0.2866,0.3079,0.3097,0.3177,0.3226,0.3226,0.3142,0.3015,0.2838,0.2485,0.0,0.0,0.0,0.0,0.0,0.0,0.0,0.0,0.0,0.0,0.0,0.0,0.0,0.0,0.0,0.0,0.0,0.0,0.0,0.0,0.0,0.0,0.0,0.0,0.0,0.0,0.0,0.0,0.0,0.0,0.0,0.0,0.0,0.0,0.0,0.0,0.0,0.0,0.0,0.0,0.0,0.0,0.0,0.0,0.0,0.0,0.0,0.0,0.0,0.0,0.0,0.0,0.0,0.0,0.0,0.0,0.0,0.0,0.0,0.0,0.0,0.0,0.0,0.0,0.0,0.0,0.0,0.0,0.0,0.0,0.0,0.0,0.0,0.0,0.0,0.0,0.0,0.0,0.0,0.0,0.0,0.0,0.0,0.0,0.0,0.0,0.0,0.0,0.0,0.0,0.0,0.0,0.0,0.0,0.0,0.0,0.0,0.0,0.0,0.0,0.0,0.0,0.2854,0.3071,0.0,0.324,0.325,0.3307,0.3228,0.3075,0.2842,0.0,0.0,0.0,0.0,0.0,0.0,0.0,0.0,0.0,0.0,0.0,0.0,0.0,0.0,0.0,0.0,0.0,0.0,0.0,0.0,0.0,0.0,0.0,0.0,0.0,0.0,0.0,0.0,0.0,0.0,0.0,0.0,0.0,0.0,0.0,0.0,0.0,0.0,0.0,0.0,0.0,0.0,0.0,0.0,0.0,0.0,0.0,0.0,0.0,0.0,0.0,0.0,0.0,0.0,0.0,0.0,0.0,0.0,0.0,0.0,0.0,0.0,0.0,0.0,0.0,0.0,0.0,0.0,0.0,0.0,0.0,0.0,0.0,0.0,0.0,0.0,0.0,0.0,0.0,0.0,0.0,0.0,0.0,0.0,0.0,0.0,0.0,0.0,0.0,0.0,0.0,0.0,0.0,0.0,0.0,0.0,0.0,0.0,0.0,0.0,0.0,0.0,0.2691,0.294,0.3222,0.0,0.3307,0.3295,0.3358,0.3252,0.3081,0.2842,0.0,0.0,0.0,0.0,0.0,0.0,0.0,0.0,0.0,0.0,0.0,0.0,0.0,0.0,0.0,0.0,0.0,0.0,0.0,0.0,0.0,0.0,0.0,0.0,0.0,0.0,0.0,0.0,0.0,0.0,0.0,0.0,0.0,0.0,0.0,0.0,0.0,0.0,0.0,0.0,0.0,0.0,0.0,0.0,0.0,0.0,0.0,0.0,0.0,0.0,0.0,0.0,0.0,0.0,0.0,0.0,0.0,0.0,0.0,0.0,0.0,0.0,0.0,0.0,0.0,0.0,0.0,0.0,0.0,0.0,0.0,0.0,0.0,0.0,0.0,0.0,0.0,0.0,0.0,0.0,0.0,0.0,0.0,0.0,0.0,0.0,0.0,0.0,0.0,0.0,0.0,0.0,0.0,0.0,0.0,0.0,0.0,0.0,0.0,0.0,0.0,0.0,0.2793,0.3142,0.3434,0.3436,0.3436,0.3434,0.3434,0.3199,0.3017,0.0,0.0,0.0,0.0,0.0,0.0,0.0,0.0,0.0,0.0,0.0,0.0,0.0,0.0,0.0,0.0,0.0,0.0,0.0,0.0,0.0,0.0,0.0,0.0,0.0,0.0,0.0,0.0,0.0,0.0,0.0,0.0,0.0,0.0,0.0,0.0,0.0,0.0,0.0,0.0,0.0,0.0,0.0,0.0,0.0,0.0,0.0,0.0,0.0,0.0,0.0,0.0,0.0,0.0,0.0,0.0,0.0,0.0,0.0,0.0,0.0,0.0,0.0,0.0,0.0,0.0,0.0,0.0,0.0,0.0,0.0,0.0,0.0,0.0,0.0,0.0,0.0,0.0,0.0,0.0,0.0,0.0,0.0,0.0,0.0,0.0,0.0,0.0,0.0,0.0,0.0,0.0,0.0,0.0,0.0,0.0,0.0,0.0,0.0,0.0,0.0,0.0,0.0,0.0,0.3179,0.3411,0.3536,0.3495,0.346,0.346,0.335,0.3126,0.2754,0.0,0.0,0.0,0.0,0.0,0.0,0.0,0.0,0.0,0.0,0.0,0.0,0.0,0.0,0.0,0.0,0.0,0.0,0.0,0.0,0.0,0.0,0.0,0.0,0.0,0.0,0.0,0.0,0.0,0.0,0.0,0.0,0.0,0.0,0.0,0.0,0.0,0.0,0.0,0.0,0.0,0.0,0.0,0.0,0.0,0.0,0.0,0.0,0.0,0.0,0.0,0.0,0.0,0.0,0.0,0.0,0.0,0.0,0.0,0.0,0.0,0.0,0.0,0.0,0.0,0.0,0.0,0.0,0.0,0.0,0.0,0.0,0.0,0.0,0.0,0.0,0.0,0.0,0.0,0.0,0.0,0.0,0.0,0.0,0.0,0.0,0.0,0.0,0.0,0.0,0.0,0.0,0.0,0.0,0.0,0.0,0.0,0.0,0.0,0.0,0.0,0.0,0.2956,0.3248,0.3473,0.3612,0.3581,0.355,0.355,0.3436,0.3201,0.2819,0.0,0.0,0.0,0.0,0.0,0.0,0.0,0.0,0.0,0.0,0.0,0.0,0.0,0.0,0.0,0.0,0.0,0.0,0.0,0.0,0.0,0.0,0.0,0.0,0.0,0.0,0.0,0.0,0.0,0.0,0.0,0.0,0.0,0.0,0.0,0.0,0.0,0.0,0.0,0.0,0.0,0.0,0.0,0.0,0.0,0.0,0.0,0.0,0.0,0.0,0.0,0.0,0.0,0.0,0.0,0.0,0.0,0.0,0.0,0.0,0.0,0.0,0.0,0.0,0.0,0.0,0.0,0.0,0.0,0.0,0.0,0.0,0.0,0.0,0.0,0.0,0.0,0.0,0.0,0.0,0.0,0.0,0.0,0.0,0.0,0.0,0.0,0.0,0.0,0.0,0.0,0.0,0.0,0.0,0.0,0.0,0.0,0.0,0.0,0.0,0.0,0.0,0.3044,0.3336,0.3536,0.363,0.3638,0.3636,0.3628,0.3473,0.3326,0.3047,0.0,0.0,0.0,0.0,0.0,0.0,0.0,0.0,0.0,0.0,0.0,0.0,0.0,0.0,0.0,0.0,0.0,0.0,0.0,0.0,0.0,0.0,0.0,0.0,0.0,0.0,0.0,0.0,0.0,0.0,0.0,0.0,0.0,0.0,0.0,0.0,0.0,0.0,0.0,0.0,0.0,0.0,0.0,0.0,0.0,0.0,0.0,0.0,0.0,0.0,0.0,0.0,0.0,0.0,0.0,0.0,0.0,0.0,0.0,0.0,0.1293,0.0,0.0,0.0,0.0,0.0,0.0,0.0,0.0,0.0,0.0,0.0,0.0,0.0,0.0,0.0,0.0,0.0,0.0,0.0,0.0,0.0,0.0,0.0,0.0,0.0,0.0,0.0,0.0,0.0,0.0,0.0,0.0,0.0,0.0,0.0,0.0,0.0,0.0,0.0,0.0,0.0,0.314,0.3375,0.356,0.3718,0.3734,0.3705,0.3632,0.353,0.3354,0.3079,0.0,0.0,0.0,0.0,0.0,0.0,0.0,0.0,0.0,0.0,0.0,0.0,0.0,0.0,0.0,0.0,0.0,0.0,0.0,0.0,0.0,0.0,0.0,0.0,0.0,0.0,0.0,0.0,0.0,0.0,0.0,0.0,0.0,0.0,0.0,0.0,0.0,0.0,0.0,0.0,0.0,0.0,0.0,0.0,0.0,0.0,0.0,0.0,0.0,0.0,0.0,0.0,0.0,0.0,0.0,0.0,0.0,0.0,0.0,0.0,0.0,0.1165,0.0,0.0,0.0,0.0,0.0,0.0,0.0,0.0,0.0,0.0,0.0,0.0,0.0,0.0,0.0,0.0,0.0,0.0,0.0,0.0,0.0,0.0,0.0,0.0,0.0,0.0,0.0,0.0,0.0,0.0,0.0,0.0,0.0,0.0,0.0,0.0,0.0,0.0,0.0,0.0,0.3175,0.3422,0.3612,0.3748,0.3763,0.3744,0.3695,0.3612,0.3462,0.3236,0.3007,0.0,0.0,0.0,0.0,0.0,0.0,0.0,0.0,0.0,0.0,0.0,0.0,0.0,0.0,0.0,0.0,0.0,0.0,0.0,0.0,0.0,0.0,0.0,0.0,0.0,0.0,0.0,0.0,0.0,0.0,0.0,0.0,0.0,0.0,0.0,0.0,0.0,0.0,0.0,0.0,0.0,0.0,0.0,0.0,0.0,0.0,0.0,0.0,0.0,0.0,0.0,0.0,0.0,0.0,0.3166,0.3297,0.3313,0.332,0.3235,0.2189,0.1619,0.1377,0.0,0.0,0.0,0.0,0.0,0.0,0.0,0.0,0.0,0.0,0.0,0.0,0.0,0.0,0.0,0.0,0.0,0.0,0.0,0.0,0.0,0.0,0.0,0.0,0.0,-0.1082,-0.107,0.0,0.0,0.0,0.0,0.0,0.0,0.0,0.0,0.0,0.0,0.0,0.0,0.3228,0.3493,0.3691,0.3799,0.3797,0.3787,0.3787,0.3687,0.3565,0.3418,0.3224,0.2981,0.0,0.0,0.0,0.0,0.0,0.0,0.0,0.0,0.0,0.0,0.0,0.0,0.0,0.0,0.0,0.0,0.0,0.0,0.0,0.0,0.0,0.0,0.0,0.0,0.0,0.0,0.0,0.0,0.0,0.0,0.0,0.0,0.1827,0.2062,0.0,0.0,0.0,0.0,0.0,0.0,0.0,0.0,0.0,0.0,0.0,0.0,0.0,0.0,0.3132,0.3305,0.3377,0.3348,0.3556,0.3628,0.3575,0.3656,0.3693,0.3689,0.3565,0.0,0.2169,0.2109,0.0,0.0,0.0,0.0,0.0,0.0,0.0,0.0,0.0,0.0,0.0,0.0,0.0,0.0,0.0,0.0,0.0,0.0,0.0,0.0,0.0,0.0,-0.1172,-0.1153,-0.1192,-0.1289,0.0,-0.1044,-0.0952,-0.0892,0.0,0.0,0.0,0.0,0.0,0.0,0.0,0.0,0.3347,0.3628,0.381,0.3981,0.3928,0.3881,0.3881,0.3724,0.3616,0.3593,0.335,0.3187,0.314,0.2762,0.0,0.0,0.0,0.0,0.0,0.0,0.0,0.0,0.0,0.0,0.0,0.0,0.0,0.0,0.0,0.0,0.0,0.0,0.0,0.0,0.0,0.0,0.0,0.0,0.0,0.0,0.0,0.0,0.0,0.1837,0.2126,0.2257,0.2236,0.2221,0.0,0.0,0.0,0.0,0.0,0.0,0.0,0.0,0.0,0.3241,0.3234,0.3322,0.345,0.3583,0.3679,0.3742,0.3861,0.3946,0.4006,0.4046,0.4065,0.4065,0.4065,0.3808,0.3405,0.3108,0.2823,0.2502,0.0,0.0,0.0,0.0,0.0,-0.1048,-0.1082,0.0,0.0,0.0,0.0,0.0,0.0,0.0,0.0,0.0,0.0,0.0,0.0,0.0,0.0,-0.1242,-0.1277,-0.1301,-0.1274,-0.1214,-0.1132,0.0,-0.0976,-0.0879,-0.0546,0.0,0.0,0.0,0.0,0.0,0.3465,0.3773,0.3946,0.4028,0.3999,0.3955,0.3903,0.3826,0.3736,0.3632,0.3516,0.3383,0.3232,0.3038,0.2838,0.0,0.0,0.0,0.0,0.0,0.0,0.0,0.0,0.0,0.0,0.0,0.0,0.0,0.0,0.0,0.0,0.0,0.0,0.0,0.0,0.0,0.0,0.0,0.0,0.0,0.0,0.0,0.0,0.2105,0.2363,0.2378,0.2466,0.2487,0.0,0.0,0.0,0.0,0.0,0.0,0.3147,0.3115,0.324,0.3493,0.3589,0.3679,0.3765,0.3879,0.4004,0.4138,0.4163,0.4242,0.4369,0.4369,0.4369,0.4369,0.4369,0.4369,0.4338,0.393,0.3714,0.3553,0.3092,0.2151,0.1124,0.0573,-0.0218,-0.1185,-0.1231,-0.1247,-0.1241,-0.1202,0.0,-0.1143,-0.1078,0.0,0.0,0.0,0.0,-0.117,-0.1231,0.0,-0.131,-0.1341,-0.1371,-0.1391,-0.1384,-0.1358,-0.1296,0.0,-0.1121,-0.0953,-0.0511,0.0,0.0,0.0,0.0,0.3381,0.3631,0.393,0.4079,0.4102,0.4083,0.4042,0.3975,0.3926,0.3842,0.3705,0.3652,0.3536,0.3336,0.3262,0.3101,0.0,0.0,0.0,0.0,0.0,0.0,0.0,0.0,0.0,0.0,0.0,0.0,0.0,0.0,0.0,0.0,0.0,0.0,0.0,0.0,0.0,0.0,0.0,0.0,0.0,0.0,0.0,0.0,0.0,0.0,0.267,0.275,0.0,0.0,0.0,0.0,0.2986,0.3238,0.3367,0.3467,0.3548,0.3679,0.3867,0.3961,0.4053,0.4144,0.4316,0.4406,0.4416,0.4504,0.4551,0.4559,0.4559,0.4559,0.4559,0.4559,0.4559,0.4536,0.4253,0.4085,0.3999,0.3908,0.2782,0.1322,0.1246,0.0161,-0.1254,-0.1256,-0.1257,-0.1345,-0.1369,-0.132,-0.1327,-0.1322,-0.1204,0.0,0.0,-0.1227,-0.1264,-0.1325,-0.1384,-0.1434,-0.1465,-0.1495,-0.1509,-0.148,-0.145,-0.1401,0.0,-0.1245,-0.1203,-0.1124,0.0,0.0582,0.1265,0.2218,0.3171,0.3908,0.4104,0.4197,0.4277,0.4214,0.4165,0.4159,0.3999,0.3895,0.3885,0.3722,0.362,0.3605,0.3362,0.3218,0.3199,0.286,0.0,0.0,0.0,0.0,0.0,0.0,0.0,0.0,0.0,0.0,0.0,0.0,0.0,0.0,0.0,0.0,0.0,0.0,0.0,0.0,0.0,0.0,0.0,0.0,0.0,0.0,0.0,0.0,0.2934,0.3028,0.0,0.0,0.3247,0.3264,0.3379,0.3477,0.3624,0.3834,0.3873,0.3999,0.4236,0.4275,0.4336,0.443,0.4491,0.4553,0.4612,0.4645,0.4689,0.4741,0.4741,0.4741,0.4741,0.4741,0.4741,0.4734,0.4634,0.4475,0.4289,0.4257,0.349,0.24,0.2435,0.1236,-0.0359,-0.0363,-0.0822,-0.1461,-0.1451,-0.1414,-0.1371,-0.1371,-0.1356,-0.1346,-0.1376,-0.1393,-0.141,-0.1452,-0.1478,-0.1496,-0.1507,-0.1518,-0.1523,-0.1512,-0.1501,-0.1484,-0.1453,-0.1367,-0.1287,-0.1248,-0.0546,0.0312,0.1239,0.2158,0.3066,0.402,0.42,0.4265,0.4295,0.4271,0.4232,0.4177,0.4059,0.3963,0.3903,0.3783,0.3689,0.3628,0.3483,0.3348,0.3228,0.3042,0.2803,0.0,0.0,0.0,0.0,0.0,0.0,0.0,0.0,0.0,0.0,0.0,0.0,0.0,0.0,0.0,0.0,0.0,0.0,0.0,0.0,0.0,0.0,0.0,0.0,0.0,0.0,0.3052,0.3169,0.3316,0.342,0.345,0.3509,0.3605,0.3752,0.382,0.3946,0.4159,0.42,0.4297,0.4477,0.451,0.4557,0.4618,0.4647,0.4692,0.4751,0.4751,0.4779,0.4834,0.4834,0.4834,0.4834,0.4834,0.4834,0.4834,0.4834,0.473,0.4567,0.4538,0.3912,0.3022,0.3064,0.1781,0.0,-0.0383,-0.0962,-0.1536,-0.1506,-0.1483,-0.1466,-0.1466,-0.1466,-0.147,-0.1491,-0.1496,-0.1503,-0.1534,-0.1541,-0.1544,-0.1554,-0.1557,-0.1557,-0.1557,-0.1549,-0.1541,-0.1541,-0.1469,-0.1395,-0.1355,-0.0681,0.0086,0.0759,0.1981,0.2998,0.3669,0.4174,0.4391,0.4391,0.4363,0.4322,0.4267,0.4124,0.401,0.395,0.383,0.3722,0.363,0.3544,0.3428,0.3277,0.3124,0.2913,0.2646,0.0,0.0,0.0,0.0,0.0,0.0,0.0,0.0,0.0,0.0,0.0,0.0,0.0,0.0,0.0,0.0,0.0,0.0,0.0,0.0,0.0,0.0,0.0,0.2707,0.3091,0.3375,0.3449,0.3614,0.3742,0.3654,0.381,0.3955,0.4044,0.421,0.4346,0.4438,0.4528,0.4577,0.4581,0.4667,0.4712,0.4712,0.4794,0.4834,0.4834,0.4834,0.4834,0.4834,0.4834,0.4834,0.4834,0.4834,0.4834,0.4834,0.4834,0.4834,0.4826,0.4745,0.4073,0.3143,0.3143,0.1832,-0.0098,-0.1179,-0.1573,-0.1568,-0.1538,-0.1529,-0.1529,-0.1529,-0.1529,-0.1529,-0.1529,-0.1529,-0.1536,-0.1565,-0.1573,-0.158,-0.161,-0.1617,-0.1617,-0.1617,-0.1594,-0.1573,-0.1573,-0.1549,-0.1528,-0.1526,-0.0763,-0.0095,-0.0095,0.1617,0.0,0.3041,0.3901,0.4573,0.4573,0.4491,0.4438,0.4434,0.4193,0.4042,0.4036,0.3867,0.3726,0.3634,0.3548,0.346,0.3371,0.3168,0.2924,0.284,0.0,0.0,0.0,0.0,0.0,0.0,0.0,0.0,0.0,0.0,0.0,0.0,0.0,0.0,0.0,0.0,0.0,0.0,0.0,0.0,0.0,0.0,0.3156,0.3089,0.3352,0.3603,0.3736,0.393,0.4069,0.411,0.422,0.4326,0.4418,0.4469,0.4538,0.4628,0.4657,0.47,0.4761,0.4787,0.48,0.48,0.4822,0.4834,0.4834,0.4834,0.4834,0.4834,0.4834,0.4834,0.4834,0.4834,0.4834,0.4834,0.4834,0.4834,0.4832,0.481,0.4583,0.4362,0.4362,0.2985,0.09,-0.1002,-0.1605,-0.1603,-0.1594,-0.1592,-0.1592,-0.1592,-0.1592,-0.1592,-0.1592,-0.1592,-0.1594,-0.1602,-0.1605,-0.1607,-0.1615,-0.1617,-0.1617,-0.1617,-0.161,-0.1605,-0.1605,-0.1598,-0.1578,-0.1534,-0.124,-0.0858,-0.0191,0.0,0.0,0.2947,0.3901,0.4573,0.4573,0.4551,0.4508,0.444,0.4308,0.4171,0.0,0.3926,0.382,0.373,0.3638,0.355,0.3465,0.3324,0.3207,0.0,0.0,0.0,0.0,0.0,0.0,0.0,0.0,0.0,0.0,0.0,0.0,0.0,0.0,0.0,0.0,0.0,0.0,0.0,0.0,0.0,0.0,0.3262,0.3509,0.3609,0.3756,0.3908,0.405,0.4226,0.4355,0.4408,0.4461,0.453,0.4622,0.4628,0.4667,0.4757,0.4761,0.4783,0.4832,0.4834,0.4834,0.4834,0.4834,0.4834,0.4834,0.4834,0.4834,0.4834,0.4834,0.4834,0.0,0.4834,0.4834,0.4834,0.4834,0.4834,0.0,0.0,0.0,0.0,0.0,0.272,0.1311,-0.0808,-0.1617,-0.1617,-0.1617,-0.1617,-0.1617,-0.1617,-0.1617,-0.1617,-0.1617,-0.1617,-0.1617,-0.1617,-0.1617,-0.1617,-0.1617,-0.1617,-0.1617,-0.1617,-0.1617,-0.1617,-0.1617,0.0,0.0,-0.157,-0.1564,-0.1368,-0.0782,0.0195,0.1268,0.0,0.3315,0.4195,0.4681,0.4651,0.4608,0.4555,0.4395,0.0,0.0,0.0,0.3897,0.3769,0.364,0.0,0.0,0.0,0.0,0.0,0.0,0.0,0.0,0.3181,0.3087,0.0,0.0,0.0,0.0,0.0,0.0,0.0,0.0,0.0,0.0,0.0,0.0,0.0,0.0,0.0,0.0,0.3505,0.3805,0.414,0.4214,0.4257,0.4322,0.4483,0.4587,0.4587,0.4596,0.4634,0.4716,0.4724,0.4755,0.483,0.0,0.0,0.0,0.0,0.4834,0.4834,0.4834,0.4834,0.4834,0.4834,0.4834,0.4834,0.4845,0.4851,0.4851,0.4861,0.4859,0.4851,0.4851,0.4845,0.4834,0.4834,0.4834,0.4533,0.2418,0.1613,0.0,0.0,0.0,0.0,-0.1617,-0.1617,-0.1617,-0.1617,-0.1617,-0.1617,-0.1617,-0.1617,-0.1617,-0.1617,-0.1617,-0.1617,-0.1617,-0.1617,-0.1617,-0.1617,-0.1617,-0.1617,-0.1617,-0.1617,-0.1617,-0.1617,-0.1617,-0.1617,-0.1617,-0.0706,0.0,0.1513,0.2519,0.3626,0.4734,0.0,0.0,0.471,0.4485,0.4336,0.4316,0.4159,0.3993,0.383,0.3673,0.3626,0.3701,0.3701,0.3781,0.3944,0.3944,0.3991,0.4069,0.3567,0.346,0.0,0.0,0.0,0.0,0.0,0.0,0.0,0.0,0.0,0.0,0.0,0.0,0.0,0.0,0.0,0.353,0.384,0.4116,0.4255,0.4465,0.4583,0.4526,0.4616,0.4683,0.4683,0.4745,0.4792,0.481,0.481,0.4818,0.4832,0.4834,0.0,0.4834,0.4834,0.4834,0.4834,0.4834,0.4834,0.4834,0.0,0.0,0.4836,0.4912,0.4945,0.4949,0.5022,0.5014,0.4945,0.4945,0.4902,0.4834,0.4834,0.4834,0.4533,0.2418,0.1613,0.1311,-0.0808,-0.1617,-0.1617,-0.1617,-0.1617,-0.1617,-0.1617,-0.1617,0.0,-0.1617,-0.1617,-0.1617,-0.1617,-0.1617,-0.1617,-0.1617,-0.1617,-0.1617,-0.1617,-0.1617,-0.1617,-0.1617,-0.1617,-0.1617,-0.1617,-0.1617,-0.1617,-0.1617,-0.0706,0.0403,0.1513,0.2519,0.3626,0.4734,0.482,0.4783,0.4714,0.4661,0.4567,0.4418,0.4308,0.4232,0.4197,0.4163,0.4153,0.4169,0.4169,0.4187,0.4222,0.4222,0.4269,0.4353,0.4104,0.4018,0.0,0.0,0.0,0.0,0.0,0.0,0.0,0.0,0.0,0.0,0.0,0.3306,0.0,0.0,0.3691,0.3871,0.4089,0.43,0.4479,0.4622,0.4692,0.4647,0.4718,0.4771,0.4771,0.481,0.4834,0.4834,0.4834,0.4834,0.4834,0.4834,0.4834,0.4834,0.4834,0.4857,0.4904,0.4904,0.4926,0.4971,0.4971,0.4971,0.4973,0.5018,0.5041,0.5043,0.5088,0.5081,0.5041,0.5041,0.5012,0.4971,0.4971,0.4916,0.4533,0.2418,0.1613,0.1311,-0.0808,-0.1617,-0.1617,-0.1617,-0.1617,-0.1617,-0.1617,-0.1617,-0.1617,-0.1617,-0.1617,-0.1617,-0.1617,-0.1617,-0.1617,-0.1617,-0.1617,-0.1617,-0.1617,-0.1617,-0.1617,-0.1617,-0.1617,-0.1617,-0.1617,-0.1617,-0.1617,-0.1617,-0.0706,0.0403,0.1513,0.2519,0.3626,0.4734,0.4834,0.4818,0.4775,0.4732,0.4651,0.4512,0.4418,0.4367,0.4367,0.4322,0.432,0.4365,0.4367,0.4389,0.4436,0.4436,0.4483,0.4569,0.4481,0.4416,0.0,0.0,0.0,0.0,0.0,0.0,0.0,0.0,0.347,0.3448,0.3562,0.3634,0.3639,0.3814,0.394,0.4161,0.43,0.4455,0.4677,0.4722,0.4732,0.4732,0.4794,0.4834,0.4834,0.4834,0.4834,0.4834,0.4834,0.4834,0.4834,0.4834,0.4843,0.4861,0.4861,0.4906,0.4998,0.4998,0.5037,0.5108,0.5108,0.5108,0.5108,0.5126,0.5135,0.5135,0.5135,0.5135,0.5132,0.5116,0.5108,0.5108,0.5108,0.4808,0.4277,0.2342,0.1427,0.1019,-0.0918,-0.1634,-0.1634,-0.1634,-0.1634,-0.1634,-0.1634,-0.163,-0.1626,-0.1626,-0.1622,-0.1617,-0.1617,-0.1617,-0.1617,-0.1617,-0.1617,-0.1617,-0.1617,-0.1617,-0.1617,-0.1617,-0.1617,-0.1617,-0.1617,-0.1617,-0.1617,-0.1617,-0.0908,0.0202,0.1412,0.2318,0.3425,0.4634,0.4834,0.4834,0.4834,0.4773,0.4702,0.4628,0.4555,0.4512,0.4512,0.4442,0.4436,0.451,0.4512,0.4549,0.4624,0.4624,0.4661,0.4734,0.4751,0.471,0.695,0.6369,0.0,0.5266,0.4796,0.4427,0.0,0.0,0.4514,0.4413,0.4394,0.4318,0.4174,0.4151,0.4249,0.4279,0.4498,0.4673,0.4704,0.4773,0.482,0.482,0.4828,0.4834,0.4834,0.4834,0.4834,0.4834,0.4834,0.4834,0.4834,0.4834,0.4871,0.4953,0.4955,0.5,0.5092,0.5092,0.5098,0.5108,0.5108,0.5108,0.5112,0.5192,0.5228,0.5228,0.5228,0.5228,0.5222,0.5141,0.5108,0.5108,0.5108,0.4459,0.3279,0.2114,0.1058,-0.0106,-0.127,-0.1695,-0.1695,-0.1695,-0.1695,-0.1695,-0.1695,-0.1677,-0.1657,-0.1657,-0.1638,-0.1617,-0.1617,-0.1617,-0.1617,-0.1617,-0.1617,-0.1617,-0.1617,-0.1617,-0.1617,-0.1617,-0.1617,-0.1617,-0.1617,-0.1617,-0.1617,-0.1617,-0.1515,-0.0707,0.1311,0.1714,0.2519,0.4632,0.4834,0.4834,0.4834,0.4826,0.4816,0.4806,0.4796,0.479,0.479,0.4779,0.4779,0.479,0.479,0.4794,0.4806,0.4806,0.481,0.4822,0.4904,0.4894,0.7234,0.0,0.0,0.0,0.4865,0.4665,0.4613,0.4651,0.4667,0.4545,0.4498,0.4475,0.4227,0.4322,0.4395,0.0,0.46,0.4726,0.4775,0.4812,0.4834,0.4834,0.4834,0.4834,0.4834,0.4834,0.4834,0.4834,0.4883,0.4914,0.4914,0.4965,0.5012,0.5051,0.5051,0.5096,0.5186,0.5188,0.5214,0.5267,0.5267,0.5267,0.5269,0.5306,0.5324,0.5324,0.5324,0.5324,0.532,0.5284,0.5267,0.5267,0.5267,0.4057,0.2405,0.1928,0.0957,-0.0213,-0.1278,-0.1704,-0.1704,-0.1704,-0.1704,-0.1704,-0.1704,-0.1696,-0.1686,-0.1686,-0.1677,-0.1667,-0.1667,-0.1667,-0.1667,-0.1667,-0.1667,-0.1667,-0.1667,-0.1667,-0.1667,-0.1667,-0.1667,-0.1662,-0.1646,-0.1643,-0.1637,-0.162,-0.1111,-0.0101,0.1412,0.2116,0.3123,0.4634,0.4834,0.4834,0.4834,0.4834,0.4834,0.4834,0.4834,0.4834,0.4834,0.4834,0.4834,0.4834,0.4834,0.4861,0.4914,0.4914,0.4943,0.4994,0.5032,0.503,0.6936,0.0,0.0,0.515,0.4926,0.4762,0.4792,0.491,0.4862,0.4695,0.4688,0.464,0.4382,0.4443,0.0,0.4561,0.4669,0.4765,0.4826,0.4834,0.4834,0.4834,0.4834,0.4834,0.4834,0.4834,0.4834,0.4834,0.492,0.4971,0.4971,0.5059,0.512,0.5145,0.5145,0.519,0.5282,0.5282,0.5316,0.5382,0.5382,0.5382,0.5382,0.5382,0.5382,0.5382,0.5382,0.5382,0.5382,0.5382,0.5382,0.5382,0.5382,0.392,0.1786,0.1742,0.0755,-0.0648,-0.1405,-0.1729,-0.1729,-0.1729,-0.1729,-0.1729,-0.1729,-0.1723,-0.1717,-0.1717,-0.1711,-0.1704,-0.1704,-0.1704,-0.1704,-0.1704,-0.1704,-0.1704,-0.1704,-0.1704,-0.1704,-0.1704,-0.1704,-0.1697,-0.1677,-0.1674,-0.1667,-0.1644,-0.0922,-0.0102,0.1009,0.2429,0.3661,0.4804,0.491,0.491,0.491,0.491,0.491,0.491,0.491,0.491,0.491,0.491,0.491,0.491,0.491,0.4943,0.501,0.501,0.5043,0.5108,0.5135,0.5145,0.0,0.0,0.5807,0.5524,0.5265,0.5034,0.5146,0.5358,0.5448,0.519,0.5285,0.5188,0.4746,0.4811,0.4847,0.4666,0.4718,0.483,0.4834,0.4834,0.4834,0.4834,0.4834,0.4834,0.0,0.4834,0.4834,0.4834,0.492,0.4971,0.4971,0.5059,0.5149,0.5237,0.5241,0.5284,0.5375,0.5377,0.5377,0.5382,0.5382,0.5382,0.5382,0.5382,0.5382,0.5382,0.5382,0.5382,0.5382,0.5382,0.5382,0.5382,0.5382,0.392,0.1791,0.1789,0.0336,-0.1792,-0.1792,-0.1792,-0.1792,-0.1792,-0.1792,-0.1792,-0.1792,-0.1772,-0.1748,-0.1748,-0.1727,-0.1704,-0.1704,-0.1704,-0.1704,-0.1704,-0.1704,-0.1704,-0.1704,-0.1704,-0.1704,-0.1704,-0.1704,-0.1704,-0.1703,-0.1703,-0.1703,-0.1701,-0.1701,-0.126,-0.0101,0.2046,0.3855,0.4984,0.51,0.51,0.51,0.51,0.51,0.51,0.51,0.51,0.51,0.51,0.51,0.51,0.51,0.51,0.5104,0.5104,0.5104,0.511,0.52,0.5241,0.0,0.0,0.6083,0.6222,0.5746,0.5379,0.5417,0.5556,0.5582,0.5403,0.52,0.5024,0.4739,0.4621,0.452,0.4553,0.4673,0.4771,0.4826,0.4834,0.4834,0.4834,0.4834,0.0,0.0,0.0,0.0,0.492,0.501,0.5088,0.5149,0.5239,0.5304,0.5335,0.5335,0.5349,0.5382,0.5382,0.5382,0.5382,0.5382,0.5382,0.5382,0.5382,0.5382,0.5382,0.5382,0.5382,0.5382,0.5382,0.5382,0.527,0.448,0.3246,0.168,0.0896,-0.0448,-0.1795,-0.1795,-0.1795,-0.1795,-0.1795,-0.1795,-0.1795,-0.1795,-0.1788,-0.178,-0.178,-0.1772,-0.1765,-0.1765,-0.1765,-0.1765,-0.1765,-0.1765,-0.1765,-0.1765,-0.1765,-0.1765,-0.1765,-0.1765,-0.1758,-0.1737,-0.1734,-0.1727,-0.1707,-0.1065,-0.053,-0.0105,0.1891,0.3488,0.3828,0.4576,0.5108,0.5108,0.5108,0.5108,0.5108,0.5108,0.5108,0.5108,0.5108,0.5108,0.5108,0.5108,0.5137,0.5198,0.5198,0.523,0.529,0.5322,0.5335,0.0,0.7016,0.6485,0.6293,0.5852,0.5475,0.5518,0.5643,0.5579,0.5489,0.5224,0.491,0.4718,0.4496,0.4401,0.4493,0.46,0.4702,0.4818,0.4834,0.4834,0.4834,0.4863,0.0,0.0,0.0,0.0,0.4967,0.5057,0.5147,0.5239,0.5333,0.5382,0.5382,0.5382,0.5382,0.5382,0.5412,0.5443,0.5475,0.5475,0.5475,0.5475,0.5475,0.5475,0.5473,0.5441,0.5426,0.5426,0.5426,0.5426,0.5316,0.4093,0.3191,0.2393,0.1141,-0.0114,-0.1139,-0.169,-0.1795,-0.1795,-0.1795,-0.1795,-0.1795,-0.1795,-0.1795,-0.1795,-0.1795,-0.1795,-0.1795,-0.1795,-0.1795,-0.1795,-0.1795,-0.1795,-0.1795,-0.1795,-0.1795,-0.1795,-0.1795,-0.1795,-0.1789,-0.1769,-0.1765,-0.1759,-0.174,-0.1194,-0.0541,-0.0108,0.1182,0.2476,0.3358,0.4118,0.477,0.5206,0.5206,0.5206,0.5206,0.5206,0.5206,0.5206,0.5206,0.5206,0.5206,0.5206,0.5235,0.5294,0.5294,0.5324,0.5382,0.5382,0.5398,0.6776,0.6768,0.7089,0.5893,0.5559,0.5502,0.5706,0.564,0.5462,0.5456,0.5268,0.5015,0.0,0.0,0.4476,0.4398,0.451,0.4634,0.481,0.4839,0.4843,0.0,0.0,0.0,0.0,0.0,0.0,0.4986,0.0,0.5151,0.5247,0.5335,0.5384,0.5388,0.5388,0.539,0.5396,0.5475,0.5557,0.5643,0.5643,0.5643,0.5643,0.5643,0.5643,0.5639,0.5553,0.5514,0.5514,0.5514,0.5514,0.5408,0.4206,0.3762,0.3763,0.2352,0.1176,-0.0117,-0.125,-0.18,-0.18,-0.18,-0.18,-0.18,-0.18,-0.18,-0.18,-0.18,-0.18,-0.1799,-0.1797,-0.1797,-0.1797,-0.1795,-0.1795,-0.1795,-0.1795,-0.1795,-0.1795,-0.1795,-0.1795,-0.1795,-0.1795,-0.1795,-0.1795,-0.1795,-0.1795,-0.1338,-0.0219,-0.0,0.088,0.3128,0.358,0.403,0.5156,0.5382,0.5382,0.5382,0.5382,0.5382,0.5382,0.5382,0.5382,0.5382,0.5382,0.5382,0.5382,0.5382,0.5384,0.5388,0.5388,0.5433,0.8613,0.8171,0.7796,0.6937,0.6122,0.5695,0.5727,0.564,0.5526,0.5434,0.5002,0.4542,0.0,0.0,0.0,0.4293,0.4469,0.0,0.481,0.4894,0.0,0.0,0.0,0.5073,0.5073,0.5073,0.0,0.0,0.5132,0.5177,0.5339,0.5369,0.541,0.5473,0.5475,0.5508,0.5576,0.5598,0.562,0.5643,0.5643,0.5643,0.5643,0.5643,0.5643,0.5643,0.562,0.5608,0.5608,0.5608,0.5608,0.5494,0.4344,0.388,0.3762,0.2468,0.1175,0.0,-0.0233,-0.1046,-0.1863,-0.1863,-0.1863,-0.1863,-0.1863,-0.1863,-0.1863,-0.1863,-0.1863,-0.1857,-0.1835,-0.1829,-0.1823,-0.18,-0.1795,-0.1795,-0.1795,-0.1795,-0.1795,-0.1795,-0.1795,-0.1795,-0.1795,-0.1795,-0.1795,-0.1795,-0.1795,-0.168,-0.1338,-0.0557,0.0223,0.0896,0.2574,0.3692,0.403,0.4929,0.5382,0.5382,0.5382,0.5382,0.5382,0.5382,0.5382,0.5382,0.5382,0.5382,0.5382,0.5382,0.5414,0.5475,0.5475,0.5522,0.8446,0.8021,0.7577,0.6847,0.6207,0.5779,0.5678,0.5518,0.5341,0.517,0.4673,0.0,0.0,0.0,0.0,0.0,0.0,0.0,0.4804,0.4914,0.4971,0.0,0.5088,0.0,0.5167,0.5167,0.5206,0.0,0.5218,0.5247,0.5429,0.5437,0.5478,0.5563,0.5567,0.5612,0.5702,0.5704,0.5725,0.5763,0.5763,0.5763,0.5763,0.5763,0.5763,0.5761,0.0,0.5704,0.5704,0.5704,0.5704,0.5588,0.4427,0.42,0.4682,0.3358,0.2039,0.096,0.096,-0.036,-0.1921,-0.1894,-0.1886,-0.1886,-0.1886,-0.1886,-0.1886,-0.1886,-0.1886,-0.1882,-0.1865,-0.186,-0.1856,-0.1839,-0.1835,-0.1835,-0.1835,-0.1835,-0.1835,-0.1835,-0.1835,-0.1831,-0.1817,-0.1814,-0.181,-0.1797,-0.1795,-0.1795,-0.1795,-0.1234,-0.0561,-0.0112,0.1232,0.2463,0.3469,0.4254,0.4817,0.5382,0.5382,0.5382,0.5382,0.5382,0.54,0.5437,0.5437,0.5455,0.5496,0.5496,0.552,0.5567,0.5567,0.5616,0.7432,0.7168,0.7109,0.6312,0.5983,0.5836,0.5583,0.5339,0.5091,0.4763,0.0,0.0,0.4018,0.0,0.3834,0.411,0.0,0.4528,0.4796,0.4924,0.499,0.499,0.5151,0.5263,0.5263,0.5263,0.5296,0.5375,0.5308,0.5335,0.5498,0.5508,0.5555,0.5659,0.5674,0.5718,0.5798,0.5798,0.5839,0.5916,0.5916,0.5916,0.5916,0.5916,0.5916,0.5912,0.0,0.0,0.5798,0.5798,0.5798,0.5686,0.4653,0.4925,0.5794,0.4555,0.3199,0.1969,0.1969,0.0246,-0.1968,-0.1915,-0.1898,-0.1898,-0.1898,-0.1898,-0.1898,-0.1898,-0.1898,-0.1897,-0.1893,-0.1892,-0.1891,-0.1887,-0.1886,-0.1886,-0.1886,-0.1886,-0.1886,-0.1886,-0.1886,-0.1877,-0.1851,-0.1847,-0.1838,-0.1811,-0.1807,-0.1807,-0.1807,-0.18,-0.1347,-0.0337,-0.0112,0.09,0.3154,0.3493,0.4169,0.5304,0.5416,0.5416,0.5416,0.5416,0.5451,0.5524,0.5524,0.5563,0.5643,0.5643,0.5649,0.5661,0.5661,0.571,0.741,0.7242,0.7086,0.6204,0.5918,0.5814,0.5477,0.5135,0.0,0.0,0.0,0.359,0.3506,0.3572,0.0,0.4014,0.0,0.0,0.0,0.0,0.5084,0.0,0.0,0.0,0.0,0.0,0.0,0.0,0.0,0.0,0.5502,0.5508,0.5584,0.5751,0.5831,0.5878,0.5894,0.5894,0.5902,0.5916,0.5916,0.5916,0.5916,0.5916,0.5916,0.5916,0.0,0.0,0.5894,0.5894,0.5894,0.5894,0.5663,0.5669,0.5916,0.5669,0.4063,0.1969,0.1969,0.0246,-0.1975,-0.1964,-0.1961,-0.1961,-0.1961,-0.1961,-0.1961,-0.1961,-0.1961,-0.1955,-0.193,-0.1923,-0.1917,-0.1892,-0.1886,-0.1886,-0.1886,-0.1886,-0.1886,-0.1886,-0.1886,-0.1884,-0.1879,-0.1878,-0.1876,-0.187,-0.187,-0.187,-0.187,-0.1826,-0.1692,-0.1487,-0.0572,0.0575,0.2097,0.3148,0.4197,0.5482,0.5598,0.5598,0.5598,0.5598,0.5604,0.562,0.562,0.5629,0.5643,0.5643,0.5682,0.5757,0.5757,0.5806,0.6844,0.6692,0.6655,0.6186,0.5996,0.5793,0.5371,0.0,0.0,0.0,0.0,0.3407,0.3423,0.0,0.0,0.0,0.0,0.0,0.0,0.0,0.0,0.0,0.0,0.0,0.0,0.0,0.0,0.0,0.0,0.0,0.5571,0.5669,0.5761,0.5849,0.5894,0.5916,0.5916,0.5916,0.5916,0.5916,0.5916,0.5916,0.5916,0.5916,0.5916,0.5916,0.5916,0.0,0.5916,0.5916,0.5544,0.4802,0.4802,0.4433,0.394,0.4556,0.32,0.1109,0.1724,0.0246,-0.1977,-0.1977,-0.1977,-0.1977,-0.1977,-0.1977,-0.1977,-0.1977,-0.1977,-0.1973,-0.1959,-0.1955,-0.1951,-0.1937,-0.1933,-0.1933,-0.1933,-0.1933,-0.1933,-0.1933,-0.1933,-0.1928,-0.1912,-0.1909,-0.1904,-0.1888,-0.1886,-0.1886,-0.1886,-0.186,-0.1848,-0.1862,-0.128,-0.0233,0.1764,0.247,0.3527,0.5526,0.5643,0.5643,0.5643,0.5643,0.5665,0.5714,0.5716,0.5739,0.5786,0.5786,0.5808,0.5853,0.5853,0.5876,0.6199,0.6157,0.623,0.623,0.6064,0.5771,0.5265,0.4717,0.0,0.0,0.0,0.0,0.3319,0.0,0.0,0.0,0.0,0.0,0.0,0.0,0.0,0.0,0.0,0.0,0.0,0.0,0.0,0.0,0.0,0.0,0.5635,0.5816,0.5916,0.5916,0.5669,0.5421,0.5421,0.5174,0.5051,0.5051,0.5051,0.5051,0.5051,0.5051,0.5174,0.5421,0.5421,0.0,0.0,0.5916,0.5297,0.4307,0.406,0.3322,0.2461,0.3199,0.197,0.0123,0.1231,0.0,-0.1977,-0.1977,-0.1977,-0.1977,-0.1977,-0.1977,-0.1977,-0.1977,-0.1977,-0.1977,-0.1977,-0.1977,-0.1977,-0.1977,-0.1977,-0.1977,-0.1977,-0.1977,-0.1977,-0.1977,-0.1977,-0.1969,-0.1945,-0.1941,-0.1933,-0.1909,-0.1905,-0.1905,-0.1905,-0.1905,-0.1905,-0.1905,-0.1899,-0.0948,0.1307,0.1782,0.285,0.5104,0.5463,0.5702,0.5702,0.5702,0.5737,0.5808,0.581,0.5845,0.5916,0.5916,0.5916,0.5916,0.5937,0.5947,0.5991,0.6094,0.6102,0.6102,0.6002,0.5749,0.5167,0.0,0.0,0.0,0.3279,0.3028,0.3028,0.0,0.0,0.0,0.0,0.0,0.0,0.0,0.0,0.0,0.0,0.0,0.0,0.0,0.0,0.0,0.0,0.0,0.0,0.5816,0.5916,0.5916,0.4679,0.406,0.406,0.2954,0.2339,0.2339,0.2339,0.2339,0.2339,0.2339,0.2954,0.406,0.0,0.0,0.0,0.5916,0.5794,0.5546,0.443,0.3813,0.3568,0.2584,0.1231,0.0,0.0123,-0.074,-0.1977,-0.1977,-0.1977,-0.1977,-0.1977,-0.1977,-0.1977,-0.1977,-0.1977,-0.1977,-0.1977,-0.1977,-0.1977,-0.1977,-0.1977,-0.1977,-0.1977,-0.1977,-0.1977,-0.1977,-0.1977,-0.1975,-0.1973,-0.1973,-0.1971,-0.1969,-0.1968,-0.1968,-0.1968,-0.1968,-0.1968,-0.1968,-0.1943,-0.1331,0.0,0.1349,0.2573,0.3921,0.5152,0.5892,0.5892,0.5892,0.5896,0.5904,0.5904,0.5908,0.5916,0.5916,0.5916,0.5919,0.6002,0.6041,0.5795,0.5977,0.6067,0.5994,0.5833,0.5486,0.4957,0.0,0.0,0.3377,0.314,0.3015,0.3015,0.3134,0.0,0.0,0.0,0.0,0.0,0.0,0.0,0.0,0.0,0.0,0.0,0.0,0.0,0.0,0.0,0.0,0.0,0.454,0.4619,0.4619,0.343,0.2707,0.2707,0.2215,0.1969,0.1969,0.1969,0.1969,0.1969,0.1969,0.2216,0.2707,0.0,0.0,0.0,0.4432,0.3817,0.234,0.2708,0.1724,0.037,0.0739,-0.0,-0.1111,-0.0247,-0.0863,-0.1977,-0.1977,-0.1977,-0.1977,-0.1977,-0.1977,-0.1977,-0.1977,-0.1977,-0.1977,-0.1977,-0.1977,-0.1977,-0.1977,-0.1977,-0.1977,-0.1977,-0.1977,-0.1977,-0.1977,-0.1977,-0.1977,-0.1977,-0.1977,-0.1977,-0.1977,-0.1977,-0.1977,-0.1977,-0.1977,-0.1977,-0.1977,-0.1966,-0.1471,-0.0123,0.1231,0.2584,0.3813,0.5218,0.5998,0.5998,0.5998,0.5998,0.5998,0.5945,0.5945,0.5998,0.5998,0.6025,0.6076,0.6112,0.6129,0.5594,0.5828,0.5969,0.5915,0.5636,0.5283,0.0,0.0,0.3643,0.3342,0.3098,0.3024,0.3051,0.299,0.2667,0.0,0.0,0.0,0.0,0.0,0.0,0.0,0.0,0.0,0.0,0.0,0.0,0.0,0.0,0.0,0.0,0.2807,0.2855,0.3226,0.2053,0.1458,0.1458,0.1093,0.0852,0.0856,0.0856,0.0858,0.0862,0.0862,0.0985,0.1354,0.0,0.0,0.0,0.2953,0.2215,0.0616,0.1231,0.0246,-0.1358,-0.074,-0.1234,-0.1853,-0.0864,-0.1234,-0.1977,-0.1977,-0.1977,-0.1977,-0.1977,-0.1977,-0.1977,-0.1977,-0.1977,-0.1977,-0.1977,-0.1977,-0.1977,-0.1977,-0.1977,-0.1977,-0.1977,-0.1977,-0.1977,-0.1977,-0.1977,-0.1977,-0.1977,-0.1977,-0.1977,-0.1977,-0.1977,-0.1977,-0.1977,-0.1977,-0.1979,-0.1988,-0.1989,-0.1616,-0.0621,0.062,0.1987,0.3242,0.4665,0.5573,0.593,0.6078,0.608,0.6053,0.6014,0.6027,0.609,0.609,0.6123,0.6182,0.6208,0.6235,0.5339,0.5643,0.5763,0.5874,0.5544,0.5111,0.0,0.4065,0.3469,0.3434,0.3205,0.3043,0.3073,0.2633,0.1981,0.0,0.0,0.0,0.0,0.0,0.0,0.0,0.0,0.0,0.0,0.0,0.0,0.0,0.0,0.0,0.0,0.0683,0.0694,0.2113,0.0823,0.0118,0.0118,-0.1178,-0.1902,-0.181,-0.181,-0.1947,-0.1977,-0.1977,-0.1234,0.0,0.0,0.0,0.0,0.197,0.197,0.1847,0.0493,0.0,-0.0123,-0.1481,-0.1977,-0.1977,-0.1977,-0.1977,-0.1977,-0.1977,-0.1977,-0.1977,-0.1977,-0.1977,-0.1977,-0.1977,-0.1977,-0.1977,-0.1977,-0.1977,-0.1977,-0.1977,-0.1977,-0.1977,-0.1977,-0.1977,-0.1977,-0.1977,-0.1977,-0.1977,-0.1977,-0.1977,-0.1977,-0.1977,-0.1977,-0.1977,-0.1977,-0.1977,-0.1987,-0.2015,-0.2018,-0.2018,-0.2018,-0.0756,0.0634,0.2057,0.3345,0.4605,0.5932,0.6133,0.6139,0.6055,0.6135,0.6178,0.618,0.618,0.618,0.6182,0.6272,0.6364,0.477,0.5023,0.5233,0.5184,0.4954,0.4696,0.4363,0.3837,0.3387,0.3226,0.2704,0.2299,0.2306,0.1846,0.1178,0.0303,0.0,0.0,0.0,0.0,0.0,0.0,0.0,0.0,0.0,0.0,0.0,0.0,0.0,0.0,0.0,0.0225,0.0228,0.0693,-0.0585,-0.1295,-0.1295,-0.165,-0.1891,-0.19,-0.19,-0.1905,-0.1915,-0.1915,0.0,0.0,0.0,0.0,0.0,0.0242,0.0121,-0.0608,-0.0123,-0.0617,-0.1358,-0.1853,-0.1977,-0.1977,-0.1977,-0.1977,-0.1977,-0.1977,-0.1977,-0.1977,-0.1977,-0.1977,-0.1977,-0.1977,-0.1977,-0.1977,-0.1977,-0.1977,-0.1977,-0.1977,-0.1977,-0.1977,-0.1977,-0.1977,-0.1977,-0.1977,-0.1977,-0.1977,-0.1977,-0.1992,-0.2005,-0.2005,-0.2023,-0.2036,-0.2036,-0.2036,-0.2039,-0.2048,-0.205,-0.205,-0.205,-0.0896,0.0128,0.0515,0.2859,0.4303,0.4803,0.5738,0.6261,0.6233,0.6198,0.621,0.6274,0.6274,0.6304,0.6368,0.6396,0.5889,0.0,0.46,0.4806,0.4743,0.4563,0.4266,0.4049,0.3396,0.2891,0.273,0.2122,0.1555,0.1666,0.1121,0.0483,-0.0,0.0,0.0,0.0,0.0,0.0,0.0,0.0,0.0,0.0,0.0,0.0,0.0,0.0,0.0,0.0,0.0,-0.0676,-0.0682,-0.1495,-0.1851,-0.1851,-0.1851,-0.1857,-0.1868,-0.1868,-0.1874,-0.1886,-0.1886,0.0,0.0,0.0,0.0,0.0,-0.1071,-0.1199,-0.1812,-0.0975,-0.1228,-0.1977,-0.1977,-0.1977,-0.1977,-0.1977,-0.1977,-0.1977,-0.1977,-0.1977,-0.1977,-0.1977,-0.1977,-0.1977,-0.1977,-0.1977,-0.1977,-0.1977,-0.1977,-0.1977,-0.1977,-0.1977,-0.1977,-0.1977,-0.1977,-0.1979,-0.199,-0.1992,-0.1996,-0.2007,-0.2024,-0.2035,-0.2035,-0.2052,-0.2064,-0.2064,-0.2064,-0.2068,-0.208,-0.2081,-0.2086,-0.2097,-0.1305,-0.0652,-0.0131,0.1583,0.3042,0.421,0.5025,0.5822,0.6317,0.6294,0.6313,0.6368,0.6368,0.6131,0.5646,0.5646,0.4838,0.0,0.4159,0.4287,0.4488,0.4166,0.3758,0.3646,0.2863,0.0,0.2044,0.1475,0.093,0.1027,0.0395,-0.0068,0.0,0.0,0.0,0.0,0.0,0.0,0.0,0.0,0.0,0.0,0.0,0.0,0.0,0.0,0.0,0.0,0.0,-0.1795,-0.1795,-0.1795,-0.1795,-0.1795,-0.1795,-0.1809,-0.1837,-0.1837,-0.1852,-0.1879,-0.1879,0.0,0.0,0.0,0.0,0.0,-0.1881,-0.1899,-0.1925,-0.1929,-0.1948,-0.1974,-0.1976,-0.1977,-0.1977,-0.1977,-0.1977,-0.1977,-0.1977,-0.1977,-0.1977,-0.1977,-0.1977,-0.1977,-0.1977,-0.1977,-0.1977,-0.1977,-0.1977,-0.1977,-0.1977,-0.1977,-0.1977,-0.1977,-0.1978,-0.1988,-0.2013,-0.202,-0.2031,-0.2059,-0.2065,-0.2067,-0.2067,-0.2069,-0.207,-0.207,-0.207,-0.2081,-0.211,-0.2112,-0.2124,-0.2152,-0.2129,-0.1592,-0.0269,-0.0,0.1202,0.3823,0.4003,0.4674,0.5931,0.6275,0.6319,0.6183,0.6319,0.5646,0.4166,0.4166,0.3357,0.1874,0.0,0.2428,0.2852,0.2498,0.2131,0.0,0.1911,0.0,0.0,0.0,0.0,0.0,0.0,0.0,0.0,0.0,0.0,0.0,0.0,0.0,0.0,0.0,0.0,0.0,0.0,0.0,0.0,0.0,0.0,0.0,0.0,-0.1795,-0.1795,-0.1795,-0.1795,-0.1795,-0.1795,-0.1798,-0.1806,-0.1806,-0.1809,-0.1817,-0.1817,0.0,0.0,0.0,0.0,-0.1818,-0.1841,-0.1855,-0.1866,-0.1913,-0.1936,-0.1945,-0.1968,-0.1977,-0.1977,-0.1977,-0.1977,-0.1977,-0.1977,-0.1977,-0.1977,-0.1977,-0.1977,-0.1977,-0.1977,-0.1977,-0.1977,-0.1977,-0.1977,-0.1977,-0.1977,-0.1977,-0.1977,-0.1977,-0.1993,-0.201,-0.2017,-0.2037,-0.2056,-0.2063,-0.2083,-0.2098,-0.2098,-0.2119,-0.2133,-0.2133,-0.2133,-0.2136,-0.2143,-0.2144,-0.2147,-0.2154,-0.2148,-0.2012,-0.1749,-0.0672,0.0268,0.0936,0.201,0.2815,0.3072,0.4292,0.4298,0.3088,0.4298,0.403,0.2551,0.2551,0.188,0.0286,0.0891,0.1535,0.1839,0.1613,0.1315,0.1666,0.0,0.0,0.0,0.0,0.0,0.0,0.0,0.0,0.0,0.0,0.0,0.0,0.0,0.0,0.0,0.0,0.0,0.0,0.0,0.0,0.0,0.0,0.0,0.0,0.0,-0.1795,-0.1795,-0.1795,-0.1795,-0.1795,-0.1795,-0.1795,-0.1795,-0.1795,-0.1795,-0.1795,-0.1795,0.0,0.0,0.0,0.0,-0.1796,-0.1812,-0.1827,-0.1843,-0.1877,-0.1907,-0.1933,-0.1949,-0.1964,-0.1977,-0.1977,-0.1977,-0.1977,-0.1977,-0.1977,-0.1977,-0.1977,-0.1977,-0.1977,-0.1977,-0.1977,-0.1977,-0.1977,-0.1977,-0.1977,-0.1977,-0.1986,-0.1996,-0.1996,-0.2019,-0.2044,-0.2058,-0.2074,-0.2089,-0.2103,-0.2119,-0.213,-0.213,-0.2144,-0.2155,-0.2155,-0.2155,-0.2155,-0.2155,-0.2155,-0.2155,-0.2155,-0.2155,-0.2155,-0.2155,-0.148,-0.0672,-0.0,0.0672,0.1477,0.2148,0.2819,0.2954,0.2148,0.2954,0.2552,0.1074,0.094,0.0134,-0.0903,-0.0059,0.0933,0.1133,0.0953,0.0762,0.0,0.0,0.0,0.0,0.0,0.0,0.0,0.0,0.0,0.0,0.0,0.0,0.0,0.0,0.0,0.0,0.0,0.0,0.0,0.0,0.0,0.0,0.0,0.0,0.0,0.0,0.0,-0.1795,-0.1795,-0.1795,-0.1795,-0.1795,-0.1795,-0.1795,-0.1795,-0.1795,-0.1795,-0.1795,-0.1795,0.0,0.0,0.0,-0.1795,-0.1795,-0.181,-0.1834,-0.1838,-0.1872,-0.1919,-0.1928,-0.1947,-0.197,-0.1975,-0.1977,-0.1977,-0.1977,-0.1976,-0.2099,-0.2099,-0.2099,-0.2099,-0.2099,-0.2099,-0.1977,-0.1977,-0.1977,-0.1977,-0.1977,-0.1998,-0.2018,-0.2018,-0.2046,-0.2078,-0.2104,-0.2113,-0.2124,-0.215,-0.2155,-0.2155,-0.2155,-0.2155,-0.2155,-0.2155,-0.2155,-0.2155,-0.2155,-0.2155,-0.2155,-0.2155,-0.2155,-0.2155,-0.2155,-0.2155,-0.1615,-0.0403,-0.0269,0.0269,0.1477,0.1611,0.1611,0.1477,0.1611,0.1074,-0.0403,-0.0672,-0.148,-0.0929,-0.0796,-0.0504,0.0058,-0.0239,-0.0555,0.0,0.0,0.0,0.0,0.0,0.0,0.0,0.0,0.0,0.0,0.0,0.0,0.0,0.0,0.0,0.0,0.0,0.0,0.0,0.0,0.0,0.0,0.0,0.0,0.0,0.0,0.0,-0.1795,-0.1795,-0.1795,-0.1795,-0.1795,-0.1795,-0.1795,-0.1795,-0.1795,-0.1795,-0.1795,-0.1795,0.0,0.0,-0.1795,-0.1795,-0.1795,-0.1797,-0.1804,-0.183,-0.1846,-0.1861,-0.1912,-0.1934,-0.1942,-0.1967,-0.1977,-0.1977,-0.1977,-0.2222,-0.2467,-0.2467,-0.2591,-0.2838,-0.2838,-0.247,-0.1977,-0.1977,-0.1977,-0.1977,-0.1977,-0.1998,-0.2018,-0.2018,-0.2063,-0.2104,-0.2108,-0.213,-0.2149,-0.2154,-0.2155,-0.2155,-0.2155,-0.2155,-0.2155,-0.2155,-0.2155,-0.2155,-0.2155,-0.2155,-0.2155,-0.2155,-0.2155,-0.2155,-0.2155,-0.2155,-0.2155,-0.1885,-0.1884,-0.175,-0.148,-0.0269,-0.0269,-0.148,-0.0269,-0.0538,-0.2289,-0.2289,-0.2692,-0.0915,-0.0951,-0.0856,-0.0596,-0.0815,-0.0986,0.0,0.0,0.0,0.0,0.0,0.0,0.0,0.0,0.0,0.0,0.0,0.0,0.0,0.0,0.0,0.0,0.0,0.0,0.0,0.0,0.0,0.0,0.0,0.0,0.0,0.0,0.0,0.0,-0.1746,-0.1746,-0.1746,-0.1762,-0.1778,-0.1795,-0.1795,-0.1795,-0.1795,-0.1795,-0.1795,-0.1795,0.0,-0.1795,-0.1795,-0.1795,-0.1795,-0.1796,-0.181,-0.1826,-0.1848,-0.1909,-0.1941,-0.1958,-0.1972,-0.1977,-0.1977,-0.1977,-0.2222,-0.2467,-0.2467,-0.2714,-0.2961,-0.2961,-0.2838,-0.2469,-0.2346,-0.2222,-0.2226,-0.1995,-0.2022,-0.2048,-0.2064,-0.2102,-0.2133,-0.2133,-0.2145,-0.2155,-0.2155,-0.2155,-0.2155,-0.2155,-0.2155,-0.2155,-0.2155,-0.2155,-0.2155,-0.2155,-0.2155,-0.2155,-0.2155,-0.2155,-0.2155,-0.2155,-0.2155,-0.2155,-0.2155,-0.2155,-0.2155,-0.2155,-0.148,-0.148,-0.2155,-0.175,-0.1884,-0.2694,-0.3097,-0.3378,-0.0962,-0.093,-0.0959,0.0,0.0,0.0,0.0,0.0,0.0,0.0,0.0,0.0,0.0,0.0,0.0,0.0,0.0,0.0,0.0,0.0,0.0,0.0,0.0,0.0,0.0,0.0,0.0,0.0,0.0,0.0,0.0,0.0,0.0,0.0,-0.1704,-0.1704,-0.1704,-0.1727,-0.1754,-0.1785,-0.1791,-0.1795,-0.1795,-0.1795,-0.1795,-0.1795,-0.1795,-0.1795,-0.1795,-0.1795,-0.1795,-0.1795,-0.1795,-0.1818,-0.1857,-0.1903,-0.1945,-0.1977,-0.1977,-0.1977,-0.1977,-0.1977,-0.2222,-0.2467,-0.259,-0.2837,-0.3085,-0.3208,-0.3208,-0.3085,-0.2714,-0.259,-0.2477,-0.2263,-0.217,-0.2072,-0.2234,-0.2266,-0.2155,-0.2155,-0.2155,-0.2155,-0.2155,-0.2155,-0.2155,-0.2155,-0.2155,-0.2155,-0.2155,-0.2155,-0.2155,-0.2155,-0.2155,-0.2155,-0.2155,-0.2155,-0.2155,-0.2155,-0.2155,-0.2155,-0.2155,-0.2155,-0.2155,-0.2155,-0.2289,-0.2289,-0.2289,-0.2693,-0.2828,-0.2963,-0.3499,-0.3932,-0.1048,-0.0962,-0.0986,-0.0988,0.0,0.0,0.0,0.0,0.0,0.0,0.0,0.0,0.0,0.0,0.0,0.0,0.0,0.0,0.0,0.0,0.0,0.0,0.0,0.0,0.0,0.0,0.0,0.0,0.0,0.0,0.0,0.0,0.0,0.0,0.0,-0.1704,-0.1704,-0.1706,-0.1722,-0.1753,-0.1781,-0.1795,-0.1795,-0.1795,-0.1795,-0.1795,-0.1795,-0.1795,-0.1795,-0.1795,-0.1795,-0.1795,-0.1795,-0.1831,-0.1883,-0.1887,-0.1926,-0.1977,-0.1977,-0.1977,-0.1977,-0.1977,-0.2222,-0.259,-0.2838,-0.3208,-0.3455,-0.3703,-0.3826,-0.3703,-0.3085,-0.2714,-0.26,-0.2892,-0.2553,-0.2202,-0.2497,-0.24,-0.2155,-0.2155,-0.2155,-0.2155,-0.2155,-0.2155,-0.2155,-0.2155,-0.2155,-0.2155,-0.2155,-0.2155,-0.2155,-0.2155,-0.2155,-0.2155,-0.2155,-0.2155,-0.2155,-0.2155,-0.2155,-0.2155,-0.2155,-0.2155,-0.2155,-0.2155,-0.2559,-0.2694,-0.2694,-0.2961,-0.3363,-0.3768,-0.3768,-0.4069,-0.1649,-0.1483,-0.1487,0.0,0.0,0.0,0.0,0.0,0.0,0.0,0.0,0.0,0.0,0.0,0.0,0.0,0.0,0.0,0.0,0.0,0.0,0.0,0.0,0.0,0.0,0.0,0.0,0.0,0.0,0.0,0.0,0.0,0.0,0.0,0.0,-0.2675,-0.2675,-0.3327,-0.367,-0.3696,-0.2395,-0.1767,-0.1767,-0.1787,-0.1795,-0.1795,-0.1795,-0.1795,-0.1795,-0.1795,-0.1795,-0.1795,-0.1795,-0.1821,-0.186,-0.1879,-0.1912,-0.1951,-0.197,-0.2099,-0.2345,-0.2345,-0.2715,-0.3085,-0.3332,-0.3455,-0.3826,-0.3828,-0.3951,-0.3826,-0.3455,-0.3231,-0.3141,-0.306,-0.2718,-0.2494,-0.2664,-0.2415,-0.2155,-0.2155,-0.2155,-0.2155,-0.2155,-0.2155,-0.2155,-0.2155,-0.2155,-0.2155,-0.2155,-0.2155,-0.2155,-0.2155,-0.2155,-0.2155,-0.2155,-0.2155,-0.2289,-0.2559,-0.2289,-0.2155,-0.2155,-0.2424,-0.2559,-0.2559,-0.2827,-0.2961,-0.2961,-0.3363,-0.3632,-0.3768,-0.4074,-0.4257,-0.1932,-0.1665,-0.1512,0.0,0.0,0.0,0.0,0.0,0.0,0.0,0.0,0.0,0.0,0.0,0.0,0.0,0.0,0.0,0.0,0.0,0.0,0.0,0.0,0.0,0.0,0.0,0.0,0.0,0.0,0.0,0.0,0.0,0.0,0.0,0.0,-0.3725,-0.3725,-0.4482,-0.4918,-0.4818,-0.3491,-0.2809,-0.2841,-0.2434,-0.2343,-0.2353,-0.2353,-0.2353,-0.2353,-0.28,-0.2911,-0.2911,-0.2911,-0.2942,-0.2991,-0.3156,-0.3209,-0.3139,-0.3433,-0.3328,-0.3081,-0.3203,-0.3329,-0.3332,-0.3455,-0.3948,-0.4439,-0.4562,-0.4807,-0.5058,-0.4464,-0.3882,-0.3547,-0.3471,-0.3131,-0.278,-0.2819,-0.2558,-0.2289,-0.2155,-0.2155,-0.2155,-0.2155,-0.2155,-0.2155,-0.2155,-0.2155,-0.2155,-0.2155,-0.2155,-0.2155,-0.2155,-0.2155,-0.2155,-0.2155,-0.2289,-0.2425,-0.2694,-0.2558,-0.2558,-0.2558,-0.2693,-0.2694,-0.2828,-0.3229,-0.3363,-0.3363,-0.3768,-0.3912,-0.3929,-0.4242,-0.4439,-0.1822,-0.1256,0.0,0.0,0.0,0.0,0.0,0.0,0.0,0.0,0.0,0.0,0.0,0.0,0.0,0.0,0.0,0.0,0.0,0.0,0.0,0.0,0.0,0.0,0.0,0.0,0.0,0.0,0.0,0.0,0.0,0.0,0.0,0.0,0.0,0.0,-0.4824,-0.4824,-0.4824,-0.4826,-0.4916,-0.4948,-0.5013,-0.3929,-0.3526,-0.3579,-0.3579,-0.358,-0.3692,-0.4916,-0.5361,-0.5361,-0.5361,-0.5416,-0.5506,-0.5942,-0.5924,-0.578,-0.6595,-0.5776,-0.443,-0.4795,-0.4063,-0.3085,-0.3455,-0.4436,-0.5535,-0.5784,-0.6881,-0.7641,-0.6393,-0.4791,-0.3675,-0.3985,-0.3653,-0.3178,-0.3219,-0.2961,-0.2559,-0.2289,-0.2155,-0.2155,-0.2155,-0.2155,-0.2155,-0.2155,-0.2155,-0.2155,-0.2155,-0.2155,-0.2155,-0.2155,-0.2155,-0.2155,-0.2155,-0.2559,-0.2694,-0.2694,-0.2961,-0.3228,-0.3228,-0.2827,-0.2828,-0.3228,-0.3632,-0.3768,-0.3768,-0.4172,-0.4339,-0.4398,-0.4399,-0.4462,-0.3055,0.0,0.0,0.0,0.0,0.0,0.0,0.0,0.0,0.0,0.0,0.0,0.0,0.0,0.0,0.0,0.0,0.0,0.0,0.0,0.0,0.0,0.0,0.0,0.0,0.0,0.0,0.0,0.0,0.0,0.0,0.0,0.0,0.0,0.0,0.0,-0.5932,-0.6634,-0.7033,-0.7033,-0.7071,-0.6361,-0.494,-0.4745,-0.4593,-0.4618,-0.4781,-0.4916,-0.4916,-0.525,-0.5361,-0.5361,-0.5361,-0.5491,-0.5751,-0.5842,-0.6051,-0.6386,-0.6607,-0.657,-0.6508,-0.6628,-0.6508,-0.6512,-0.6514,-0.6881,-0.7123,-0.7248,-0.7614,-0.7641,-0.6393,-0.5709,-0.5134,-0.4305,-0.3839,-0.3616,-0.363,-0.3097,-0.2694,-0.2559,-0.2424,-0.2155,-0.2155,-0.2155,-0.2155,-0.2155,-0.2155,-0.2155,-0.2155,-0.2155,-0.2155,-0.2155,-0.2155,-0.2289,-0.2559,-0.2694,-0.2963,-0.3499,-0.3363,-0.3228,-0.3228,-0.3365,-0.3499,-0.3632,-0.4037,-0.4172,-0.4172,-0.4307,-0.4339,-0.4399,-0.4439,-0.4499,-0.3582,0.0,0.0,0.0,0.0,0.0,0.0,0.0,0.0,0.0,0.0,0.0,0.0,0.0,0.0,0.0,0.0,0.0,0.0,0.0,0.0,0.0,0.0,0.0,0.0,0.0,0.0,0.0,0.0,0.0,0.0,0.0,0.0,0.0,0.0,0.0,-0.7036,-0.764,-0.8038,-0.8038,-0.8038,-0.7378,-0.6136,-0.5796,-0.5681,-0.5721,-0.5927,-0.6325,-0.6811,-0.6811,-0.6811,-0.6811,-0.6922,-0.7033,-0.7274,-0.7613,-0.7821,-0.8028,-0.8443,-0.8321,-0.8153,-0.8323,-0.8097,-0.7858,-0.7858,-0.8221,-0.8708,-0.8708,-0.9076,-0.9111,-0.7884,-0.762,-0.7091,-0.4723,-0.413,-0.3902,-0.3768,-0.3499,-0.3097,-0.2694,-0.2559,-0.2289,-0.2289,-0.2155,-0.2155,-0.2155,-0.2155,-0.2155,-0.2155,-0.2155,-0.2155,-0.2155,-0.2289,-0.2425,-0.2694,-0.2963,-0.3366,-0.3768,-0.3633,-0.3632,-0.3632,-0.3768,-0.3902,-0.4038,-0.4172,-0.4308,-0.4308,-0.4333,-0.4373,-0.4433,-0.4492,-0.4551,0.0,0.0,0.0,0.0,0.0,0.0,0.0,0.0,0.0,0.0,0.0,0.0,0.0,0.0,0.0,0.0,0.0,0.0,0.0,0.0,0.0,0.0,0.0,0.0,0.0,0.0,0.0,0.0,0.0,0.0,0.0,0.0,0.0,0.0,0.0,0.0,-0.8038,-0.8038,-0.8038,0.0,-0.8038,-0.8038,-0.7945,-0.7074,-0.6782,-0.6898,-0.7011,-0.7789,-0.8916,-0.8916,-0.8927,-0.8937,-0.9268,-0.9489,-0.9618,-1.0212,-1.028,-1.0224,-1.1125,-1.0532,-0.938,-0.9882,-0.9198,-0.8224,-0.8224,-0.9076,-0.9926,-0.9926,-1.091,-1.1453,-1.026,-1.0029,-0.9276,-0.5515,-0.4665,-0.4574,-0.4304,-0.417,-0.3767,-0.3097,-0.2828,-0.2559,-0.2289,-0.2155,-0.2155,-0.2155,-0.2289,-0.2289,-0.2289,-0.2289,-0.2289,-0.2289,-0.2559,-0.2694,-0.2828,-0.3366,-0.3768,-0.3902,-0.4172,-0.4308,-0.4308,-0.4038,-0.4038,-0.4308,-0.4308,-0.4308,-0.4308,-0.4368,-0.4427,-0.4484,-0.4545,-0.4606,0.0,0.0,0.0,0.0,0.0,0.0,0.0,0.0,0.0,0.0,0.0,0.0,0.0,0.0,0.0,0.0,0.0,0.0,0.0,0.0,0.0,0.0,0.0,0.0,0.0,0.0,0.0,0.0,0.0,0.0,0.0,0.0,0.0,0.0,0.0,-0.8038,-0.8038,-0.8038,-0.8038,0.0,-0.8038,-0.8038,-0.8045,-0.7893,-0.8033,-0.8164,-0.8091,-0.8401,-0.876,-0.876,-0.8937,-0.9268,-0.9379,-0.971,-1.015,-1.0299,-1.0512,-1.0888,-1.1093,-1.1141,-1.1051,-1.1346,-1.116,-1.0917,-1.0917,-1.116,-1.1405,-1.1405,-1.153,-1.148,-1.0395,-1.0109,-0.9813,-0.8088,-0.7624,-0.7641,-0.7641,-0.6437,-0.5369,-0.5235,-0.39,-0.2694,-0.2559,-0.2424,-0.2155,-0.2155,-0.2424,-0.2559,-0.2559,-0.2559,-0.2693,-0.296,-0.2828,-0.2963,-0.35,-0.3768,-0.3902,-0.4172,-0.4307,-0.4308,-0.4308,-0.4172,-0.4172,-0.4308,-0.4308,-0.4308,-0.4308,-0.4368,-0.4427,-0.4484,-0.4545,-0.4606,0.0,0.0,0.0,0.0,0.0,0.0,0.0,0.0,0.0,0.0,0.0,0.0,0.0,0.0,0.0,0.0,0.0,0.0,0.0,0.0,0.0,0.0,0.0,0.0,0.0,0.0,0.0,0.0,0.0,0.0,0.0,0.0,0.0,0.0,-0.8038,-0.8038,-0.8038,-0.8038,-0.8038,-0.8038,-0.8038,-0.8038,-0.8041,-0.8123,-0.8241,-0.8381,-0.8381,-0.8465,-0.8608,-0.8679,-0.8974,-0.9272,-0.9567,-0.9926,-1.0366,-1.0472,-1.0643,-1.0875,-1.1135,-1.1285,-1.1411,-1.1687,-1.1776,-1.1776,-1.1776,-1.1776,-1.1776,-1.1776,-1.1776,-1.1696,-1.1132,-1.104,-1.1068,-1.0453,-0.9413,-0.8573,-0.8573,-0.7905,-0.6969,-0.6036,-0.4969,-0.39,-0.2828,-0.2424,-0.2155,-0.2155,-0.2289,-0.2425,-0.2425,-0.2828,-0.3096,-0.3096,-0.3097,-0.3366,-0.3768,-0.3902,-0.4172,-0.4308,-0.4308,-0.4308,-0.4308,-0.4308,-0.4308,-0.4308,-0.4308,-0.4322,-0.435,-0.441,-0.4469,-0.4527,-0.4589,-0.4634,0.0,0.0,0.0,0.0,0.0,0.0,0.0,0.0,0.0,0.0,0.0,0.0,0.0,0.0,0.0,0.0,0.0,0.0,0.0,0.0,0.0,0.0,0.0,0.0,0.0,0.0,0.0,0.0,0.0,0.0,0.0,0.0,-0.8038,-0.8038,-0.8038,-0.8038,-0.8038,-0.8038,-0.8038,-0.8038,-0.8038,-0.8038,-0.8038,-0.8038,-0.8109,-0.8231,-0.8231,-0.8313,-0.8455,-0.8581,-0.8876,-0.9259,-0.961,-1.001,-1.0366,-1.0582,-1.0692,-1.0737,-1.1066,-1.1196,-1.1277,-1.1618,-1.1752,-1.1776,-1.1776,-1.1776,-1.1776,-1.1776,-1.1776,-1.1792,-1.1853,-1.2085,-1.232,-1.2381,-1.0788,-0.9371,-0.9371,-0.9105,-0.844,-0.6704,-0.6036,-0.5237,-0.3363,-0.2827,-0.2423,-0.2289,-0.2289,-0.2289,-0.2423,-0.3096,-0.3633,-0.3232,-0.35,-0.3768,-0.3902,-0.4172,-0.4308,-0.4308,-0.4308,-0.4308,-0.4308,-0.4308,-0.4308,-0.4308,-0.4308,-0.4338,-0.4398,-0.4455,-0.4514,-0.4575,-0.4635,-0.4665,0.0,0.0,0.0,0.0,0.0,0.0,0.0,0.0,0.0,0.0,0.0,0.0,0.0,0.0,0.0,0.0,0.0,0.0,0.0,0.0,0.0,0.0,0.0,0.0,0.0,0.0,0.0,0.0,0.0,0.0,0.0,-0.8038,-0.8038,-0.8038,-0.8038,-0.8038,-0.8038,-0.8233,-0.8333,-0.8333,-0.8333,-0.8333,-0.8333,-0.8333,-0.8247,-0.8069,-0.8069,-0.8157,-0.8299,-0.8323,-0.8689,-0.9248,-0.9481,-0.9903,-1.0366,-1.0582,-1.0692,-1.072,-1.0932,-1.1098,-1.1256,-1.1468,-1.1646,-1.1776,-1.1776,-1.1776,-1.1776,-1.1776,-1.1776,-1.1845,-1.2158,-1.2272,-1.2385,-1.2694,-1.2537,-1.2301,-1.2301,-1.1237,-1.0038,-0.8573,-0.6706,-0.5237,-0.4565,-0.43,-0.3631,-0.2423,-0.2559,-0.2828,-0.3095,-0.3768,-0.4172,-0.4172,-0.3903,-0.3902,-0.4172,-0.4308,-0.4308,-0.4308,-0.4308,-0.4308,-0.4308,-0.4308,-0.4308,-0.4308,-0.4308,-0.4338,-0.4398,-0.4455,-0.4514,-0.4575,-0.4635,-0.4665,0.0,0.0,0.0,0.0,0.0,0.0,0.0,0.0,0.0,0.0,0.0,0.0,0.0,0.0,0.0,0.0,0.0,0.0,0.0,0.0,0.0,0.0,0.0,0.0,0.0,0.0,0.0,0.0,0.0,0.0,-0.8432,-0.8432,-0.8432,-0.8432,-0.8432,-0.8432,-0.8432,-0.8531,-0.8627,-0.8627,-0.8627,-0.8627,-0.8627,-0.8627,-0.8432,-0.8233,-0.8233,-0.8175,-0.8147,-0.8438,-0.8809,-0.9338,-0.9743,-1.0101,-1.0582,-1.0692,-1.0692,-1.0716,-1.0907,-1.1082,-1.1252,-1.1439,-1.1626,-1.1776,-1.1776,-1.1776,-1.1776,-1.1776,-1.1776,-1.1833,-1.2085,-1.2227,-1.2361,-1.2584,-1.2739,-1.2836,-1.2836,-1.2305,-1.1501,-1.0038,-0.8169,-0.6702,-0.6435,-0.5367,-0.4433,-0.3897,-0.3095,-0.2693,-0.3095,-0.3632,-0.4038,-0.4307,-0.4172,-0.4172,-0.4308,-0.4308,-0.4308,-0.4308,-0.4308,-0.4308,-0.4308,-0.4308,-0.4308,-0.4308,-0.4308,-0.4353,-0.4446,-0.447,-0.4531,-0.4625,-0.4651,-0.4665,0.0,0.0,0.0,0.0,0.0,0.0,0.0,0.0,0.0,0.0,0.0,0.0,0.0,0.0,0.0,0.0,0.0,0.0,0.0,0.0,0.0,0.0,0.0,0.0,0.0,0.0,0.0,0.0,0.0,0.0,-0.8825,-0.8825,-0.8825,-0.8825,-0.8825,-0.8825,-0.8825,-0.8825,-0.8928,-0.8928,-0.8928,-0.8928,-0.8928,-0.8928,-0.8829,-0.863,-0.8531,-0.8432,-0.8244,-0.8564,-0.8936,-0.9448,-0.9777,-1.017,-1.0582,-1.0692,-1.0692,-1.0712,-1.085,-1.1041,-1.1244,-1.1382,-1.1585,-1.1776,-1.1776,-1.1776,-1.1776,-1.1776,-1.1776,-1.1829,-1.2044,-1.2203,-1.2353,-1.2527,-1.2706,-1.2836,-1.2836,-1.2568,-1.2037,-1.1369,-0.9766,-0.8432,-0.8166,-0.67,-0.5233,-0.4567,-0.3228,-0.2558,-0.3094,-0.3498,-0.3902,-0.4307,-0.4308,-0.4308,-0.4308,-0.4308,-0.4308,-0.4308,-0.4308,-0.4308,-0.4308,-0.4308,-0.4315,-0.4331,-0.4331,-0.4382,-0.4482,-0.4497,-0.456,-0.4665,-0.4665,-0.4665,0.0,0.0,0.0,0.0,0.0,0.0,0.0,0.0,0.0,0.0,0.0,0.0,0.0,0.0,0.0,0.0,0.0,0.0,0.0,0.0,0.0,0.0,0.0,0.0,0.0,0.0,0.0,0.0,0.0,0.0,-0.8825,-0.8825,-0.8825,-0.8825,-0.8825,-0.8825,-0.8825,-0.9031,-0.9137,-0.9137,-0.9137,-0.9137,-0.9137,-0.9137,-0.9133,-0.9137,-0.8928,-0.8726,-0.8726,-0.8737,-0.903,-0.9332,-0.9653,-1.0071,-1.0366,-1.0582,-1.0692,-1.0692,-1.0704,-1.0936,-1.1224,-1.1232,-1.1484,-1.1776,-1.1776,-1.1776,-1.1776,-1.1776,-1.1776,-1.1857,-1.2203,-1.23,-1.2393,-1.2739,-1.2828,-1.2836,-1.2836,-1.1769,-1.1237,-1.2437,-1.124,-1.0038,-1.0028,-0.8565,-0.6303,-0.3499,-0.2963,-0.2963,-0.3229,-0.3768,-0.4307,-0.4308,-0.4308,-0.4308,-0.4308,-0.4308,-0.4308,-0.4308,-0.4308,-0.4308,-0.4308,-0.4308,-0.4335,-0.4392,-0.4394,-0.4422,-0.4482,-0.4541,-0.4601,-0.4665,-0.4665,-0.4665,0.0,0.0,0.0,0.0,0.0,0.0,0.0,0.0,0.0,0.0,0.0,0.0,0.0,0.0,0.0,0.0,0.0,0.0,0.0,0.0,0.0,0.0,0.0,0.0,0.0,0.0,0.0,0.0,0.0,0.0,-0.9001,-0.9099,-0.9154,-0.9154,-0.9265,-0.9327,-0.9327,-0.943,-0.943,-0.943,-0.943,-0.943,-0.943,-0.943,-0.943,-0.943,-0.9327,-0.9126,-0.8825,-0.9031,-0.9232,-0.9642,-0.9955,-1.0273,-1.0582,-1.0692,-1.0692,-1.0692,-1.0692,-1.0923,-1.1224,-1.1224,-1.1472,-1.1776,-1.1776,-1.1776,-1.1776,-1.1776,-1.1776,-1.1857,-1.2215,-1.2308,-1.2398,-1.2751,-1.2836,-1.2836,-1.2836,-1.2437,-1.2169,-1.2704,-1.2305,-1.1769,-1.1497,-0.9896,-0.8698,-0.8573,-0.5638,-0.39,-0.5505,-0.4705,-0.4038,-0.4308,-0.4308,-0.4308,-0.4308,-0.4308,-0.4308,-0.4308,-0.4308,-0.4308,-0.4308,-0.4308,-0.4337,-0.4397,-0.4435,-0.4481,-0.4541,-0.4563,-0.4605,-0.4665,-0.4665,-0.4665,0.0,0.0,0.0,0.0,0.0,0.0,0.0,0.0,0.0,0.0,0.0,0.0,0.0,0.0,0.0,0.0,0.0,0.0,0.0,0.0,0.0,0.0,0.0,0.0,0.0,0.0,0.0,0.0,0.0,0.0,-0.9104,-0.9206,-0.9271,-0.9271,-0.9441,-0.9535,-0.9535,-0.9596,-0.9628,-0.9628,-0.9628,-0.9628,-0.9628,-0.9628,-0.9628,-0.9628,-0.9628,-0.9426,-0.9126,-0.9232,-0.9501,-0.9868,-1.0136,-1.0343,-1.0611,-1.0672,-1.0692,-1.0692,-1.0692,-1.0887,-1.1147,-1.1204,-1.1431,-1.1695,-1.1756,-1.1776,-1.1776,-1.1776,-1.1776,-1.1857,-1.2215,-1.2398,-1.2544,-1.2783,-1.2836,-1.2836,-1.2836,-1.2836,-1.2836,-1.2836,-1.2836,-1.2704,-1.2437,-1.0962,-1.0296,-1.1909,-0.7772,-0.5104,-0.6708,-0.524,-0.4038,-0.4308,-0.4308,-0.4308,-0.4308,-0.4308,-0.4308,-0.4308,-0.4308,-0.4308,-0.4308,-0.4308,-0.4345,-0.4425,-0.4463,-0.4522,-0.4604,-0.4604,-0.4624,-0.4665,-0.4665,-0.4665,0.0,0.0,0.0,0.0,0.0,0.0,0.0,0.0,0.0,0.0,0.0,0.0,0.0,0.0,0.0,0.0,0.0,0.0,0.0,0.0,0.0,0.0,0.0,0.0,0.0,0.0,0.0,0.0,0.0,-0.9088,-0.9084,-0.9088,-0.9092,-0.9096,-0.9259,-0.9348,-0.9348,-0.9531,-0.962,-0.962,-0.9624,-0.9628,-0.9628,-0.9628,-0.9628,-0.9628,-0.9628,-0.9628,-0.9628,-0.9628,-0.973,-0.9904,-1.0091,-1.0274,-1.0456,-1.0627,-1.0692,-1.0692,-1.0692,-1.0814,-1.0997,-1.1167,-1.135,-1.1533,-1.1719,-1.1776,-1.1776,-1.1776,-1.1776,-1.1857,-1.2215,-1.2564,-1.2832,-1.2836,-1.2836,-1.2836,-1.2836,-1.2836,-1.2836,-1.2836,-1.2836,-1.2836,-1.2836,-1.1637,-1.1237,-1.2568,-0.9238,-0.6575,-0.6575,-0.5242,-0.4307,-0.4307,-0.4308,-0.4308,-0.4308,-0.4308,-0.4308,-0.4308,-0.4308,-0.4308,-0.4308,-0.4308,-0.4362,-0.4477,-0.4481,-0.4542,-0.4661,-0.4664,-0.4665,-0.4665,-0.4665,-0.4665,-0.7161,0.0,0.0,0.0,0.0,0.0,0.0,0.0,0.0,0.0,0.0,0.0,0.0,0.0,0.0,0.0,0.0,0.0,0.0,0.0,0.0,0.0,0.0,0.0,0.0,0.0,0.0,0.0,-0.8824,-0.8844,-0.8718,-0.8828,-0.8958,-0.9092,-0.9145,-0.9169,-0.9169,-0.9344,-0.9429,-0.9433,-0.9563,-0.9628,-0.9628,-0.9628,-0.9628,-0.9628,-0.9628,-0.9628,-0.9628,-0.9628,-0.973,-0.9904,-1.0091,-1.0274,-1.0456,-1.0627,-1.0692,-1.0692,-1.0692,-1.0814,-1.0997,-1.1167,-1.135,-1.1533,-1.1719,-1.1776,-1.1776,-1.1776,-1.1776,-1.1857,-1.2215,-1.2475,-1.2674,-1.2804,-1.2836,-1.2836,-1.2836,-1.2836,-1.2836,-1.2836,-1.2836,-1.2836,-1.2836,-1.2437,-1.2301,-1.2704,-1.0571,-0.9105,-0.9504,-0.7374,-0.5776,-0.5776,-0.4841,-0.4308,-0.4308,-0.4308,-0.4308,-0.4308,-0.4308,-0.4308,-0.4308,-0.4308,-0.4343,-0.442,-0.4462,-0.4521,-0.4598,-0.4643,-0.4665,-0.4665,-0.4665,-0.4665,0.0,0.0,0.0,0.0,0.0,0.0,0.0,0.0,0.0,0.0,0.0,0.0,0.0,0.0,0.0,0.0,0.0,0.0,0.0,0.0,0.0,0.0,0.0,0.0,0.0,0.0,0.0,0.0,-0.8658,-0.867,-0.8572,-0.8662,-0.8763,-0.8873,-0.8946,-0.8982,-0.8982,-0.9157,-0.9283,-0.9356,-0.9462,-0.9555,-0.9628,-0.9628,-0.9628,-0.9628,-0.9628,-0.9628,-0.9628,-0.9628,-0.9689,-0.9795,-0.9977,-1.016,-1.0343,-1.0517,-1.0631,-1.0692,-1.0692,-1.0761,-1.0883,-1.1057,-1.1236,-1.1419,-1.1606,-1.1715,-1.1776,-1.1776,-1.1829,-1.1947,-1.2231,-1.2434,-1.2609,-1.2791,-1.2836,-1.2836,-1.2836,-1.2836,-1.2836,-1.2836,-1.2836,-1.2836,-1.2836,-1.2836,-1.2836,-1.2836,-1.1369,-1.0435,-1.0704,-0.8706,-0.7109,-0.6441,-0.5642,-0.4975,-0.4307,-0.4308,-0.4308,-0.4308,-0.4308,-0.4308,-0.4308,-0.4308,-0.4337,-0.4397,-0.4454,-0.4525,-0.461,-0.4647,-0.4665,-0.4665,-0.4665,-0.4665,0.0,0.0,0.0,0.0,0.0,0.0,0.0,-0.8939,0.0,0.0,0.0,0.0,0.0,0.0,0.0,0.0,0.0,0.0,0.0,0.0,0.0,0.0,0.0,0.0,0.0,0.0,-0.963,-0.8882,-0.8815,-0.8828,-0.8915,-0.874,-0.8656,-0.874,-0.88,-0.8882,-0.8882,-0.9066,-0.9247,-0.9423,-0.944,-0.9449,-0.9628,-0.9628,-0.9628,-0.9628,-0.9628,-0.9628,-0.9628,-0.9628,-0.9628,-0.9644,-0.9819,-0.9998,-1.0184,-1.0367,-1.0546,-1.0692,-1.0692,-1.0692,-1.072,-1.0911,-1.1082,-1.1256,-1.1443,-1.163,-1.1776,-1.1776,-1.1886,-1.2044,-1.2227,-1.2406,-1.258,-1.2763,-1.2824,-1.2836,-1.2836,-1.2836,-1.2836,-1.2836,-1.2836,-1.2836,-1.2836,-1.2836,-1.2836,-1.2836,-1.1769,-1.0969,-1.0969,-0.9637,-0.8307,-0.6842,-0.6443,-0.5776,-0.4441,-0.4308,-0.4308,-0.4308,-0.4308,-0.4308,-0.4308,-0.4308,-0.4333,-0.4387,-0.445,-0.4542,-0.4665,-0.4665,-0.4665,-0.4665,-0.4665,-0.4665,0.0,0.0,0.0,0.0,0.0,0.0,0.0,-0.9013,0.0,0.0,0.0,0.0,0.0,0.0,0.0,0.0,0.0,0.0,0.0,0.0,0.0,0.0,0.0,0.0,0.0,0.0,-1.0326,-1.0442,-0.9938,-0.9946,-1.0722,-0.9515,-0.917,-0.9946,-0.9468,-0.9226,-0.9226,-0.9144,-0.9238,-0.9426,-0.9382,-0.9449,-0.9628,-0.9628,-0.9628,-0.9628,-0.9628,-0.9628,-0.9628,-0.9628,-0.9628,-0.9644,-0.9819,-0.9998,-1.0184,-1.0367,-1.0546,-1.0692,-1.0692,-1.0692,-1.072,-1.0911,-1.1082,-1.1256,-1.1443,-1.163,-1.1776,-1.1776,-1.1801,-1.1866,-1.204,-1.2219,-1.2402,-1.2576,-1.2731,-1.2836,-1.2836,-1.2836,-1.2836,-1.2836,-1.2836,-1.2836,-1.2836,-1.2836,-1.2836,-1.2836,-1.2568,-1.2437,-1.2437,-1.1101,-0.9772,-0.8307,-0.7109,-0.5776,-0.4441,-0.4308,-0.4308,-0.4308,-0.4308,-0.4308,-0.4308,-0.4308,-0.4313,-0.4324,-0.4428,-0.4542,-0.4665,-0.4665,-0.4665,-0.4665,-0.4665,-0.4665,0.0,0.0,0.0,-0.9429,0.0,0.0,0.0,0.0,0.0,0.0,0.0,0.0,0.0,0.0,0.0,0.0,0.0,0.0,0.0,0.0,0.0,0.0,0.0,0.0,0.0,0.0,-1.0978,-1.0696,-1.0511,-1.0634,-1.1218,-1.0651,-1.0371,-1.0463,-1.012,-0.9777,-0.9349,-0.9265,-0.9319,-0.9421,-0.9511,-0.9702,-0.9892,-0.9784,-0.9826,-0.9821,-0.9628,-0.9628,-0.9628,-0.9628,-0.9628,-0.9636,-0.9721,-0.9925,-1.0172,-1.0266,-1.0465,-1.0692,-1.0692,-1.0692,-1.0708,-1.0802,-1.0952,-1.1131,-1.1309,-1.1553,-1.1776,-1.1776,-1.1776,-1.1817,-1.1983,-1.2166,-1.2349,-1.2523,-1.2706,-1.2836,-1.2836,-1.2836,-1.2836,-1.2836,-1.2836,-1.2836,-1.2836,-1.2836,-1.2836,-1.2836,-1.2836,-1.2836,-1.2836,-1.2169,-1.1237,-0.9772,-0.8307,-0.6976,-0.551,-0.4708,-0.4308,-0.4308,-0.4308,-0.4308,-0.4308,-0.4308,-0.4322,-0.4352,-0.4439,-0.4527,-0.4619,-0.465,-0.4665,-0.4665,-0.4665,-0.4665,0.0,0.0,0.0,0.0,0.0,-0.9503,0.0,0.0,0.0,-0.9813,0.0,0.0,0.0,0.0,0.0,0.0,0.0,0.0,0.0,0.0,0.0,0.0,0.0,0.0,0.0,0.0,-1.1498,-1.0913,-1.1,-1.121,-1.1699,-1.1691,-1.1582,-1.108,-1.0869,-1.0381,-0.9689,-0.9432,-0.9447,-0.9556,-0.9745,-0.9938,-1.014,-1.0036,-1.0117,-1.0019,-0.9826,-0.9727,-0.9727,-0.9727,-0.9628,-0.9628,-0.9628,-0.9847,-1.016,-1.016,-1.0387,-1.0692,-1.0692,-1.0692,-1.0692,-1.0692,-1.0838,-1.1049,-1.1224,-1.1508,-1.1776,-1.1776,-1.1776,-1.1809,-1.1947,-1.2117,-1.23,-1.2471,-1.2649,-1.2795,-1.2828,-1.2836,-1.2836,-1.2836,-1.2836,-1.2836,-1.2836,-1.2836,-1.2836,-1.2836,-1.2836,-1.2836,-1.2836,-1.2836,-1.2305,-1.0836,-0.964,-0.844,-0.6976,-0.551,-0.4708,-0.4708,-0.4441,-0.4308,-0.4308,-0.4308,-0.4337,-0.4397,-0.4454,-0.4512,-0.4574,-0.4634,-0.4665,-0.4665,-0.4955,-0.5098,0.0,0.0,0.0,0.0,-1.0477,0.0,0.0,0.0,-0.9889,-0.9556,0.0,0.0,0.0,0.0,0.0,0.0,0.0,0.0,0.0,0.0,0.0,0.0,0.0,0.0,0.0,0.0,0.0,-1.2643,-1.1872,-1.1967,-1.3437,-1.2512,-1.2153,-1.2909,-1.1798,-1.1154,-1.1068,-1.0033,-0.9619,-0.9827,-0.9837,-0.9938,-1.014,-1.0325,-1.0314,-1.0314,-1.0314,-1.0216,-0.992,-0.992,-0.9826,-0.9628,-0.9628,-0.9847,-1.016,-1.016,-1.0387,-1.0692,-1.0692,-1.0692,-1.0692,-1.0692,-1.0919,-1.1228,-1.1411,-1.1614,-1.1776,-1.1776,-1.1776,-1.178,-1.1801,-1.1935,-1.2109,-1.2292,-1.2471,-1.2641,-1.28,-1.2836,-1.2836,-1.2836,-1.2836,-1.2836,-1.2836,-1.2836,-1.2836,-1.2836,-1.2836,-1.2836,-1.2836,-1.2836,-1.2305,-1.0836,-1.0571,-0.9905,-0.844,-0.6976,-0.6176,-0.6176,-0.4975,-0.4308,-0.4308,-0.4308,-0.4337,-0.4397,-0.4454,-0.4512,-0.4574,-0.4634,-0.4665,-0.4665,-0.6112,-0.669,0.0,0.0,0.0,0.0,0.0,0.0,0.0,0.0,-1.037,0.0,0.0,0.0,0.0,0.0,0.0,0.0,0.0,0.0,0.0,0.0,0.0,0.0,0.0,0.0,0.0,0.0,0.0,0.0,0.0,-1.2437,-1.3414,-1.3426,-1.3444,-1.3444,-1.3136,-1.2687,-1.2083,-1.1655,-1.1197,-1.0695,-1.0821,-1.0678,-1.0435,-1.0446,-1.0502,-1.0605,-1.0511,-1.0314,-1.0216,-1.0216,-1.0117,-0.9821,-0.9821,-0.9879,-1.0014,-1.0123,-1.0327,-1.0558,-1.066,-1.0692,-1.0692,-1.0692,-1.0867,-1.111,-1.1285,-1.1468,-1.1638,-1.1748,-1.1776,-1.1776,-1.1776,-1.1902,-1.2048,-1.213,-1.2361,-1.2584,-1.2661,-1.2763,-1.2836,-1.2836,-1.2836,-1.2836,-1.2836,-1.2836,-1.2836,-1.2836,-1.2836,-1.2836,-1.2836,-1.2836,-1.2568,-1.2037,-1.1237,-1.0435,-0.9905,-0.844,-0.7376,-0.6441,-0.5109,-0.4308,-0.4308,-0.4308,-0.4319,-0.4345,-0.4436,-0.4495,-0.4521,-0.4617,-0.5098,-0.6112,-0.669,-0.7412,-1.0946,0.0,0.0,0.0,0.0,0.0,0.0,0.0,0.0,0.0,0.0,0.0,0.0,0.0,0.0,0.0,0.0,0.0,0.0,0.0,0.0,0.0,0.0,0.0,0.0,0.0,0.0,0.0,0.0,0.0,-1.3107,-1.3877,-1.4136,-1.3897,-1.3946,-1.371,-1.3105,-1.2845,-1.2339,-1.1666,-1.1904,-1.1616,-1.0944,-1.0976,-1.1,-1.0904,-1.0703,-1.0609,-1.0507,-1.0507,-1.0314,-1.0117,-1.0117,-1.0,-0.9944,-1.0178,-1.0278,-1.0461,-1.0631,-1.0692,-1.0692,-1.0692,-1.0818,-1.1001,-1.1171,-1.1354,-1.1537,-1.1723,-1.1776,-1.1776,-1.1776,-1.1866,-1.1971,-1.202,-1.2268,-1.2507,-1.2552,-1.2706,-1.2836,-1.2836,-1.2836,-1.2836,-1.2836,-1.2836,-1.2836,-1.2836,-1.2836,-1.2836,-1.2836,-1.2836,-1.2836,-1.2836,-1.1901,-1.1237,-1.1237,-1.0038,-0.844,-0.6575,-0.5376,-0.4708,-0.4308,-0.4308,-0.4308,-0.4308,-0.4422,-0.4761,-0.5178,-0.532,-0.64,-0.8275,-0.7844,-0.8422,0.0,0.0,0.0,0.0,0.0,0.0,0.0,0.0,-1.1595,0.0,0.0,0.0,0.0,0.0,0.0,0.0,0.0,0.0,0.0,0.0,0.0,0.0,0.0,0.0,0.0,0.0,0.0,0.0,0.0,0.0,-1.2958,-1.3353,-1.3836,-1.4465,-1.3884,-1.3768,-1.4055,-1.319,-1.2674,-1.2681,-1.2865,-1.2601,-1.186,-1.2088,-1.1849,-1.1194,-1.1198,-1.0998,-1.0801,-1.0801,-1.0605,-1.0413,-1.0413,-1.022,-0.9975,-1.0133,-1.0278,-1.0461,-1.0631,-1.0692,-1.0692,-1.0692,-1.0818,-1.1001,-1.1171,-1.1354,-1.1537,-1.1723,-1.1776,-1.1776,-1.1776,-1.178,-1.1825,-1.1987,-1.2178,-1.2361,-1.2527,-1.2706,-1.2836,-1.2836,-1.2836,-1.2836,-1.2836,-1.2836,-1.2836,-1.2836,-1.2836,-1.2836,-1.2836,-1.2836,-1.2836,-1.2836,-1.2704,-1.2704,-1.2704,-1.1501,-0.9371,-0.6575,-0.6309,-0.5776,-0.4307,-0.4308,-0.4308,-0.4308,-0.4422,-0.5178,-0.6707,-0.689,-0.842,-1.1442,-0.9865,-1.0009,0.0,0.0,-1.2584,-1.1564,0.0,0.0,0.0,0.0,0.0,0.0,0.0,0.0,0.0,0.0,0.0,0.0,0.0,0.0,0.0,0.0,0.0,0.0,0.0,0.0,0.0,0.0,0.0,0.0,0.0,0.0,0.0,-1.3082,-1.3697,-1.4128,-1.4338,-1.4597,-1.4999,-1.4657,-1.4223,-1.3626,-1.3724,-1.3055,-1.1946,-1.2021,-1.1711,-1.1194,-1.1194,-1.1194,-1.1096,-1.1096,-1.09,-1.0703,-1.0703,-1.0507,-1.0263,-1.0437,-1.041,-1.0298,-1.059,-1.0692,-1.0692,-1.0692,-1.0737,-1.0842,-1.1363,-1.1615,-1.1728,-1.2277,-1.2242,-1.2001,-1.2001,-1.1889,-1.1792,-1.1849,-1.2089,-1.232,-1.2381,-1.2629,-1.2836,-1.2836,-1.2836,-1.2836,-1.2836,-1.2836,-1.2836,-1.2836,-1.2836,-1.2836,-1.2836,-1.2836,-1.2836,-1.2836,-1.2836,-1.2836,-1.2836,-1.1501,-1.0303,-0.9371,-0.7507,-0.6575,-0.7109,-0.5376,-0.4708,-0.5642,-0.4973,-0.5318,-0.6846,-0.689,-0.8564,-1.1586,-1.1012,-1.1589,-1.2555,-1.276,0.0,-1.2012,-1.1918,0.0,-1.1184,0.0,0.0,0.0,0.0,0.0,0.0,0.0,0.0,0.0,0.0,0.0,0.0,0.0,0.0,0.0,0.0,0.0,0.0,0.0,-1.0391,-1.0431,0.0,0.0,0.0,0.0,-1.3353,-1.3799,-1.4435,-1.4933,-1.5255,-1.5372,-1.509,-1.4573,-1.4573,-1.3838,-1.2387,-1.2387,-1.1916,-1.1194,-1.1194,-1.1194,-1.1194,-1.1194,-1.11,-1.09,-1.09,-1.0806,-1.056,-1.0643,-1.0657,-1.0592,-1.0937,-1.0911,-1.0692,-1.0911,-1.0911,-1.0871,-1.157,-1.1799,-1.1876,-1.249,-1.2599,-1.2359,-1.2234,-1.2122,-1.1889,-1.1776,-1.1996,-1.2227,-1.2292,-1.2536,-1.2759,-1.2824,-1.2836,-1.2836,-1.2836,-1.2836,-1.2836,-1.2836,-1.2836,-1.2836,-1.2836,-1.2836,-1.2836,-1.2836,-1.2836,-1.2836,-1.2836,-1.2037,-1.1237,-1.0704,-0.8972,-0.8174,-0.8573,-0.6309,-0.551,-0.6443,-0.5656,-0.6012,-0.768,-0.8314,-1.0003,-1.2452,-1.2452,-1.2888]}]]